[[{"header":{"parameterUnit":"m.s-1","parameterCategory":1,"la1":31.0,"la2":29.5877,"lo1":-88.7671,"lo2":-86.6584,"dy":0.0162,"dx":0.0185,"nx":115,"ny":88,"refTime":"2024-06-01T06:00:00:Z","depth":0,"parameterNumber":2,"parameterNumberName":"U-component_of_WINDS"},"data":[0.0,0.0,0.0,0.0,0.0,0.0,0.0,0.0,0.0,0.0,0.0,0.0,0.0,0.0,0.0,0.0,0.0,0.0,0.0,0.0,0.0,0.0,0.0,0.0,0.0,0.0,0.0,0.0,0.0,0.0,0.0,0.0,0.0,0.0,0.0,0.0,0.0,0.0,0.0,0.0,0.0,0.0,0.0,0.0,0.0,0.0,0.0,0.0,0.0,0.0,0.0,0.0,0.0,0.0,0.0,0.0,0.0,0.0,0.0,0.0,0.0,0.0,0.0,0.0,0.0,0.0,0.0,0.0,0.0,0.0,0.0,0.0,0.0,0.0,0.0,0.0,0.0,0.0,0.0,0.0,0.0,0.0,0.0,0.0,0.0,0.0,0.0,0.0,0.0,0.0,0.0,0.0,0.0,0.0,0.0,0.0,0.0,0.0,0.0,0.0,0.0,0.0,0.0,0.0,0.0,0.0,0.0,0.0,0.0,0.0,0.0,0.0,0.0,0.0,0.0,0.0,0.0,0.0,0.0,0.0,0.0,0.0,0.0,0.0,0.0,0.0,0.0,0.0,0.0,0.0,0.0,0.0,0.0,0.0,0.0,0.0,0.0,0.0,0.0,0.0,0.0,0.0,0.0,0.0,0.0,0.0,0.0,0.0,0.0,0.0,0.0,0.0,0.0,0.0,0.0,0.0,0.0,0.0,0.0,0.0,0.0,0.0,0.0,0.0,0.0,0.0,0.0,0.0,0.0,0.0,0.0,0.0,0.0,0.0,0.0,0.0,0.0,0.0,0.0,0.0,0.0,0.0,0.0,0.0,0.0,0.0,0.0,0.0,0.0,0.0,0.0,0.0,0.0,0.0,0.0,0.0,0.0,0.0,0.0,0.0,0.0,0.0,0.0,0.0,0.0,0.0,0.0,0.0,0.0,0.0,0.0,0.0,0.0,0.0,0.0,0.0,0.0,0.0,0.0,0.0,0.0,0.0,0.0,0.0,0.0,0.0,0.0,0.0,0.0,0.0,0.0,0.0,0.0,0.0,0.0,0.0,0.0,0.0,0.0,0.0,0.0,0.0,0.0,0.0,0.0,0.0,0.0,0.0,0.0,0.0,0.0,0.0,0.0,0.0,0.0,0.0,0.0,0.0,0.0,0.0,0.0,0.0,0.0,0.0,0.0,0.0,0.0,0.0,0.0,0.0,0.0,0.0,0.0,0.0,0.0,0.0,0.0,0.0,0.0,0.0,0.0,0.0,0.0,0.0,0.0,0.0,0.0,0.0,0.0,0.0,0.0,0.0,0.0,0.0,0.0,0.0,0.0,0.0,0.0,0.0,0.0,0.0,0.0,0.0,0.0,0.0,0.0,0.0,0.0,0.0,0.0,0.0,0.0,0.0,0.0,0.0,0.0,0.0,0.0,0.0,0.0,0.0,0.0,0.0,0.0,0.0,0.0,0.0,0.0,0.0,0.0,0.0,0.0,0.0,0.0,0.0,0.0,0.0,0.0,0.0,0.0,0.0,0.0,0.0,0.0,0.0,0.0,0.0,0.0,0.0,0.0,0.0,0.0,0.0,0.0,0.0,0.0,0.0,0.0,0.0,0.0,0.0,0.0,0.0,0.0,0.0,0.0,0.0,0.0,0.0,0.0,0.0,0.0,0.0,0.0,0.0,0.0,0.0,0.0,0.0,0.0,0.0,0.0,0.0,0.0,0.0,0.0,0.0,0.0,0.0,0.0,0.0,0.0,0.0,0.0,0.0,0.0,0.0,0.0,0.0,0.0,0.0,0.0,0.0,0.0,0.0,0.0,0.0,0.0,0.0,0.0,0.0,0.0,0.0,0.0,0.0,0.0,0.0,0.0,0.0,0.0,0.0,0.0,0.0,0.0,0.0,0.0,0.0,0.0,0.0,0.0,0.0,0.0,0.0,0.0,0.0,0.0,0.0,0.0,0.0,0.0,0.0,0.0,0.0,0.0,0.0,0.0,0.0,0.0,0.0,0.0,0.0,0.0,0.0,0.0,0.0,0.0,0.0,0.0,0.0,0.0,0.0,0.0,0.0,0.0,0.0,0.0,0.0,0.0,0.0,0.0,0.0,0.0,0.0,0.0,0.0,0.0,0.0,0.0,0.0,0.0,0.0,0.0,0.0,0.0,0.0,0.0,0.0,0.0,0.0,0.0,0.0,0.0,0.0,0.0,0.0,0.0,0.0,0.0,0.0,0.0,0.0,0.0,0.0,0.0,0.0,0.0,0.0,0.0,0.0,0.0,0.0,0.0,0.0,0.0,0.0,0.0,0.0,0.0,0.0,0.0,0.0,0.0,0.0,0.0,0.0,0.0,0.0,0.0,0.0,0.0,0.0,0.0,0.0,0.0,0.0,0.0,0.0,0.0,0.0,0.0,0.0,0.0,0.0,0.0,0.0,0.0,0.0,0.0,0.0,0.0,0.0,0.0,0.0,0.0,0.0,0.0,0.0,0.0,0.0,0.0,0.0,0.0,0.0,0.0,0.0,0.0,0.0,0.0,0.0,0.0,0.0,0.0,0.0,0.0,0.0,0.0,0.0,0.0,0.0,0.0,0.0,0.0,0.0,0.0,0.0,0.0,0.0,0.0,0.0,0.0,0.0,0.0,0.0,0.0,0.0,0.0,0.0,0.0,0.0,0.0,0.0,0.0,0.0,0.0,0.0,0.0,0.0,0.0,0.0,0.0,0.0,0.0,0.0,0.0,0.0,0.0,0.0,0.0,0.0,0.0,0.0,0.0,0.0,0.0,0.0,0.0,0.0,0.0,0.0,0.0,0.0,0.0,0.0,0.0,0.0,0.0,0.0,0.0,0.0,0.0,0.0,0.0,0.0,0.0,0.0,0.0,0.0,0.0,0.0,0.0,0.0,0.0,0.0,0.0,0.0,0.0,0.0,0.0,0.0,0.0,0.0,0.0,0.0,0.0,0.0,0.0,0.0,0.0,0.0,0.0,0.0,0.0,0.0,0.0,0.0,0.0,0.0,0.0,0.0,0.0,0.0,0.0,0.0,0.0,0.0,0.0,0.0,0.0,0.0,0.0,0.0,0.0,0.0,0.0,0.0,0.0,0.0,0.0,0.0,0.0,0.0,0.0,0.0,0.0,0.0,0.0,0.0,0.0,0.0,0.0,0.0,0.0,0.0,0.0,0.0,0.0,0.0,0.0,0.0,0.0,0.0,0.0,0.0,0.0,0.0,0.0,0.0,0.0,0.0,0.0,0.0,0.0,0.0,0.0,0.0,0.0,0.0,0.0,0.0,0.0,0.0,0.0,0.0,0.0,0.0,0.0,0.0,0.0,0.0,0.0,0.0,0.0,0.0,0.0,0.0,0.0,0.0,0.0,0.0,0.0,0.0,0.0,0.0,0.0,0.0,0.0,0.0,0.0,0.0,0.0,0.0,0.0,0.0,0.0,0.0,0.0,0.0,0.0,0.0,0.0,0.0,0.0,0.0,0.0,0.0,0.0,0.0,0.0,0.0,0.0,0.0,0.0,0.0,0.0,0.0,0.0,0.0,0.0,0.0,0.0,0.0,0.0,0.0,0.0,0.0,0.0,0.0,0.0,0.0,0.0,0.0,0.0,0.0,0.0,0.0,0.0,0.0,0.0,0.0,0.0,0.0,0.0,0.0,0.0,0.0,0.0,0.0,0.0,0.0,0.0,0.0,0.0,0.0,0.0,0.0,0.0,0.0,0.0,0.0,0.0,0.0,0.0,0.0,0.0,0.0,0.0,0.0,0.0,0.0,0.0,0.0,0.0,0.0,0.0,0.0,0.0,0.0,0.0,0.0,0.0,0.0,0.0,0.0,0.0,0.0,0.0,0.0,0.0,0.0,0.0,0.0,0.0,0.0,0.0,0.0,0.0,0.0,0.0,0.0,0.0,0.0,0.0,0.0,0.0,0.0,0.0,0.0,0.0,0.0,0.0,0.0,0.0,0.0,0.0,0.0,0.0,0.0,0.0,0.0,0.0,0.0,0.0,0.0,0.0,0.0,0.0,0.0,0.0,0.0,0.0,0.0,0.0,0.0,0.0,0.0,0.0,0.0,0.0,0.0,0.0,0.0,0.0,0.0,0.0,0.0,0.0,0.0,0.0,0.0,0.0,0.0,0.0,0.0,0.0,0.0,0.0,0.0,0.0,0.0,0.0,0.0,0.0,0.0,0.0,0.0,0.0,0.0,0.0,0.0,0.0,0.0,0.0,0.0,0.0,0.0,0.0,0.0,0.0,0.0,0.0,0.0,0.0,0.0,0.0,0.0,-0.9438,0.0,0.0,0.0,0.0,0.0,0.0,0.0,0.0,0.0,0.0,0.0,0.0,0.0,0.0,0.0,0.0,0.0,0.0,0.0,0.0,0.0,0.0,0.0,0.0,0.0,0.0,0.0,0.0,0.0,0.0,0.0,0.0,0.0,0.0,0.0,0.0,0.0,0.0,0.0,0.0,0.0,0.0,0.0,0.0,0.0,0.0,0.0,0.0,0.0,0.0,0.0,0.0,0.0,0.0,0.0,0.0,0.0,0.0,0.0,0.0,0.0,0.0,0.0,0.0,0.0,0.0,0.0,0.0,0.0,0.0,0.0,0.0,0.0,0.0,0.0,0.0,0.0,0.0,0.0,0.0,0.0,0.0,0.0,0.0,0.0,0.0,0.0,0.0,0.0,0.0,0.0,0.0,0.0,0.0,0.0,0.0,0.0,0.0,0.0,0.0,0.0,0.0,0.0,0.0,0.0,0.0,0.0,0.0,0.0,0.0,-0.787,-0.7605,-0.8252,-0.8915,-0.9584,0.0,0.0,0.0,0.0,0.0,0.0,0.0,0.0,0.0,0.0,0.0,0.0,0.0,0.0,0.0,0.0,0.0,0.0,0.0,0.0,0.0,0.0,0.0,0.0,0.0,0.0,0.0,0.0,0.0,0.0,0.0,0.0,0.0,0.0,0.0,0.0,0.0,0.0,0.0,0.0,0.0,0.0,0.0,0.0,0.0,0.0,0.0,0.0,0.0,0.0,0.0,0.0,0.0,0.0,0.0,0.0,0.0,0.0,0.0,0.0,0.0,0.0,0.0,0.0,0.0,0.0,0.0,0.0,0.0,0.0,0.0,0.0,0.0,0.0,0.0,0.0,0.0,0.0,0.0,0.0,0.0,0.0,0.0,0.0,0.0,0.0,0.0,0.0,0.0,0.0,0.0,0.0,0.0,0.0,0.0,0.0,0.0,0.0,0.0,0.0,0.0,0.0,0.0,0.0,0.0,0.0,0.0,0.0,0.0,0.0,0.0,0.0,-0.8333,-0.8988,-0.9792,0.0,0.0,0.0,0.0,0.0,0.0,0.0,0.0,0.0,0.0,0.0,0.0,0.0,0.0,0.0,0.0,0.0,0.0,0.0,0.0,0.0,0.0,0.0,0.0,0.0,0.0,0.0,0.0,0.0,0.0,0.0,0.0,0.0,0.0,0.0,0.0,0.0,0.0,0.0,0.0,0.0,0.0,0.0,0.0,0.0,0.0,0.0,0.0,0.0,0.0,0.0,0.0,0.0,0.0,0.0,0.0,0.0,0.0,0.0,0.0,0.0,0.0,0.0,0.0,0.0,0.0,0.0,0.0,0.0,0.0,0.0,0.0,0.0,0.0,0.0,0.0,0.0,0.0,0.0,0.0,0.0,0.0,0.0,0.0,0.0,0.0,0.0,0.0,0.0,0.0,0.0,0.0,0.0,0.0,0.0,0.0,0.0,0.0,0.0,0.0,0.0,0.0,0.0,0.0,0.0,0.0,0.0,0.0,0.0,0.0,-0.8162,-0.8487,-0.8574,0.0,-1.0343,0.0,0.0,0.0,0.0,0.0,0.0,0.0,0.0,0.0,0.0,0.0,0.0,0.0,0.0,0.0,0.0,0.0,0.0,0.0,0.0,0.0,0.0,0.0,0.0,0.0,0.0,0.0,0.0,0.0,0.0,0.0,0.0,0.0,0.0,0.0,0.0,0.0,0.0,0.0,0.0,0.0,0.0,0.0,0.0,0.0,0.0,0.0,0.0,0.0,0.0,0.0,0.0,0.0,0.0,0.0,0.0,0.0,0.0,0.0,0.0,0.0,0.0,0.0,0.0,0.0,0.0,0.0,0.0,0.0,0.0,0.0,0.0,0.0,0.0,0.0,0.0,0.0,0.0,0.0,0.0,0.0,0.0,0.0,0.0,0.0,0.0,0.0,0.0,0.0,0.0,0.0,0.0,0.0,0.0,0.0,0.0,0.0,0.0,0.0,0.0,0.0,0.0,0.0,0.0,0.0,0.0,0.0,0.0,0.0,0.0,-0.8636,-0.8612,-0.9443,-1.0078,0.0,0.0,0.0,0.0,0.0,0.0,0.0,0.0,0.0,0.0,0.0,0.0,0.0,0.0,0.0,0.0,0.0,0.0,0.0,0.0,0.0,0.0,0.0,0.0,0.0,0.0,0.0,0.0,0.0,0.0,0.0,0.0,0.0,0.0,0.0,0.0,0.0,0.0,0.0,0.0,0.0,0.0,0.0,0.0,0.0,0.0,0.0,0.0,0.0,0.0,0.0,0.0,0.0,0.0,0.0,0.0,0.0,0.0,0.0,0.0,0.0,0.0,0.0,0.0,0.0,0.0,0.0,0.0,0.0,0.0,0.0,0.0,0.0,0.0,0.0,0.0,0.0,0.0,0.0,0.0,0.0,0.0,0.0,0.0,0.0,0.0,0.0,0.0,0.0,0.0,0.0,0.0,0.0,0.0,0.0,0.0,0.0,0.0,0.0,0.0,0.0,0.0,0.0,0.0,0.0,0.0,0.0,0.0,0.0,0.0,-0.8827,-0.8951,-0.8935,-0.9969,-1.0569,-1.0586,0.0,0.0,0.0,0.0,0.0,0.0,0.0,0.0,0.0,0.0,0.0,0.0,0.0,0.0,0.0,0.0,0.0,0.0,0.0,0.0,0.0,0.0,0.0,0.0,0.0,0.0,0.0,0.0,0.0,0.0,0.0,0.0,0.0,0.0,0.0,0.0,0.0,0.0,0.0,0.0,0.0,0.0,0.0,0.0,0.0,0.0,0.0,0.0,0.0,0.0,0.0,0.0,0.0,0.0,0.0,0.0,0.0,0.0,0.0,0.0,0.0,0.0,0.0,0.0,0.0,0.0,0.0,0.0,0.0,0.0,0.0,0.0,0.0,0.0,0.0,0.0,0.0,0.0,0.0,0.0,0.0,0.0,0.0,0.0,0.0,0.0,0.0,0.0,0.0,0.0,0.0,0.0,0.0,0.0,0.0,0.0,0.0,0.0,0.0,0.0,0.0,0.0,0.0,0.0,0.0,0.0,0.0,0.0,-0.9742,-0.9074,-0.8987,-0.9535,-0.9802,-1.022,0.0,0.0,0.0,0.0,0.0,0.0,0.0,0.0,0.0,0.0,0.0,0.0,0.0,0.0,0.0,0.0,0.0,0.0,0.0,0.0,0.0,0.0,0.0,0.0,0.0,0.0,0.0,0.0,0.0,0.0,0.0,0.0,0.0,0.0,0.0,0.0,0.0,0.0,0.0,0.0,0.0,0.0,0.0,0.0,0.0,0.0,0.0,0.0,0.0,0.0,0.0,0.0,0.0,0.0,0.0,0.0,0.0,0.0,0.0,0.0,0.0,0.0,0.0,0.0,0.0,0.0,0.0,0.0,0.0,0.0,0.0,0.0,0.0,0.0,0.0,0.0,0.0,0.0,0.0,0.0,0.0,0.0,0.0,0.0,0.0,0.0,0.0,0.0,0.0,0.0,0.0,0.0,0.0,0.0,0.0,0.0,0.0,0.0,0.0,0.0,0.0,0.0,0.0,0.0,0.0,0.0,0.0,0.0,0.0,-0.8542,-0.8599,-0.9136,-1.0141,-1.0362,-1.0782,0.0,0.0,0.0,0.0,0.0,0.0,0.0,0.0,0.0,0.0,0.0,0.0,0.0,0.0,0.0,0.0,0.0,0.0,0.0,0.0,0.0,0.0,0.0,0.0,0.0,0.0,0.0,0.0,0.0,0.0,0.0,0.0,0.0,0.0,0.0,0.0,0.0,0.0,0.0,0.0,0.0,0.0,0.0,0.0,0.0,0.0,0.0,0.0,0.0,0.0,0.0,0.0,0.0,0.0,0.0,0.0,0.0,0.0,0.0,0.0,0.0,0.0,0.0,0.0,0.0,0.0,0.0,0.0,0.0,0.0,0.0,0.0,0.0,0.0,0.0,0.0,0.0,0.0,0.0,0.0,0.0,0.0,0.0,0.0,0.0,0.0,0.0,0.0,0.0,0.0,0.0,0.0,0.0,0.0,0.0,0.0,0.0,0.0,0.0,0.0,0.0,0.0,0.0,0.0,0.0,0.0,0.0,0.0,0.0,-0.8426,0.0,-0.9536,-1.0165,-1.0459,-1.0814,0.0,0.0,0.0,0.0,0.0,0.0,0.0,0.0,0.0,0.0,0.0,0.0,0.0,0.0,0.0,0.0,0.0,0.0,0.0,0.0,0.0,0.0,0.0,0.0,0.0,0.0,0.0,0.0,0.0,0.0,0.0,0.0,0.0,0.0,0.0,0.0,0.0,0.0,0.0,0.0,0.0,0.0,0.0,0.0,0.0,0.0,0.0,0.0,0.0,0.0,0.0,0.0,0.0,0.0,0.0,0.0,0.0,0.0,0.0,0.0,0.0,0.0,0.0,0.0,0.0,0.0,0.0,0.0,0.0,0.0,0.0,0.0,0.0,0.0,0.0,0.0,0.0,0.0,0.0,0.0,0.0,0.0,0.0,0.0,0.0,0.0,0.0,0.0,0.0,0.0,0.0,0.0,0.0,0.0,0.0,0.0,0.0,0.0,0.0,0.0,0.0,0.0,0.0,0.0,0.0,0.0,0.0,0.0,-0.8504,-0.9613,-1.0146,-1.015,-0.9642,-0.9947,-1.0151,0.0,0.0,0.0,0.0,0.0,0.0,0.0,0.0,0.0,0.0,0.0,0.0,0.0,0.0,0.0,0.0,0.0,0.0,0.0,0.0,0.0,0.0,0.0,0.0,0.0,0.0,0.0,0.0,0.0,0.0,0.0,0.0,0.0,0.0,0.0,0.0,0.0,0.0,0.0,0.0,0.0,0.0,0.0,0.0,0.0,0.0,0.0,0.0,0.0,0.0,0.0,0.0,0.0,0.0,0.0,0.0,0.0,0.0,0.0,0.0,0.0,0.0,0.0,0.0,0.0,0.0,0.0,0.0,0.0,0.0,0.0,0.0,0.0,0.0,0.0,0.0,0.0,0.0,0.0,0.0,0.0,0.0,0.0,0.0,0.0,0.0,0.0,0.0,0.0,0.0,0.0,0.0,0.0,0.0,0.0,0.0,0.0,0.0,0.0,0.0,0.0,0.0,0.0,0.0,0.0,0.0,0.0,0.0,0.0,-0.9168,-0.9629,-0.9996,-1.0204,-0.9921,-1.0097,0.0,0.0,0.0,0.0,0.0,0.0,0.0,0.0,0.0,0.0,0.0,0.0,0.0,0.0,0.0,0.0,0.0,0.0,0.0,0.0,0.0,0.0,0.0,0.0,0.0,0.0,0.0,0.0,0.0,0.0,0.0,0.0,0.0,0.0,0.0,0.0,0.0,0.0,0.0,0.0,0.0,0.0,0.0,0.0,0.0,0.0,0.0,0.0,0.0,0.0,0.0,0.0,0.0,0.0,0.0,0.0,0.0,0.0,0.0,0.0,0.0,0.0,0.0,0.0,0.0,0.0,0.0,0.0,0.0,0.0,0.0,0.0,0.0,0.0,0.0,0.0,0.0,0.0,0.0,0.0,0.0,0.0,0.0,0.0,0.0,0.0,0.0,0.0,0.0,0.0,0.0,0.0,0.0,0.0,0.0,0.0,0.0,0.0,0.0,0.0,0.0,0.0,0.0,0.0,0.0,0.0,0.0,0.0,0.0,-1.0052,-1.0234,-1.0394,-1.0488,-1.0181,-1.0237,-1.0703,0.0,0.0,0.0,0.0,0.0,0.0,0.0,0.0,0.0,0.0,0.0,0.0,0.0,0.0,0.0,0.0,0.0,0.0,0.0,0.0,0.0,0.0,0.0,0.0,0.0,0.0,0.0,0.0,0.0,0.0,0.0,0.0,0.0,0.0,0.0,0.0,0.0,0.0,0.0,0.0,0.0,0.0,0.0,0.0,0.0,0.0,0.0,0.0,0.0,0.0,0.0,0.0,0.0,0.0,0.0,0.0,0.0,0.0,0.0,0.0,0.0,0.0,0.0,0.0,0.0,0.0,0.0,0.0,0.0,0.0,0.0,0.0,0.0,0.0,0.0,0.0,0.0,0.0,0.0,0.0,0.0,0.0,0.0,0.0,0.0,0.0,0.0,0.0,0.0,0.0,0.0,0.0,0.0,0.0,0.0,0.0,0.0,0.0,0.0,0.0,0.0,0.0,0.0,0.0,0.0,0.0,0.0,0.0,-1.198,-1.1807,-1.1377,-1.0668,-1.0705,-1.0558,0.0,0.0,0.0,0.0,0.0,0.0,0.0,0.0,0.0,0.0,0.0,0.0,0.0,0.0,0.0,0.0,0.0,0.0,0.0,0.0,0.0,0.0,0.0,0.0,0.0,0.0,0.0,0.0,0.0,0.0,0.0,0.0,0.0,0.0,0.0,0.0,0.0,0.0,0.0,0.0,0.0,0.0,0.0,0.0,0.0,0.0,0.0,0.0,0.0,0.0,0.0,0.0,0.0,0.0,0.0,0.0,0.0,0.0,0.0,0.0,0.0,0.0,0.0,0.0,0.0,0.0,0.0,0.0,0.0,0.0,0.0,0.0,0.0,0.0,0.0,0.0,0.0,0.0,0.0,0.0,0.0,0.0,0.0,0.0,0.0,0.0,0.0,0.0,0.0,0.0,0.0,0.0,0.0,0.0,0.0,0.0,0.0,0.0,0.0,0.0,0.0,0.0,0.0,0.0,0.0,0.0,0.0,0.0,0.0,-1.2856,-1.3108,-1.2862,-1.2074,-1.1601,-1.122,0.0,0.0,0.0,0.0,0.0,0.0,0.0,0.0,0.0,0.0,0.0,0.0,0.0,0.0,0.0,0.0,0.0,0.0,0.0,0.0,0.0,0.0,0.0,0.0,0.0,0.0,0.0,0.0,0.0,0.0,0.0,0.0,0.0,0.0,0.0,0.0,0.0,0.0,0.0,0.0,0.0,0.0,0.0,0.0,0.0,0.0,0.0,0.0,0.0,0.0,0.0,0.0,0.0,0.0,0.0,0.0,0.0,0.0,0.0,0.0,0.0,0.0,0.0,0.0,0.0,0.0,0.0,0.0,0.0,0.0,0.0,0.0,0.0,0.0,0.0,0.0,0.0,0.0,0.0,0.0,0.0,0.0,0.0,0.0,0.0,0.0,0.0,0.0,0.0,0.0,0.0,0.0,0.0,0.0,0.0,0.0,0.0,0.0,0.0,0.0,0.0,0.0,0.0,0.0,0.0,0.0,0.0,0.0,-1.3635,-1.3954,-1.4465,-1.4354,-1.3572,-1.2834,-1.2231,0.0,0.0,0.0,0.0,0.0,0.0,0.0,0.0,0.0,0.0,0.0,0.0,0.0,0.0,0.0,0.0,0.0,0.0,0.0,0.0,0.0,0.0,0.0,0.0,0.0,0.0,0.0,0.0,0.0,0.0,0.0,0.0,0.0,0.0,0.0,0.0,0.0,0.0,0.0,0.0,0.0,0.0,0.0,0.0,0.0,0.0,0.0,0.0,0.0,0.0,0.0,0.0,0.0,0.0,0.0,0.0,0.0,0.0,0.0,0.0,0.0,0.0,0.0,0.0,0.0,0.0,0.0,0.0,0.0,0.0,0.0,0.0,0.0,0.0,0.0,0.0,0.0,0.0,0.0,0.0,0.0,0.0,0.0,0.0,0.0,0.0,0.0,0.0,0.0,0.0,0.0,0.0,0.0,0.0,0.0,0.0,0.0,0.0,0.0,0.0,0.0,0.0,0.0,0.0,0.0,0.0,0.0,0.0,-1.4833,-1.5045,-1.5674,-1.5721,-1.5118,-1.4204,-1.3389,0.0,0.0,0.0,0.0,0.0,0.0,0.0,0.0,0.0,0.0,0.0,0.0,0.0,0.0,0.0,0.0,0.0,0.0,0.0,0.0,0.0,0.0,0.0,0.0,0.0,0.0,0.0,0.0,0.0,0.0,0.0,0.0,0.0,0.0,0.0,0.0,0.0,0.0,0.0,0.0,0.0,0.0,0.0,0.0,0.0,0.0,0.0,0.0,0.0,0.0,0.0,0.0,0.0,0.0,0.0,0.0,0.0,0.0,0.0,0.0,0.0,0.0,0.0,0.0,0.0,0.0,0.0,0.0,0.0,0.0,0.0,0.0,0.0,0.0,0.0,0.0,0.0,0.0,0.0,0.0,0.0,0.0,0.0,0.0,0.0,0.0,0.0,0.0,0.0,0.0,0.0,0.0,0.0,0.0,0.0,0.0,0.0,0.0,0.0,0.0,0.0,0.0,0.0,0.0,0.0,0.0,0.0,0.0,-1.5002,-1.5332,-1.5904,-1.6318,-1.6473,-1.5222,-1.4121,0.0,0.0,0.0,0.0,0.0,0.0,0.0,0.0,0.0,0.0,0.0,0.0,0.0,0.0,0.0,0.0,0.0,0.0,0.0,0.0,0.0,0.0,0.0,0.0,0.0,0.0,0.0,0.0,0.0,0.0,0.0,0.0,0.0,0.0,0.0,0.0,0.0,0.0,0.0,0.0,0.0,0.0,0.0,0.0,0.0,0.0,0.0,0.0,-0.5962,0.0,0.0,0.0,0.0,0.0,0.0,0.0,0.0,0.0,0.0,0.0,0.0,0.0,0.0,0.0,0.0,0.0,0.0,0.0,0.0,0.0,0.0,0.0,0.0,0.0,0.0,0.0,0.0,0.0,0.0,0.0,0.0,0.0,0.0,0.0,0.0,0.0,0.0,0.0,0.0,0.0,0.0,0.0,0.0,0.0,0.0,0.0,0.0,0.0,0.0,0.0,0.0,0.0,0.0,0.0,0.0,0.0,0.0,0.0,-1.5551,-1.5951,-1.6209,-1.6503,-1.6757,-1.5998,-1.5164,0.0,0.0,0.0,0.0,0.0,0.0,0.0,0.0,0.0,0.0,0.0,0.0,0.0,0.0,0.0,0.0,0.0,0.0,0.0,0.0,0.0,0.0,0.0,0.0,0.0,0.0,0.0,0.0,0.0,0.0,0.0,0.0,0.0,0.0,0.0,0.0,0.0,0.0,0.0,0.0,0.0,0.0,0.0,0.0,0.0,0.0,0.0,0.0,0.0,0.0,0.0,0.0,0.0,0.0,0.0,0.0,0.0,0.0,0.0,0.0,0.0,0.0,0.0,0.0,0.0,0.0,0.0,0.0,0.0,0.0,0.0,0.0,0.0,0.0,0.0,0.0,0.0,0.0,0.0,0.0,0.0,0.0,0.0,0.0,0.0,0.0,0.0,0.0,0.0,0.0,0.0,0.0,0.0,0.0,0.0,0.0,0.0,0.0,0.0,0.0,0.0,0.0,0.0,0.0,0.0,0.0,0.0,-1.5574,-1.6056,-1.6602,-1.6543,-1.6581,-1.676,-1.662,-1.6159,-1.5359,0.0,0.0,0.0,0.0,0.0,0.0,0.0,0.0,0.0,0.0,0.0,0.0,0.0,0.0,0.0,0.0,0.0,0.0,0.0,0.0,0.0,0.0,0.0,0.0,0.0,0.0,0.0,0.0,0.0,0.0,0.0,0.0,0.0,0.0,0.0,0.0,0.0,0.0,-0.519,-0.5787,0.0,0.0,0.0,0.0,0.0,0.0,0.0,0.0,-0.6589,0.0,0.0,0.0,0.0,0.0,0.0,0.0,0.0,0.0,0.0,0.0,0.0,0.0,0.0,0.0,0.0,0.0,0.0,0.0,0.0,0.0,0.0,0.0,0.0,0.0,0.0,0.0,0.0,0.0,0.0,0.0,0.0,0.0,0.0,0.0,0.0,0.0,0.0,0.0,0.0,0.0,0.0,0.0,0.0,0.0,0.0,0.0,0.0,0.0,0.0,0.0,0.0,0.0,0.0,0.0,0.0,-1.5866,-1.5479,-1.5725,-1.6744,-1.6837,-1.6964,-1.7101,-1.7138,-1.6609,-1.5482,0.0,0.0,0.0,0.0,0.0,0.0,0.0,0.0,0.0,0.0,0.0,0.0,0.0,0.0,0.0,0.0,0.0,0.0,0.0,0.0,0.0,0.0,0.0,0.0,0.0,0.0,0.0,0.0,0.0,0.0,0.0,0.0,0.0,0.0,0.0,0.0,0.0,0.0,0.0,-0.6251,-0.6794,0.0,0.0,0.0,0.0,0.0,0.0,0.0,0.0,-0.689,0.0,0.0,0.0,0.0,0.0,0.0,0.0,0.0,0.0,0.0,0.0,0.0,0.0,0.0,0.0,0.0,0.0,0.0,0.0,0.0,0.0,0.0,0.0,0.0,0.0,0.0,0.0,0.0,0.0,0.0,0.0,0.0,0.0,0.0,0.0,0.0,0.0,0.0,0.0,0.0,0.0,0.0,0.0,0.0,0.0,0.0,0.0,0.0,0.0,0.0,0.0,0.0,0.0,0.0,0.0,-1.5849,-1.6353,-1.6753,-1.7142,-1.7264,-1.7313,-1.7296,-1.6974,-1.6381,0.0,0.0,0.0,0.0,0.0,0.0,0.0,0.0,0.0,0.0,0.0,0.0,0.0,0.0,0.0,0.0,0.0,0.0,0.0,0.0,0.0,0.0,0.0,0.0,0.0,0.0,0.0,0.0,0.0,0.0,0.0,0.0,0.0,0.0,0.0,0.0,0.0,0.0,0.0,0.0,-0.6301,-0.6769,-0.7531,0.0,0.0,0.0,0.0,0.0,0.0,-0.7422,-0.7514,0.0,0.0,0.0,0.0,0.0,0.0,0.0,0.0,0.0,0.0,0.0,0.0,0.0,0.0,0.0,0.0,0.0,0.0,0.0,0.0,0.0,0.0,0.0,0.0,0.0,0.0,0.0,0.0,0.0,0.0,0.0,0.0,0.0,0.0,0.0,0.0,0.0,0.0,0.0,0.0,0.0,0.0,0.0,0.0,0.0,0.0,0.0,0.0,0.0,0.0,0.0,0.0,0.0,0.0,0.0,-1.5848,-1.7079,-1.7668,-1.7532,-1.7601,-1.7566,-1.7384,-1.6868,-1.6258,0.0,0.0,0.0,0.0,0.0,0.0,0.0,0.0,0.0,0.0,0.0,0.0,0.0,0.0,0.0,0.0,0.0,0.0,0.0,0.0,0.0,0.0,0.0,0.0,0.0,0.0,0.0,0.0,0.0,0.0,0.0,0.0,0.0,0.0,0.0,0.0,0.0,0.0,0.0,0.0,0.0,-0.6874,-0.7457,-0.7411,0.0,0.0,0.0,0.0,-0.7757,-0.8103,0.0,0.0,0.0,0.0,0.0,0.0,0.0,0.0,0.0,0.0,0.0,0.0,0.0,0.0,0.0,0.0,0.0,0.0,0.0,0.0,0.0,0.0,0.0,0.0,0.0,0.0,0.0,0.0,0.0,0.0,0.0,0.0,0.0,0.0,0.0,0.0,0.0,0.0,0.0,0.0,0.0,0.0,0.0,0.0,0.0,0.0,0.0,0.0,0.0,0.0,0.0,0.0,0.0,0.0,0.0,0.0,-1.5923,-1.678,-1.7336,-1.759,-1.7704,-1.764,-1.7329,-1.7517,-1.688,0.0,0.0,0.0,0.0,0.0,0.0,0.0,0.0,0.0,0.0,0.0,0.0,0.0,0.0,0.0,0.0,0.0,0.0,0.0,0.0,0.0,0.0,0.0,0.0,0.0,0.0,0.0,0.0,0.0,0.0,0.0,0.0,0.0,0.0,0.0,0.0,0.0,0.0,0.0,0.0,0.0,-0.7431,-0.7355,-0.7569,-0.7861,0.0,0.0,-0.8599,-0.8779,-0.911,0.0,0.0,0.0,0.0,0.0,0.0,0.0,0.0,0.0,0.0,0.0,0.0,0.0,0.0,0.0,0.0,0.0,0.0,0.0,0.0,0.0,0.0,0.0,0.0,0.0,0.0,0.0,0.0,0.0,0.0,0.0,0.0,0.0,0.0,0.0,0.0,0.0,0.0,0.0,0.0,0.0,0.0,0.0,0.0,0.0,0.0,0.0,0.0,0.0,0.0,0.0,0.0,0.0,0.0,0.0,-1.4948,-1.6325,-1.7533,-1.8087,-1.8069,-1.8198,-1.8103,-1.7771,-1.705,-1.6135,0.0,0.0,0.0,0.0,0.0,0.0,0.0,0.0,0.0,0.0,0.0,0.0,0.0,0.0,0.0,0.0,0.0,0.0,0.0,0.0,0.0,0.0,0.0,0.0,0.0,0.0,0.0,0.0,0.0,0.0,0.0,0.0,0.0,0.0,0.0,0.0,0.0,0.0,0.0,0.0,0.0,0.0,-0.774,-0.8063,0.0,0.0,0.0,-0.8907,-0.8793,0.0,0.0,0.0,0.0,0.0,0.0,0.0,0.0,0.0,0.0,0.0,0.0,0.0,0.0,0.0,0.0,0.0,0.0,0.0,0.0,0.0,0.0,0.0,0.0,0.0,0.0,0.0,0.0,0.0,0.0,0.0,0.0,0.0,0.0,0.0,0.0,0.0,0.0,0.0,0.0,0.0,0.0,0.0,0.0,0.0,0.0,0.0,0.0,0.0,0.0,0.0,0.0,0.0,0.0,0.0,0.0,0.0,-1.661,-1.8115,-1.8752,-1.8463,-1.8556,-1.8442,-1.8094,-1.6831,0.0,0.0,0.0,0.0,0.0,0.0,0.0,0.0,0.0,0.0,0.0,0.0,0.0,0.0,0.0,0.0,0.0,0.0,0.0,0.0,0.0,0.0,0.0,0.0,0.0,0.0,0.0,-0.3322,0.0,0.0,0.0,0.0,0.0,0.0,0.0,0.0,0.0,0.0,0.0,0.0,0.0,0.0,-0.7941,-0.8103,-0.8451,-0.8741,0.0,0.0,-0.9152,-0.8983,-0.9175,-0.9175,0.0,0.0,0.0,0.0,0.0,0.0,0.0,0.0,0.0,0.0,0.0,0.0,0.0,0.0,0.0,0.0,0.0,0.0,0.0,0.0,0.0,0.0,0.0,0.0,0.0,0.0,0.0,0.0,0.0,0.0,0.0,0.0,0.0,0.0,0.0,0.0,0.0,0.0,0.0,0.0,0.0,0.0,0.0,0.0,0.0,0.0,0.0,0.0,0.0,0.0,0.0,0.0,0.0,0.0,-1.5055,-1.6592,-1.8113,-1.8816,-1.8612,-1.8585,-1.845,-1.8094,-1.7443,-1.6321,0.0,0.0,0.0,0.0,0.0,0.0,0.0,0.0,0.0,0.0,0.0,0.0,0.0,0.0,0.0,0.0,0.0,0.0,0.0,0.0,0.0,0.0,0.0,0.0,0.0,0.0,0.0,0.0,0.0,0.0,0.0,0.0,0.0,0.0,0.0,0.0,0.0,0.0,0.0,0.0,0.0,-0.8505,-0.8229,-0.8487,-0.8763,0.0,-0.9122,-0.9372,-0.9837,-1.0128,-1.0089,-0.943,0.0,0.0,0.0,0.0,0.0,0.0,0.0,0.0,0.0,0.0,0.0,0.0,0.0,0.0,0.0,0.0,0.0,0.0,0.0,0.0,0.0,0.0,0.0,0.0,0.0,0.0,0.0,0.0,0.0,0.0,0.0,0.0,0.0,0.0,0.0,0.0,0.0,0.0,0.0,0.0,0.0,0.0,0.0,0.0,0.0,0.0,0.0,0.0,0.0,0.0,0.0,0.0,0.0,-1.4997,-1.6711,-1.8608,-1.9596,-1.965,-2.0043,-1.9956,-1.9351,-1.8036,-1.6606,0.0,0.0,0.0,0.0,0.0,0.0,0.0,0.0,0.0,0.0,0.0,0.0,0.0,0.0,0.0,0.0,0.0,0.0,0.0,0.0,0.0,0.0,0.0,0.0,0.0,0.0,0.0,0.0,-0.4982,-0.4897,-0.5096,0.0,0.0,0.0,0.0,0.0,0.0,0.0,0.0,0.0,0.0,-0.8757,-0.8697,-0.8913,0.0,0.0,-0.9197,-0.9286,-0.9477,-0.9474,-0.932,-0.9056,-0.8837,0.0,0.0,0.0,0.0,0.0,0.0,0.0,0.0,0.0,0.0,0.0,0.0,0.0,0.0,0.0,0.0,0.0,0.0,0.0,0.0,0.0,0.0,0.0,0.0,0.0,0.0,0.0,0.0,0.0,0.0,0.0,0.0,0.0,0.0,0.0,0.0,0.0,0.0,0.0,0.0,0.0,0.0,0.0,0.0,0.0,0.0,0.0,0.0,0.0,0.0,0.0,0.0,-1.5077,-1.7074,-1.9021,-2.0099,-2.0246,-2.0968,-2.0868,-1.9831,-1.8315,-1.6934,0.0,0.0,0.0,0.0,0.0,0.0,0.0,0.0,0.0,0.0,0.0,0.0,0.0,0.0,0.0,0.0,0.0,0.0,0.0,0.0,0.0,0.0,0.0,0.0,0.0,0.0,0.0,0.0,-0.5367,-0.5094,-0.5254,0.0,0.0,0.0,0.0,0.0,0.0,0.0,0.0,0.0,0.0,-0.8988,-0.9073,-0.9208,-0.9308,-0.9308,-0.9248,-0.9277,-0.9366,-0.9214,-0.9084,-0.905,0.0,0.0,0.0,0.0,0.0,0.0,0.0,0.0,0.0,0.0,0.0,0.0,0.0,0.0,0.0,0.0,0.0,0.0,0.0,0.0,0.0,0.0,0.0,0.0,0.0,0.0,0.0,-0.9623,0.0,0.0,-0.9623,0.0,0.0,0.0,0.0,0.0,0.0,0.0,0.0,0.0,0.0,0.0,0.0,0.0,0.0,0.0,0.0,0.0,0.0,0.0,0.0,0.0,0.0,-1.5282,-1.7633,-1.9273,-2.0109,-2.0135,-2.1024,-2.078,-1.9241,-1.8269,-1.7393,-1.6443,0.0,0.0,0.0,0.0,0.0,0.0,0.0,0.0,0.0,0.0,0.0,0.0,0.0,0.0,0.0,0.0,0.0,0.0,0.0,0.0,0.0,0.0,0.0,0.0,0.0,0.0,-0.5445,-0.5394,-0.5379,0.0,0.0,0.0,0.0,0.0,0.0,0.0,0.0,0.0,-0.8717,-0.909,-0.929,-0.9299,-0.9308,-0.9328,-0.9328,-0.9328,-0.9428,-0.9715,-0.9765,-0.9723,0.0,0.0,0.0,0.0,0.0,0.0,0.0,0.0,0.0,0.0,0.0,0.0,0.0,0.0,0.0,0.0,0.0,0.0,0.0,0.0,0.0,0.0,0.0,0.0,0.0,0.0,0.0,-1.2017,-1.1291,0.0,0.0,0.0,0.0,0.0,0.0,0.0,0.0,0.0,0.0,0.0,-1.6487,-1.6956,0.0,0.0,0.0,0.0,0.0,0.0,0.0,0.0,0.0,0.0,0.0,0.0,-1.5587,-1.6995,-1.9395,-2.0672,-2.0713,-2.2007,-2.201,-2.0532,-1.9695,-1.816,-1.5828,0.0,0.0,0.0,0.0,0.0,0.0,0.0,0.0,0.0,0.0,0.0,0.0,0.0,0.0,0.0,0.0,0.0,0.0,0.0,0.0,0.0,0.0,0.0,0.0,0.0,-0.6013,0.0,0.0,0.0,0.0,0.0,0.0,0.0,0.0,0.0,0.0,-0.8427,-0.8967,-0.9171,-0.9523,-0.9774,-0.9774,-0.9754,-0.9754,0.0,0.0,0.0,0.0,0.0,0.0,0.0,0.0,0.0,0.0,0.0,0.0,0.0,0.0,-0.8961,-0.8035,-0.7789,-0.7806,-0.8018,0.0,0.0,0.0,0.0,0.0,0.0,0.0,0.0,0.0,0.0,0.0,0.0,0.0,0.0,-1.3711,-1.2987,-1.2973,0.0,0.0,0.0,0.0,0.0,0.0,0.0,0.0,-1.7429,-1.8001,-1.7752,-1.8169,-1.7959,0.0,-1.7593,-1.6629,0.0,0.0,0.0,0.0,0.0,0.0,0.0,0.0,-1.6222,-1.7379,-2.0016,-2.126,-2.1107,-2.2589,-2.2698,-2.1235,-2.011,-1.8315,-1.5768,-1.4399,-1.3595,0.0,0.0,0.0,0.0,0.0,0.0,0.0,0.0,0.0,0.0,0.0,0.0,0.0,0.0,0.0,0.0,0.0,0.0,0.0,0.0,0.0,0.0,0.0,-0.6106,0.0,0.0,0.0,0.0,0.0,0.0,0.0,0.0,0.0,-0.8417,-0.8995,-0.9486,-0.9676,-0.9945,-1.0098,-1.0098,0.0,0.0,0.0,0.0,0.0,0.0,0.0,-1.0207,-1.0146,-1.0201,-1.0274,-1.0354,-1.058,-1.075,-1.075,0.0,0.0,-0.8966,-0.8748,-0.8765,-0.8844,-0.9079,-0.9237,-0.9116,-0.8854,-0.8672,0.0,0.0,0.0,0.0,-1.7316,0.0,0.0,0.0,-1.6016,-1.5528,0.0,-1.4749,0.0,0.0,0.0,0.0,-1.6113,-1.8362,0.0,0.0,-1.9808,-2.013,-1.94,-1.9253,-1.8779,-1.8113,-1.9299,-1.8816,-1.6815,-1.5987,0.0,0.0,0.0,0.0,0.0,0.0,-1.7186,-1.8626,-2.0929,-2.1814,-2.111,-2.2668,-2.279,-2.122,-1.9532,-1.7869,-1.6333,-1.5456,-1.4273,-1.2671,-1.194,0.0,0.0,0.0,0.0,0.0,0.0,0.0,0.0,0.0,0.0,0.0,0.0,0.0,0.0,0.0,0.0,0.0,0.0,0.0,0.0,-0.6418,0.0,0.0,0.0,0.0,0.0,0.0,0.0,0.0,0.0,-0.9836,-0.9501,-0.9575,-0.9786,-1.0225,0.0,0.0,0.0,0.0,-1.0361,-1.0361,-1.0754,-1.105,-1.106,-1.1364,-1.1471,-1.1099,0.0,0.0,-1.1645,-1.1645,-1.1665,-1.1665,-1.1427,-1.0882,-1.0074,-0.9725,-0.9466,-0.9157,-0.9151,-0.8991,-0.8709,-0.8849,-0.8915,-2.0327,0.0,0.0,0.0,0.0,-1.9188,-1.9455,-2.0243,-1.9634,-1.8614,-1.7365,-1.7328,0.0,0.0,0.0,0.0,0.0,0.0,-1.9842,-2.0249,-2.1194,-2.1467,-2.1139,-2.0975,-2.0689,-2.0354,-2.0614,-2.0182,-1.9084,-1.8807,-1.7084,-1.4071,0.0,0.0,0.0,0.0,-1.7529,-1.7986,-1.9629,-2.0356,-2.0033,-2.1576,-2.1967,-2.1078,-1.9609,-1.8307,-1.7222,-1.6383,-1.536,-1.4187,-1.3409,0.0,0.0,0.0,0.0,0.0,0.0,0.0,0.0,0.0,0.0,0.0,0.0,0.0,0.0,0.0,0.0,0.0,0.0,0.0,-0.7371,-0.7018,-0.7044,0.0,0.0,0.0,0.0,0.0,0.0,0.0,0.0,0.0,-1.0518,-1.0446,-1.0327,0.0,0.0,-1.084,-1.0544,-1.105,-1.1434,-1.1434,-1.188,0.0,-1.2194,-1.2214,-1.2181,-1.1962,-1.1926,-1.2055,-1.2583,-1.2669,-1.2768,-1.3089,-1.2743,-1.222,-1.1813,-1.1136,-1.0539,-1.0171,-1.0303,-1.046,-1.036,-1.01,-0.993,-2.2798,-2.1809,-2.1117,-2.1086,-2.1447,-2.0933,-2.1276,-2.2135,-2.1617,-2.0884,-2.0007,-1.9976,-1.942,-1.8488,-1.8542,0.0,0.0,0.0,-2.1009,-2.1542,-2.1901,-2.2009,-2.1855,-2.1686,-2.1498,-2.1308,-2.1219,-2.0964,-2.0517,-2.0497,-1.9183,-1.67,0.0,-1.6599,-1.5775,-1.7309,-1.8127,-1.8146,-1.9568,-2.0129,-1.9785,-2.1207,-2.1648,-2.0933,-1.9814,-1.8831,-1.7985,-1.7144,-1.6431,-1.5819,-1.5027,-1.4006,0.0,0.0,0.0,0.0,0.0,0.0,0.0,0.0,0.0,0.0,0.0,-0.578,-0.5002,0.0,0.0,0.0,-0.7901,-0.8368,-0.8247,-0.8325,0.0,0.0,0.0,0.0,0.0,0.0,0.0,-1.1173,-1.1237,-1.1338,-1.1608,-1.1677,-1.1448,-1.085,-1.1359,-1.1667,-1.1437,0.0,-1.2799,-1.281,-1.3368,-1.3707,-1.3532,-1.3519,-1.3515,-1.3413,-1.3164,-1.3261,-1.4046,-1.4208,-1.4227,-1.4221,-1.3854,-1.3387,-1.2968,-1.231,-1.1566,-1.0893,-1.0939,-1.1056,-1.0934,-1.0547,-1.0327,-2.4984,-2.4883,-2.3265,-2.2615,-2.2577,-2.2517,-2.2501,-2.2508,-2.2494,-2.2457,-2.2414,-2.2395,-2.2358,-2.2308,-2.232,0.0,-2.2502,-2.2455,-2.2446,-2.2515,-2.2397,-2.2226,-2.2013,-2.1913,-2.1717,-2.1534,-2.1506,-2.146,-2.1386,-2.1327,-2.0912,-2.0169,-1.8655,-1.7893,-1.7907,-1.8485,-1.8797,-1.8815,-2.0188,-2.0626,-2.0037,-2.1324,-2.1616,-2.0769,-2.0083,-1.9326,-1.8522,-1.7719,-1.7297,-1.7273,-1.6484,-1.5704,-1.4951,0.0,0.0,0.0,0.0,0.0,0.0,0.0,0.0,0.0,0.0,0.0,0.0,0.0,0.0,-0.7642,-0.8659,0.0,-0.964,-1.0038,0.0,0.0,0.0,-1.0753,-1.1709,-1.1978,-1.2256,-1.2725,0.0,0.0,-1.2663,-1.3019,-1.2986,-1.2157,-1.2476,-1.2782,-1.2782,-1.3709,-1.4401,-1.4401,-1.5038,-1.5384,-1.5026,-1.5107,-1.5207,-1.5161,-1.4849,-1.4904,-1.5705,-1.5924,-1.5741,-1.5263,-1.4799,-1.4363,-1.3734,-1.3314,-1.2661,-1.1636,-1.1302,-1.1116,-1.0896,-1.0565,-1.045,-2.4984,-2.4965,-2.4554,-2.4317,-2.4235,-2.4202,-2.4195,-2.4207,-2.4155,-2.3805,-2.3285,-2.3285,-2.2973,-2.2458,-2.2451,-2.2786,-2.3385,-2.3372,-2.3725,-2.4331,-2.4221,-2.408,-2.3948,-2.3839,-2.3648,-2.3363,-2.3353,-2.2982,-2.2242,-2.2214,-2.179,-2.1035,-2.0602,-1.9802,-1.8628,-1.8717,-1.8797,-1.8797,-1.9154,-1.9564,-2.0002,-2.0881,-2.0967,-2.0218,-1.9964,-1.9454,-1.8601,-1.775,-1.7309,-1.7256,-1.5993,-1.5163,-1.4904,-1.1955,0.0,0.0,0.0,0.0,0.0,0.0,0.0,0.0,0.0,-0.888,-0.7662,0.0,-1.0416,0.0,-1.0058,-1.0789,-1.1061,-1.0978,0.0,0.0,-1.1839,-1.2065,-1.2758,-1.2844,-1.279,-1.2661,-1.3017,-1.3276,-1.3282,-1.3734,-1.4063,-1.4146,-1.4381,-1.4429,-1.4254,-1.5308,-1.6109,-1.6134,-1.6586,-1.6919,-1.6703,-1.6556,-1.6466,-1.6466,-1.6191,-1.6176,-1.6655,-1.674,-1.6667,-1.6382,-1.6001,-1.5485,-1.4878,-1.4446,-1.4014,-1.3491,-1.2696,-1.2,-1.1887,-1.1608,-1.1435,-2.6129,-2.611,-2.6103,-2.5854,-2.5388,-2.5021,-2.4896,-2.4889,-2.4853,-2.4615,-2.4223,-2.4223,-2.4004,-2.3632,-2.398,-2.4188,-2.4295,-2.4662,-2.4889,-2.5003,-2.4917,-2.4805,-2.465,-2.4602,-2.4409,-2.4057,-2.4047,-2.3701,-2.3107,-2.3076,-2.2849,-2.2417,-2.2018,-2.1367,-2.0473,-1.9746,-1.9218,-1.886,-1.8815,-1.9172,-1.9984,-2.0705,-2.059,-1.9528,-2.0087,-1.9712,-1.8208,-1.8038,-1.7798,-1.7409,-1.6244,-1.5402,-1.5009,-1.2634,-1.1094,0.0,0.0,0.0,0.0,0.0,0.0,0.0,0.0,0.0,0.0,0.0,-1.1621,-1.117,-1.2129,-1.2912,-1.3261,-1.3245,-1.3401,-1.3826,-1.3441,-1.3295,-1.3639,-1.3644,-1.3577,-1.3382,-1.3884,-1.4372,-1.4628,-1.5338,-1.6052,-1.6584,-1.697,-1.6773,-1.588,-1.6645,-1.746,-1.7484,-1.7686,-1.7836,-1.7634,-1.7136,-1.6968,-1.7503,-1.7376,-1.7361,-1.7941,-1.802,-1.7794,-1.7186,-1.6765,-1.6208,-1.5391,-1.4951,-1.4695,-1.4523,-1.3984,-1.3451,-1.3109,-1.2742,-1.2529,-2.7494,-2.7494,-2.7399,-2.6956,-2.6292,-2.5401,-2.4984,-2.4984,-2.4984,-2.4984,-2.4984,-2.5098,-2.5155,-2.5212,-2.6008,-2.5989,-2.5363,-2.5932,-2.5837,-2.5174,-2.5041,-2.4915,-2.4738,-2.473,-2.4537,-2.4136,-2.4136,-2.402,-2.3806,-2.3807,-2.3797,-2.3761,-2.304,-2.2623,-2.2486,-2.1133,-1.9964,-1.9076,-1.8914,-1.9154,-1.9842,-2.0593,-2.0289,-1.8958,-2.0118,-1.9878,-1.7896,-1.8351,-1.8378,-1.7762,-1.6937,-1.616,-1.5502,-1.396,-1.2693,0.0,-1.176,0.0,0.0,0.0,0.0,0.0,0.0,0.0,0.0,-1.2189,-1.2848,-1.3445,-1.4505,-1.526,-1.5507,-1.5668,-1.5698,-1.5515,-1.4744,-1.4235,-1.4287,-1.4316,-1.4343,-1.4411,-1.4992,-1.5647,-1.6254,-1.7333,-1.8261,-1.8729,-1.9297,-1.9041,-1.7622,-1.7963,-1.8495,-1.8493,-1.8451,-1.8354,-1.8221,-1.7576,-1.7433,-1.8409,-1.8405,-1.8458,-1.9036,-1.9109,-1.8727,-1.7715,-1.7174,-1.6645,-1.5527,-1.5235,-1.5117,-1.5117,-1.5031,-1.4788,-1.4212,-1.3758,-1.3539,-2.7494,-2.7437,-2.6728,-2.6773,-2.7134,-2.5655,-2.4984,-2.4984,-2.4984,-2.4984,-2.5041,-2.5686,-2.597,-2.6046,-2.6861,-2.7153,-2.6994,-2.6444,-2.6122,-2.5951,-2.5307,-2.499,-2.4943,-2.4943,-2.4746,-2.4355,-2.4364,-2.4155,-2.3806,-2.3803,-2.3813,-2.3803,-2.3629,-2.325,-2.2668,0.0,0.0,0.0,-1.9219,-1.8941,-1.9129,-1.9901,-1.9847,-1.8932,-1.9156,0.0,-1.8673,-1.8119,-1.8057,-1.8512,-1.7798,0.0,0.0,0.0,0.0,0.0,0.0,0.0,0.0,0.0,0.0,0.0,-1.4071,-1.421,-1.4143,-1.5061,-1.5955,-1.6651,-1.6653,-1.6502,-1.6229,-1.5524,-1.4935,-1.4596,-1.4387,-1.4284,-1.4316,-1.433,-1.4479,-1.4995,-1.5978,-1.6862,-1.7513,-1.8602,-1.9377,-1.9576,-2.0071,-2.0273,-1.9871,-1.9515,-1.925,-1.8948,-1.8753,-1.8857,-1.9235,-1.8996,-1.8756,-1.9196,-1.9209,-1.9063,-1.8871,-1.8801,-1.8521,-1.7765,-1.739,-1.6965,-1.62,-1.5904,-1.5682,-1.5585,-1.5556,-1.541,-1.4893,-1.4475,-1.4213,-2.8673,-2.8616,-2.7782,-2.7468,0.0,-2.6122,-2.561,-2.5591,-2.5591,-2.5844,-2.6216,-2.6223,-2.6425,-2.6899,-2.7714,-2.7885,-2.7494,-2.7449,-2.7233,-2.6804,-2.5989,-2.5591,-2.5591,-2.5193,-2.4783,-2.4425,-2.4417,-2.4201,-2.3816,-2.3795,-2.3795,-2.3795,-2.3795,-2.3614,-2.3242,-2.2841,-2.1808,-2.0127,-1.9696,-1.93,-1.8958,-1.9695,-1.9749,-1.9003,-1.93,0.0,0.0,0.0,0.0,0.0,0.0,0.0,0.0,0.0,0.0,-1.5203,-1.5566,-1.5312,-1.4221,-1.4898,-1.5467,-1.5638,-1.6621,-1.6784,-1.5827,-1.69,-1.7624,-1.7652,-1.7647,-1.741,-1.6849,-1.6095,-1.5548,-1.5343,-1.4917,-1.4766,-1.5059,-1.5145,-1.5396,-1.6082,-1.7157,-1.814,-1.8755,-1.9865,-2.0684,-2.0976,-2.1167,-2.1207,-2.0952,-2.0302,-1.9592,-1.8907,-1.8679,-1.8839,-1.9408,-1.9277,-1.9277,-1.9552,-1.9512,-1.9382,-1.9305,-1.9226,-1.9016,-1.8456,-1.805,-1.76,-1.6814,-1.6353,-1.6077,-1.599,-1.5904,-1.574,-1.5469,-1.51,-1.4783,-2.9916,-2.9821,-2.9036,-2.8408,-2.7847,-2.6861,-2.6501,-2.6633,-2.6482,0.0,0.0,-2.688,-2.705,-2.7771,-2.8551,-2.854,-2.7979,-2.8457,-2.8351,-2.7676,-2.6652,-2.6178,-2.6141,-2.5382,-2.4791,-2.4425,-2.4417,-2.4192,-2.3816,-2.3795,-2.3795,-2.3795,-2.3795,-2.3795,-2.3759,-2.3216,-2.2126,-2.0633,-2.0299,-1.9759,-1.8994,-1.9723,-1.9831,-1.9245,-1.9813,-1.9911,-1.9435,-1.9219,-1.8904,-1.8445,-1.8366,-1.8079,-1.7465,-1.7297,-1.7203,-1.7195,-1.7346,-1.716,-1.654,-1.6728,-1.7085,-1.7514,-1.8595,-1.8662,-1.725,-1.8229,-1.8661,-1.8043,-1.8151,-1.7958,-1.7267,-1.6623,-1.6256,-1.6164,-1.5567,-1.5383,-1.5914,-1.6115,-1.6439,-1.7259,-1.8284,-1.9275,-2.0041,-2.1026,-2.1863,-2.2252,-2.2161,-2.1949,-2.1441,-2.0657,-1.9786,-1.9042,-1.8895,-1.904,-1.9422,-1.9382,-1.9303,-1.985,-1.9682,-1.9565,-1.9721,-1.9773,-1.9514,-1.896,-1.8682,-1.8104,-1.7318,-1.6768,-1.6495,-1.6467,-1.6249,-1.6058,-1.599,-1.5672,-1.5342,-2.9916,-2.984,-2.9044,-2.9044,-2.9442,-2.796,-2.7706,-2.8286,-2.7619,-2.7392,-2.7524,-2.8123,-2.8419,-2.857,-2.9366,-2.9688,-2.9518,-2.8968,-2.8627,-2.8438,-2.6929,-2.6178,-2.6141,-2.5382,-2.4791,-2.4434,-2.4417,-2.4201,-2.3837,-2.3795,-2.3795,-2.3795,-2.3795,-2.3795,-2.3795,-2.3697,-2.3224,-2.2317,-2.096,-1.9884,-1.9115,-1.9866,-2.0228,-2.0119,-2.0174,-2.049,-2.1013,-2.0344,-2.0199,-2.0757,-2.0588,-2.0515,-2.0612,-2.0135,-2.0046,-2.0181,-1.9301,-1.8967,-1.9467,-1.8843,-1.8426,-1.8506,-1.8651,-1.8772,-1.9012,-1.9197,-1.9262,-1.9134,-1.8405,-1.7745,-1.7216,-1.6365,-1.5684,-1.5381,-1.5601,-1.5914,-1.6072,-1.6544,-1.7305,-1.8393,-1.9175,-2.0104,-2.1119,-2.1941,-2.2412,-2.2526,-2.2523,-2.2324,-2.1779,-2.093,-2.0143,-1.9658,-1.9747,-1.9901,-1.9965,-1.9914,-1.9888,-1.9965,-1.9811,-1.9578,-1.9396,-1.95,-1.9434,-1.8919,-1.8667,-1.8224,-1.7673,-1.7312,-1.7078,-1.7022,-1.6835,-1.662,-1.6524,-1.62,-1.5894,-2.9916,-2.9802,-2.9025,-2.8903,-2.9196,-2.8464,-2.8343,-2.8703,-2.8787,-2.8806,-2.8787,-2.876,-2.8949,-2.9366,-2.9745,-2.9916,-2.9897,-2.9518,-2.9101,-2.8608,-2.7449,-2.6641,-2.616,-2.5382,-2.4783,-2.4434,-2.4417,-2.4201,-2.3837,-2.3795,-2.3795,-2.3795,-2.3795,-2.3795,-2.3795,-2.3795,-2.3433,-2.2699,-2.1975,-2.1224,-2.0445,-2.0771,-2.1142,-2.1576,-2.1169,-2.1286,-2.2064,-2.1294,-2.1031,-2.1392,-2.1295,-2.1207,-2.1195,-2.0951,-2.0782,-2.0721,-2.0096,-1.9843,-2.0191,-1.9643,-1.9115,-1.8739,-1.9043,-1.9172,-1.9031,-1.9292,-1.9274,-1.884,-1.8102,-1.7422,-1.6825,-1.602,-1.558,-1.5747,-1.5988,-1.6403,-1.7067,-1.7427,-1.8133,-1.932,-2.007,-2.0821,-2.1722,-2.2333,-2.2712,-2.2727,-2.2712,-2.2592,-2.2417,-2.2006,-2.1358,-2.057,-2.0395,-2.0471,-2.0608,-2.0522,-2.0446,-2.0446,-2.0321,-2.0169,-1.9991,-2.0118,-1.9914,-1.9486,-1.9186,-1.8789,-1.8111,-1.7673,-1.7507,-1.7462,-1.7228,-1.7004,-1.6909,-1.6627,-1.6257,-2.9916,-2.984,-2.9233,-2.8968,-2.8979,-2.8968,-2.8968,-2.9044,-2.9623,-2.9897,-2.9837,-2.9241,-2.9328,-2.9878,-2.9916,-2.9916,-2.9916,-2.9916,-2.9556,-2.8911,-2.796,-2.7134,-2.6425,-2.5442,-2.4753,-2.4415,-2.4355,-2.4145,-2.3837,-2.3795,-2.3795,-2.3795,-2.3795,-2.3795,-2.3795,-2.3795,-2.3524,-2.298,-2.2934,-2.2473,-2.155,-2.1676,-2.2065,-2.259,-2.2274,-2.2328,-2.2862,-2.2347,-2.1991,-2.1942,-2.1902,-2.1773,-2.1565,-2.1434,-2.1288,-2.1068,-2.0697,-2.0384,-2.0176,-1.9972,-1.9525,-1.8809,-1.9102,-1.9085,-1.8604,-1.8851,-1.8851,-1.8204,-1.7628,-1.7068,-1.6538,-1.6035,-1.5874,-1.6372,-1.6645,-1.7165,-1.8069,-1.8371,-1.8881,-1.9987,-2.0584,-2.1044,-2.172,-2.2286,-2.2639,-2.2775,-2.2818,-2.2849,-2.288,-2.2849,-2.2385,-2.1732,-2.1199,-2.1064,-2.1286,-2.1091,-2.0957,-2.0932,-2.0858,-2.0771,-2.0784,-2.0858,-2.0585,-1.9978,-1.9773,-1.9265,-1.8344,-1.7931,-1.7822,-1.7755,-1.7534,-1.7284,-1.705,-1.6825,-1.6524,-2.9916,-2.9897,-2.9794,-2.9802,-2.9764,-2.9764,-2.9764,-2.9764,-2.9869,-2.994,-2.9953,-2.9856,-2.9821,-2.9916,-2.9916,-2.9916,-2.9907,-2.9888,-2.9813,-2.9537,-2.818,-2.743,-2.71,-2.5548,-2.4599,-2.4389,-2.422,-2.4039,-2.3824,-2.3795,-2.3795,-2.3795,-2.3795,-2.3795,-2.3795,-2.3795,-2.3759,-2.3705,-2.3687,-2.298,-2.1658,-2.221,-2.2608,-2.2699,-2.3288,-2.3614,-2.365,-2.3625,-2.3494,-2.3323,-2.3047,-2.2923,-2.2833,-2.2444,-2.2279,-2.241,-2.1617,-2.0797,-2.0128,-1.9985,-1.9685,-1.8949,-1.8368,-1.8024,-1.785,-1.7883,-1.7865,-1.7679,-1.7173,-1.6844,-1.6596,-1.6543,-1.6544,-1.6702,-1.7541,-1.8352,-1.8541,-1.8968,-1.9567,-2.0278,-2.0445,-2.0527,-2.1272,-2.1814,-2.2352,-2.2867,-2.2925,-2.291,-2.2925,-2.2925,-2.288,-2.2661,-2.2417,-2.203,-2.1722,-2.1458,-2.141,-2.1361,-2.1153,-2.1091,-2.114,-2.1202,-2.1031,-2.0295,-1.9927,-1.9514,-1.8614,-1.8057,-1.8096,-1.8002,-1.7783,-1.7507,-1.7032,-1.6864,-1.6751,-2.9916,-2.9916,-2.9916,-2.9916,-2.9916,-2.9916,-2.9916,-2.9916,-2.9916,-2.9924,-2.994,-2.9905,-2.9932,-2.9929,-2.9924,-2.9916,-2.9878,-2.9423,-2.8938,-2.8408,-2.7259,-2.6482,-2.5956,-2.5167,-2.4602,-2.4389,-2.4192,-2.3991,-2.3827,-2.3795,-2.3795,-2.3795,-2.3795,-2.3795,-2.3795,-2.3795,-2.3795,-2.3795,-2.3795,-2.348,-2.298,-2.318,-2.3343,-2.3379,-2.365,-2.3795,-2.3795,-2.3795,-2.3718,-2.3526,-2.3383,-2.3182,-2.2876,-2.2659,-2.2497,-2.2457,-2.2092,-2.1515,-2.0771,-2.072,-2.0179,-1.9007,-1.8623,-1.8273,-1.7828,-1.8132,-1.839,-1.8308,-1.7901,-1.766,-1.7831,-1.7637,-1.7541,-1.7764,-1.8229,-1.8771,-1.9564,-1.9472,-1.9778,-2.0769,-2.095,-2.0955,-2.1272,-2.1794,-2.2439,-2.2973,-2.3135,-2.3098,-2.3037,-2.3,-2.297,-2.2902,-2.2743,-2.2575,-2.2329,-2.2198,-2.2091,-2.1983,-2.1912,-2.1827,-2.1708,-2.1756,-2.1565,-2.0733,-2.0597,-2.0093,-1.9001,-1.8735,-1.8667,-1.8344,-1.8057,-1.7838,-1.759,-1.7451,-1.7284,-2.9916,-2.9916,-2.9916,-2.9916,-2.9916,-2.9916,-2.9916,-2.9916,-2.9916,-2.9897,-2.9932,-2.9897,-2.994,-2.9999,-2.994,-2.9916,-2.9802,-2.9063,-2.84,-2.7733,-2.6709,-2.5894,-2.5324,-2.4813,-2.4534,-2.4399,-2.4136,-2.3949,-2.3806,-2.3795,-2.3795,-2.3795,-2.3795,-2.3795,-2.3795,-2.3795,-2.3795,-2.3795,-2.3795,-2.3795,-2.3777,-2.3795,-2.3795,-2.3795,-2.3795,-2.3795,-2.3795,-2.3795,-2.37,-2.3497,-2.3417,-2.3199,-2.2721,-2.2632,-2.2501,-2.2338,-2.2313,-2.1989,-2.1258,-2.1207,-2.053,-1.9113,-1.8894,-1.8674,-1.8318,-1.8589,-1.9092,-1.9495,-1.9188,-1.9029,-1.8741,-1.8516,-1.8425,-1.8604,-1.8844,-1.9479,-2.0042,-1.9856,-2.0138,-2.104,-2.107,-2.1305,-2.1574,-2.2031,-2.2531,-2.3128,-2.3275,-2.3253,-2.3127,-2.3082,-2.3037,-2.2925,-2.2849,-2.2818,-2.2795,-2.2629,-2.2569,-2.2486,-2.237,-2.2278,-2.2278,-2.2231,-2.1959,-2.1102,-2.1213,-2.0683,-1.941,-1.9081,-1.8922,-1.8371,-1.8084,-1.803,-1.7849,-1.7794,-1.7534,-2.9916,-2.9916,-2.9916,-2.9916,-2.9916,-2.9916,-2.9916,-2.9916,-2.9916,-2.9921,-2.9964,-2.9932,-2.994,-2.9999,-2.994,-2.9916,-2.9802,-2.9025,-2.857,-2.8343,-2.688,-2.616,-2.607,-2.5,-2.4407,-2.4364,-2.4011,-2.3827,-2.3795,-2.3795,-2.3795,-2.3795,-2.3795,-2.3795,-2.3795,-2.3795,-2.3795,-2.3795,-2.3795,-2.3795,-2.3795,-2.3795,-2.3795,-2.3795,-2.3795,-2.3795,-2.3795,-2.3795,-2.37,-2.3504,-2.3277,-2.2998,-2.2725,-2.2443,-2.2324,-2.2313,-2.2313,-2.1989,-2.1376,-2.1275,-2.0615,-1.9266,-1.9092,-1.891,-1.8882,-1.9012,-1.965,-2.0886,-2.0787,-2.0307,-1.9301,-1.9139,-1.8926,-1.8839,-1.9836,-2.0243,-1.9866,-2.0411,-2.0594,-2.0814,-2.0831,-2.1228,-2.2117,-2.2287,-2.2633,-2.3112,-2.3282,-2.3253,-2.3149,-2.3105,-2.306,-2.2947,-2.2902,-2.2894,-2.2818,-2.2758,-2.2623,-2.2555,-2.2523,-2.2394,-2.2347,-2.2217,-2.1789,-2.1503,-2.1431,-2.0856,-1.9708,-1.9028,-1.8762,-1.8398,-1.8139,-1.803,-1.7959,-1.7794,-1.7573,-2.9916,-2.9916,-2.9916,-2.9916,-2.9916,-2.9916,-2.9916,-2.9916,-2.9916,-2.9905,-2.9921,-2.9905,-2.9905,-2.994,-2.9924,-2.9916,-2.9764,-2.854,-2.7934,-2.7733,-2.6197,-2.5371,-2.5171,-2.4638,-2.4328,-2.4174,-2.3921,-2.3795,-2.3795,-2.3795,-2.3795,-2.3795,-2.3795,-2.3795,-2.3795,-2.3795,-2.3795,-2.3795,-2.3795,-2.3795,-2.3795,-2.3795,-2.3795,-2.3795,-2.3795,-2.3795,-2.3795,-2.3795,-2.37,-2.3515,-2.3253,-2.2968,-2.2712,-2.2446,-2.2313,-2.2313,-2.2313,-2.2192,-2.1955,-2.1904,-2.1481,-2.053,-2.0378,-2.0107,-1.9824,-2.0061,-2.0632,-2.1096,-2.1426,-2.1141,-2.0808,-2.0557,-2.0203,-1.9715,-2.0364,-2.1031,-2.1038,-2.1201,-2.1485,-2.1784,-2.1615,-2.1764,-2.2652,-2.2816,-2.2816,-2.3352,-2.3465,-2.3407,-2.329,-2.3246,-2.3142,-2.2955,-2.2888,-2.2888,-2.2894,-2.2834,-2.2789,-2.2698,-2.2644,-2.25,-2.2402,-2.2301,-2.1935,-2.1874,-2.1742,-2.1199,-2.0131,-1.8948,-1.8655,-1.8317,-1.8111,-1.8057,-1.7975,-1.7865,-1.77,-2.9916,-2.9916,-2.9916,-2.9916,-2.9916,-2.9916,-2.9916,-2.9916,-2.9916,-2.9916,-2.9916,-2.9916,-2.9916,-2.9916,-2.9916,-2.9916,-2.9726,-2.8264,-2.7494,-2.7342,-2.5761,-2.4901,-2.47,-2.4474,-2.4301,-2.4088,-2.3881,-2.3795,-2.3795,-2.3795,-2.3795,-2.3795,-2.3795,-2.3795,-2.3795,-2.3795,-2.3795,-2.3795,-2.3795,-2.3795,-2.3795,-2.3795,-2.3795,-2.3795,-2.3795,-2.3795,-2.3795,-2.3795,-2.3761,-2.3569,-2.3371,-2.3072,-2.2738,-2.2542,-2.2377,-2.2307,-2.2313,-2.2313,-2.2313,-2.2313,-2.1972,-2.1292,-2.119,-2.0936,-2.0483,-2.0873,-2.1258,-2.1542,-2.1754,-2.1884,-2.172,-2.163,-2.1245,-2.0536,-2.1149,-2.1648,-2.163,-2.1961,-2.2325,-2.2549,-2.2473,-2.2772,-2.334,-2.3176,-2.3221,-2.3565,-2.3595,-2.3523,-2.3407,-2.3319,-2.3231,-2.3,-2.291,-2.2888,-2.2902,-2.288,-2.2834,-2.2781,-2.2675,-2.2532,-2.2417,-2.2301,-2.2208,-2.2194,-2.1898,-2.1393,-2.0471,-1.9188,-1.856,-1.822,-1.8084,-1.8084,-1.803,-1.7975,-1.7755,-2.9916,-2.9916,-2.9916,-2.9916,-2.9916,-2.9916,-2.9916,-2.9916,-2.9916,-2.9916,-2.9916,-2.9916,-2.9916,-2.9916,-2.9916,-2.9916,-2.9631,-2.8321,-2.7646,-2.7449,-2.5856,-2.5007,-2.4797,-2.4512,-2.4275,-2.4078,-2.3899,-2.3795,-2.3795,-2.3795,-2.3795,-2.3795,-2.3795,-2.3795,-2.3795,-2.3795,-2.3795,-2.3795,-2.3795,-2.3795,-2.3795,-2.3795,-2.3795,-2.3795,-2.3795,-2.3795,-2.3795,-2.3795,-2.3785,-2.3764,-2.3587,-2.3247,-2.279,-2.2672,-2.2552,-2.2352,-2.2313,-2.2313,-2.2313,-2.2296,-2.1989,-2.1478,-2.1275,-2.1275,-2.1258,-2.1275,-2.1563,-2.2043,-2.22,-2.2168,-2.1999,-2.2122,-2.1864,-2.1263,-2.1959,-2.2289,-2.1789,-2.2463,-2.3131,-2.2911,-2.3101,-2.352,-2.3595,-2.352,-2.352,-2.3565,-2.3595,-2.3566,-2.3451,-2.3341,-2.3246,-2.3105,-2.297,-2.2888,-2.2888,-2.2888,-2.2834,-2.2803,-2.2661,-2.2555,-2.2417,-2.2301,-2.2231,-2.217,-2.1827,-2.131,-2.0547,-1.9357,-1.8732,-1.8394,-1.8275,-1.8139,-1.8057,-1.7975,-1.7767,-2.9916,-2.9916,-2.9916,-2.9916,-2.9916,-2.9916,-2.9916,-2.9916,-2.9916,-2.9916,-2.9916,-2.9916,-2.9916,-2.9916,-2.9916,-2.9916,-2.9802,-2.8806,-2.8332,-2.8048,-2.6596,-2.565,-2.5307,-2.4693,-2.4229,-2.3939,-2.3837,-2.3795,-2.3795,-2.3795,-2.3795,-2.3795,-2.3795,-2.3795,-2.3795,-2.3795,-2.3795,-2.3795,-2.3795,-2.3795,-2.3795,-2.3795,-2.3795,-2.3795,-2.3795,-2.3795,-2.3795,-2.3795,-2.3795,-2.3795,-2.3609,-2.3253,-2.2812,-2.2712,-2.2565,-2.2338,-2.2313,-2.2313,-2.2313,-2.2313,-2.2195,-2.1992,-2.1955,-2.1955,-2.1955,-2.1938,-2.204,-2.2279,-2.2313,-2.2391,-2.2817,-2.2967,-2.2462,-2.123,-2.1955,-2.2363,-2.1771,-2.2332,-2.2928,-2.3299,-2.349,-2.3595,-2.3595,-2.3595,-2.358,-2.355,-2.355,-2.3558,-2.3348,-2.3215,-2.3223,-2.3015,-2.2933,-2.2772,-2.2765,-2.2728,-2.2741,-2.276,-2.2675,-2.2555,-2.2417,-2.2301,-2.2217,-2.2077,-2.1708,-2.1188,-2.0396,-1.9721,-1.9093,-1.8583,-1.8383,-1.8247,-1.8139,-1.7947,-1.7739,-2.9916,-2.9916,-2.9916,-2.9916,-2.9916,-2.9916,-2.9916,-2.9916,-2.9916,-2.9916,-2.9916,-2.9916,-2.9916,-2.9916,-2.9916,-2.9916,-2.9859,-2.9366,-2.9131,-2.8874,-2.7441,-2.6385,-2.5711,-2.4735,-2.4136,-2.3868,-2.3795,-2.3795,-2.3795,-2.3795,-2.3795,-2.3795,-2.3795,-2.3795,-2.3795,-2.3795,-2.3795,-2.3795,-2.3795,-2.3795,-2.3795,-2.3795,-2.3795,-2.3795,-2.3795,-2.3795,-2.3795,-2.3795,-2.3795,-2.3764,-2.3591,-2.3324,-2.301,-2.2812,-2.2619,-2.2487,-2.2349,-2.2313,-2.2313,-2.2313,-2.2313,-2.2313,-2.2313,-2.2296,-2.2296,-2.2313,-2.2313,-2.2313,-2.2313,-2.2482,-2.2871,-2.3257,-2.2783,-2.1712,-2.2505,-2.2816,-2.2613,-2.2928,-2.3488,-2.3899,-2.3837,-2.3724,-2.3803,-2.3659,-2.3496,-2.334,-2.3378,-2.3149,-2.2891,-2.27,-2.2589,-2.241,-2.2098,-2.2149,-2.2497,-2.2555,-2.2619,-2.2659,-2.2675,-2.2532,-2.2417,-2.2287,-2.2194,-2.21,-2.1841,-2.1372,-2.066,-2.0105,-1.9526,-1.9081,-1.8545,-1.8383,-1.8247,-1.7975,-1.7739,-2.9916,-2.9916,-2.9916,-2.9916,-2.9916,-2.9916,-2.9916,-2.9916,-2.9916,-2.9916,-2.9916,-2.9916,-2.9916,-2.9916,-2.9916,-2.9916,-2.9897,-2.984,-2.9775,-2.9423,-2.8343,-2.7134,-2.5843,-2.4626,-2.3999,-2.3827,-2.3795,-2.3795,-2.3795,-2.3795,-2.3795,-2.3795,-2.3795,-2.3795,-2.3795,-2.3795,-2.3795,-2.3795,-2.3795,-2.3795,-2.3795,-2.3795,-2.3795,-2.3795,-2.3795,-2.3795,-2.3795,-2.3795,-2.3795,-2.3792,-2.3631,-2.3486,-2.3359,-2.299,-2.2721,-2.2619,-2.2436,-2.2341,-2.2313,-2.2313,-2.2313,-2.2313,-2.2313,-2.2313,-2.2313,-2.2313,-2.2313,-2.2313,-2.2313,-2.2381,-2.2682,-2.3038,-2.3028,-2.2709,-2.3194,-2.377,-2.4355,-2.4261,-2.4264,-2.4541,-2.4214,-2.38,-2.4158,-2.3842,-2.3407,-2.2984,-2.3025,-2.2702,-2.2269,-2.2139,-2.1779,-2.1619,-2.1595,-2.1792,-2.22,-2.2309,-2.2395,-2.2733,-2.2721,-2.2583,-2.2417,-2.2287,-2.2123,-2.2044,-2.1949,-2.1458,-2.0957,-2.0397,-1.9798,-1.9184,-1.8786,-1.8583,-1.8313,-1.8014,-1.7794,-2.9916,-2.9916,-2.9916,-2.9916,-2.9916,-2.9916,-2.9916,-2.9916,-2.9916,-2.9916,-2.9916,-2.9916,-2.9916,-2.9916,-2.9916,-2.9916,-2.9916,-2.9916,-2.9916,-2.984,-2.9537,-2.7869,-2.591,-2.4502,-2.3868,-2.3806,-2.3795,-2.3795,-2.3795,-2.3795,-2.3795,-2.3795,-2.3795,-2.3795,-2.3795,-2.3795,-2.3795,-2.3795,-2.3795,-2.3795,-2.3795,-2.3795,-2.3795,-2.3795,-2.3795,-2.3795,-2.3795,-2.3795,-2.3795,-2.3795,-2.3753,-2.3547,-2.3271,-2.3072,-2.2794,-2.2497,-2.2363,-2.2327,-2.2327,-2.231,-2.231,-2.2313,-2.231,-2.2313,-2.2313,-2.2313,-2.2313,-2.2313,-2.2313,-2.275,-2.3543,-2.3596,-2.3469,-2.362,-2.35,-2.3605,-2.4243,-2.4222,-2.4221,-2.4701,-2.4652,-2.44,-2.4123,-2.3893,-2.351,-2.2956,-2.2795,-2.2655,-2.2123,-2.1975,-2.1796,-2.1672,-2.1649,-2.1745,-2.1885,-2.1989,-2.2229,-2.2721,-2.2781,-2.2644,-2.2477,-2.2287,-2.2077,-2.1926,-2.1959,-2.1612,-2.1118,-2.0586,-1.9952,-1.9408,-1.8999,-1.8771,-1.8367,-1.8041,-1.7893,-2.9916,-2.9916,-2.9916,-2.9916,-2.9916,-2.9916,-2.9916,-2.9916,-2.9916,-2.9916,-2.9916,-2.9916,-2.9916,-2.9916,-2.9916,-2.9916,-2.9916,-2.9916,-2.9916,-2.9729,-2.9017,-2.7737,-2.62,-2.4996,-2.4216,-2.3806,-2.3795,-2.3795,-2.3795,-2.3795,-2.3795,-2.3795,-2.3795,-2.3795,-2.3795,-2.3795,-2.3795,-2.3795,-2.3795,-2.3795,-2.3795,-2.3795,-2.3795,-2.3795,-2.3795,-2.3795,-2.3795,-2.3795,-2.3795,-2.3774,-2.371,-2.358,-2.3411,-2.3067,-2.2833,-2.2602,-2.2538,-2.246,-2.2474,-2.2474,-2.2474,-2.2463,-2.2377,-2.231,-2.2313,-2.2313,-2.2313,-2.2313,-2.2313,-2.2888,-2.3714,-2.3885,-2.4115,-2.446,-2.4066,-2.3983,-2.4699,-2.4682,-2.4842,-2.5179,-2.5121,-2.489,-2.4493,-2.4366,-2.373,-2.3112,-2.2966,-2.2449,-2.1851,-2.1902,-2.186,-2.1679,-2.1398,-2.1338,-2.1381,-2.1447,-2.1885,-2.2418,-2.2766,-2.2629,-2.2477,-2.2287,-2.2147,-2.2006,-2.1983,-2.1793,-2.1288,-2.086,-2.0472,-1.9952,-1.9434,-1.8931,-1.8583,-1.8123,-1.7975,-2.9916,-2.9916,-2.9916,-2.9916,-2.9916,-2.9916,-2.9916,-2.9916,-2.9916,-2.9916,-2.9916,-2.9916,-2.9916,-2.9916,-2.9916,-2.9916,-2.9916,-2.9916,-2.9916,-2.9496,-2.8621,-2.7471,-2.6767,-2.5427,-2.4539,-2.3941,-2.3827,-2.3795,-2.3795,-2.3795,-2.3795,-2.3795,-2.3795,-2.3795,-2.3795,-2.3795,-2.3795,-2.3795,-2.3795,-2.3795,-2.3795,-2.3795,-2.3795,-2.3795,-2.3795,-2.3795,-2.3795,-2.3795,-2.3795,-2.3795,-2.3631,-2.3631,-2.3639,-2.3096,-2.2914,-2.2968,-2.285,-2.2721,-2.2685,-2.2659,-2.2663,-2.2582,-2.2476,-2.2412,-2.2516,-2.2665,-2.2784,-2.2818,-2.2564,-2.3071,-2.3598,-2.4145,-2.4641,-2.5063,-2.5163,-2.5261,-2.5274,-2.5437,-2.574,-2.6079,-2.5476,-2.531,-2.5252,-2.5067,-2.4423,-2.3467,-2.3311,-2.3003,-2.2532,-2.2452,-2.2087,-2.1518,-2.1182,-2.0806,-2.0837,-2.0906,-2.1464,-2.2022,-2.2486,-2.2569,-2.244,-2.2287,-2.2217,-2.2147,-2.2077,-2.1841,-2.1434,-2.108,-2.0833,-2.0258,-1.9552,-1.9184,-1.8851,-1.8329,-1.803,-2.9916,-2.9916,-2.9916,-2.9916,-2.9916,-2.9916,-2.9916,-2.9916,-2.9916,-2.9916,-2.9916,-2.9916,-2.9916,-2.9916,-2.9916,-2.9916,-2.9916,-2.9916,-2.9916,-2.9796,-2.9435,-2.8283,-2.7044,-2.5449,-2.4382,-2.4027,-2.3868,-2.3806,-2.3806,-2.3795,-2.3795,-2.3795,-2.3795,-2.3795,-2.3795,-2.3795,-2.3795,-2.3795,-2.3795,-2.3795,-2.3795,-2.3795,-2.3795,-2.3795,-2.3795,-2.3795,-2.3795,-2.3795,-2.3795,-2.3803,-2.3771,-2.3678,-2.3576,-2.3406,-2.3253,-2.3133,-2.3067,-2.2922,-2.2764,-2.2725,-2.2619,-2.2521,-2.2852,-2.3173,-2.3207,-2.3661,-2.3915,-2.4017,-2.4034,-2.3968,-2.4173,-2.474,-2.5079,-2.5313,-2.5661,-2.5923,-2.597,-2.5998,-2.6079,-2.6079,-2.6008,-2.5739,-2.5301,-2.5246,-2.4666,-2.3949,-2.3719,-2.3654,-2.3375,-2.3031,-2.262,-2.2073,-2.1874,-2.167,-2.1525,-2.1531,-2.1724,-2.2102,-2.2425,-2.2532,-2.2379,-2.2287,-2.2217,-2.2194,-2.217,-2.1888,-2.1554,-2.135,-2.1093,-2.0384,-1.9734,-1.9356,-1.8972,-1.8491,-1.8084,-2.9916,-2.9916,-2.9916,-2.9916,-2.9916,-2.9916,-2.9916,-2.9916,-2.9916,-2.9916,-2.9916,-2.9916,-2.9916,-2.9916,-2.9916,-2.9916,-2.9916,-2.9916,-2.9916,-2.9786,-2.9399,-2.8714,-2.7918,-2.6326,-2.5199,-2.4338,-2.3991,-2.3919,-2.3827,-2.3824,-2.3795,-2.3795,-2.3795,-2.3795,-2.3795,-2.3795,-2.3795,-2.3795,-2.3795,-2.3795,-2.3795,-2.3795,-2.3795,-2.3795,-2.3795,-2.3795,-2.3795,-2.3795,-2.3795,-2.3795,-2.3795,-2.3771,-2.3642,-2.3542,-2.3417,-2.3324,-2.3289,-2.3242,-2.3084,-2.2947,-2.2833,-2.2672,-2.3156,-2.3318,-2.3577,-2.4068,-2.444,-2.4508,-2.4474,-2.4492,-2.4496,-2.496,-2.523,-2.5363,-2.5843,-2.617,-2.6185,-2.6185,-2.6185,-2.6185,-2.6151,-2.5984,-2.5755,-2.5541,-2.5242,-2.4643,-2.4511,-2.4413,-2.3852,-2.3556,-2.3506,-2.3158,-2.2943,-2.272,-2.2499,-2.237,-2.2288,-2.2494,-2.2658,-2.2563,-2.2356,-2.2263,-2.2194,-2.2194,-2.217,-2.203,-2.1722,-2.1544,-2.1277,-2.0747,-2.0169,-1.9642,-1.9158,-1.8759,-1.8383,-3.0021,-2.9916,-2.9916,-2.9916,-2.9916,-2.9916,-2.9916,-2.9916,-2.9916,-2.9916,-2.9916,-2.9916,-2.9916,-2.9916,-2.9916,-2.9916,-2.9916,-2.9916,-2.9916,-2.9832,-2.9369,-2.8917,-2.8383,-2.757,-2.6445,-2.4709,-2.4495,-2.4362,-2.4227,-2.3922,-2.3888,-2.3847,-2.3806,-2.3806,-2.3795,-2.3795,-2.3795,-2.3795,-2.3795,-2.3795,-2.3795,-2.3795,-2.3795,-2.3795,-2.3795,-2.3795,-2.3795,-2.3795,-2.3795,-2.3795,-2.3795,-2.3795,-2.3753,-2.3657,-2.3542,-2.356,-2.3542,-2.344,-2.3301,-2.3182,-2.3047,-2.3015,-2.3433,-2.3589,-2.378,-2.444,-2.4863,-2.4728,-2.4644,-2.4532,-2.4571,-2.4962,-2.5297,-2.5479,-2.5924,-2.6154,-2.6185,-2.6185,-2.6185,-2.6185,-2.6185,-2.6086,-2.6086,-2.597,-2.5689,-2.5441,-2.5308,-2.5093,-2.4547,-2.4282,-2.4312,-2.4176,-2.3958,-2.3367,-2.3062,-2.2973,-2.2911,-2.2853,-2.2962,-2.2671,-2.2426,-2.2263,-2.2217,-2.2194,-2.2147,-2.2006,-2.1864,-2.1664,-2.1375,-2.0995,-2.0523,-1.9914,-1.946,-1.9078,-1.8652,-3.056,-2.9916,-2.9916,-2.9916,-2.9916,-2.9916,-2.9916,-2.9916,-2.9916,-2.9916,-2.9916,-2.9916,-2.9916,-2.9916,-2.9916,-2.9916,-2.9916,-2.9916,-2.9916,-2.9916,-2.9631,-2.9366,-2.882,-2.8569,-2.7748,-2.6759,-2.5984,-2.5523,-2.5134,-2.4551,-2.4243,-2.4066,-2.3899,-2.3816,-2.3899,-2.3813,-2.3852,-2.3933,-2.3871,-2.3827,-2.3795,-2.3795,-2.3795,-2.3795,-2.3795,-2.3795,-2.3795,-2.3795,-2.3795,-2.3795,-2.3795,-2.3795,-2.3785,-2.3771,-2.375,-2.3721,-2.3721,-2.3591,-2.3295,-2.314,-2.2859,-2.286,-2.3551,-2.4235,-2.4592,-2.5405,-2.5727,-2.534,-2.4853,-2.4604,-2.5195,-2.523,-2.553,-2.5894,-2.6091,-2.6185,-2.6185,-2.6185,-2.6185,-2.6185,-2.6185,-2.6185,-2.6185,-2.6185,-2.5987,-2.5821,-2.5772,-2.5721,-2.5455,-2.5354,-2.5447,-2.5227,-2.4958,-2.4216,-2.354,-2.3496,-2.3444,-2.329,-2.3218,-2.2892,-2.2618,-2.2356,-2.224,-2.2194,-2.217,-2.2077,-2.1912,-2.1783,-2.1496,-2.1155,-2.0648,-2.0169,-1.9682,-1.9237,-1.8759,-3.0692,-2.9934,-2.9916,-2.9916,-2.9916,-2.9916,-2.9916,-2.9916,-2.9916,-2.9916,-2.9916,-2.9916,-2.9916,-2.9916,-2.9916,-2.9916,-2.9916,-2.9916,-2.9916,-2.9916,-2.9878,-2.9756,-2.9301,-2.9309,-2.9061,-2.8439,-2.7704,-2.6846,-2.6274,-2.5412,-2.494,-2.4783,-2.4334,-2.4142,-2.4361,-2.417,-2.4208,-2.4275,-2.4125,-2.3899,-2.3806,-2.3795,-2.3795,-2.3795,-2.3795,-2.3795,-2.3795,-2.3795,-2.3795,-2.3795,-2.3795,-2.3795,-2.3795,-2.3795,-2.3795,-2.3795,-2.3795,-2.3667,-2.333,-2.3194,-2.3079,-2.3247,-2.4005,-2.4643,-2.5202,-2.5913,-2.6404,-2.5949,-2.4975,-2.4743,-2.5731,-2.5446,-2.5578,-2.6075,-2.6221,-2.6203,-2.6185,-2.6185,-2.6185,-2.6185,-2.6185,-2.6185,-2.6185,-2.6185,-2.6185,-2.6185,-2.6185,-2.6151,-2.6115,-2.6043,-2.5954,-2.5679,-2.5326,-2.5011,-2.4353,-2.4215,-2.4026,-2.3829,-2.35,-2.3171,-2.2777,-2.248,-2.2287,-2.2194,-2.2147,-2.2123,-2.203,-2.1888,-2.1592,-2.1277,-2.0909,-2.0472,-1.9914,-1.9382,-1.8907,-3.0844,-2.9916,-2.9916,-2.9916,-2.9916,-2.9916,-2.9916,-2.9916,-2.9916,-2.9916,-2.9916,-2.9916,-2.9916,-2.9916,-2.9916,-2.9916,-2.9916,-2.9916,-2.9916,-2.9916,-2.9916,-2.9888,-2.9888,-2.9916,-2.9775,-2.9512,-2.9117,-2.8271,-2.7059,-2.6318,-2.5881,-2.5382,-2.4691,-2.4799,-2.513,-2.4732,-2.4795,-2.4699,-2.4369,-2.3968,-2.3837,-2.3795,-2.3795,-2.3795,-2.3795,-2.3795,-2.3795,-2.3795,-2.3795,-2.3795,-2.3795,-2.3795,-2.3795,-2.3795,-2.3795,-2.3795,-2.3795,-2.3657,-2.3429,-2.323,-2.3227,-2.3508,-2.4137,-2.4826,-2.5423,-2.5914,-2.6269,-2.5933,-2.5313,-2.4779,-2.5629,-2.5644,-2.5709,-2.5989,-2.6203,-2.6185,-2.6185,-2.6185,-2.6185,-2.6185,-2.6185,-2.6185,-2.6185,-2.6185,-2.6185,-2.6185,-2.6185,-2.6115,-2.6079,-2.6007,-2.5899,-2.5752,-2.5559,-2.5538,-2.5252,-2.5027,-2.4756,-2.442,-2.3963,-2.3528,-2.3031,-2.2595,-2.2411,-2.224,-2.217,-2.2147,-2.2077,-2.1983,-2.165,-2.1399,-2.1155,-2.0736,-2.0067,-1.9565,-1.9131,-3.1336,-2.9916,-2.9916,-2.9916,-2.9916,-2.9916,-2.9916,-2.9916,-2.9916,-2.9916,-2.9916,-2.9916,-2.9916,-2.9916,-2.9916,-2.9916,-2.9916,-2.9916,-2.9916,-2.9916,-2.9916,-2.9916,-2.9916,-2.9916,-2.9916,-2.9897,-2.9764,-2.8847,-2.7768,-2.7171,-2.6333,-2.5552,-2.6068,-2.6358,-2.5931,-2.5374,-2.5303,-2.5169,-2.4387,-2.3837,-2.3806,-2.3795,-2.3795,-2.3795,-2.3795,-2.3795,-2.3795,-2.3795,-2.3795,-2.3795,-2.3795,-2.3795,-2.3795,-2.3795,-2.3795,-2.3795,-2.3753,-2.3613,-2.3277,-2.3133,-2.3289,-2.3671,-2.4164,-2.4829,-2.5507,-2.5612,-2.548,-2.4446,-2.468,-2.5129,-2.5526,-2.579,-2.602,-2.6119,-2.6185,-2.6185,-2.6185,-2.6185,-2.6185,-2.6185,-2.6185,-2.6185,-2.6185,-2.6185,-2.6185,-2.6185,-2.6169,-2.6097,-2.6008,-2.5917,-2.586,-2.5694,-2.5619,-2.5616,-2.554,-2.541,-2.522,-2.4895,-2.4292,-2.3745,-2.329,-2.2799,-2.2472,-2.231,-2.224,-2.2194,-2.2161,-2.1983,-2.1722,-2.1458,-2.1253,-2.0747,-2.0131,-1.9708,-1.9289,-3.1081,-2.9916,-2.9916,-2.9916,-2.9916,-2.9916,-2.9916,-2.9916,-2.9916,-2.9916,-2.9916,-2.9916,-2.9916,-2.9916,-2.9916,-2.9916,-2.9916,-2.9916,-2.9916,-2.9916,-2.9916,-2.9916,-2.9916,-2.9916,-2.9916,-2.9916,-2.9821,-2.9328,-2.8414,-2.805,-2.7522,-2.7056,-2.7017,-2.7202,-2.6811,-2.6052,-2.5901,-2.554,-2.4733,-2.386,-2.3795,-2.3813,-2.3813,-2.3831,-2.385,-2.3868,-2.3868,-2.3795,-2.3795,-2.3795,-2.3795,-2.3795,-2.3795,-2.3795,-2.3795,-2.3795,-2.3795,-2.3562,-2.3188,-2.3133,-2.3466,-2.3964,-2.4528,-2.5215,-2.5924,-2.5713,-2.5481,-2.5446,-2.5195,-2.5327,-2.5624,-2.5987,-2.6103,-2.6185,-2.6185,-2.6185,-2.6185,-2.6185,-2.6185,-2.6185,-2.6185,-2.6185,-2.6185,-2.6185,-2.6185,-2.6168,-2.6115,-2.6026,-2.5917,-2.5787,-2.5712,-2.5635,-2.5616,-2.5597,-2.554,-2.5429,-2.5333,-2.497,-2.4188,-2.3724,-2.3421,-2.3024,-2.2609,-2.231,-2.2217,-2.217,-2.2184,-2.2044,-2.1793,-2.1554,-2.1313,-2.0822,-2.0346,-1.9708,-1.9198,-3.0573,-2.9916,-2.9916,-2.9916,-2.9916,-2.9916,-2.9916,-2.9916,-2.9916,-2.9916,-2.9916,-2.9916,-2.9916,-2.9916,-2.9916,-2.9916,-2.9916,-2.9916,-2.9916,-2.9916,-2.9916,-2.9916,-2.9916,-2.9916,-2.9916,-2.9916,-2.9916,-2.9556,-2.9225,-2.8896,-2.8763,-2.8457,-2.8118,-2.789,-2.7662,-2.6866,-2.6145,-2.5485,-2.4447,-2.3979,-2.4114,-2.4157,-2.4284,-2.4375,-2.4404,-2.4404,-2.4404,-2.4465,-2.4483,-2.4157,-2.4176,-2.4139,-2.3893,-2.381,-2.3792,-2.3792,-2.3782,-2.3752,-2.359,-2.365,-2.3942,-2.4488,-2.5002,-2.5541,-2.5691,-2.5497,-2.533,-2.5728,-2.5709,-2.574,-2.602,-2.6185,-2.6185,-2.6185,-2.6185,-2.6185,-2.6185,-2.6185,-2.6185,-2.6185,-2.6185,-2.6185,-2.6185,-2.6185,-2.6168,-2.6133,-2.6061,-2.5954,-2.5826,-2.5694,-2.5654,-2.5597,-2.5597,-2.5597,-2.5559,-2.5467,-2.5371,-2.5048,-2.4271,-2.3724,-2.3465,-2.3001,-2.2503,-2.231,-2.2194,-2.21,-2.2044,-2.1983,-2.1888,-2.153,-2.1229,-2.1021,-2.0561,-1.9901,-1.9251,-2.9981,-2.9916,-2.9916,-2.9916,-2.9916,-2.9916,-2.9916,-2.9916,-2.9916,-2.9916,-2.9916,-2.9916,-2.9916,-2.9916,-2.9916,-2.9916,-2.9916,-2.9916,-2.9916,-2.9916,-2.9916,-2.9916,-2.9916,-2.9916,-2.9916,-2.9916,-2.9916,-2.9859,-2.9767,-2.9553,-2.882,-2.7888,-2.8774,-2.8512,-2.8024,-2.7349,-2.5996,-2.5217,-2.427,-2.4476,-2.4755,-2.499,-2.5208,-2.5751,-2.5932,-2.6023,-2.6005,-2.5823,-2.5504,-2.4925,-2.478,-2.4639,-2.4292,-2.3912,-2.384,-2.4136,-2.3959,-2.4096,-2.4278,-2.4175,-2.4557,-2.5166,-2.5632,-2.5655,-2.522,-2.5491,-2.5463,-2.5528,-2.574,-2.6005,-2.6136,-2.6185,-2.6185,-2.6185,-2.6185,-2.6185,-2.6185,-2.6185,-2.6185,-2.6185,-2.6185,-2.6185,-2.6185,-2.6185,-2.6133,-2.6097,-2.5972,-2.5864,-2.577,-2.564,-2.5635,-2.5597,-2.5597,-2.5597,-2.5597,-2.5521,-2.5429,-2.5068,-2.4456,-2.3943,-2.3558,-2.3031,-2.2379,-2.2287,-2.217,-2.2044,-2.1902,-2.1769,-2.1602,-2.1399,-2.1144,-2.0923,-2.0511,-1.9875,-1.9342,-2.9969,-2.9916,-2.9916,-2.9916,-2.9916,-2.9916,-2.9916,-2.9916,-2.9916,-2.9916,-2.9916,-2.9916,-2.9916,-2.9916,-2.9916,-2.9916,-2.9916,-2.9916,-2.9916,-2.9916,-2.9916,-2.9916,-2.9916,-2.9916,-2.9916,-2.9916,-2.9916,-2.9916,-2.9869,-2.9822,-2.9518,-2.9207,-2.9442,-2.932,-2.8733,-2.7755,-2.6407,-2.5346,-2.5038,-2.5479,-2.5588,-2.5751,-2.5896,-2.6131,-2.6186,-2.6186,-2.6149,-2.6168,-2.5963,-2.5687,-2.5308,-2.51,-2.4838,-2.428,-2.4298,-2.4773,-2.4577,-2.4681,-2.4939,-2.4533,-2.4078,-2.4809,-2.554,-2.5887,-2.5079,-2.5859,-2.6017,-2.6045,-2.597,-2.6169,-2.6185,-2.6185,-2.6185,-2.6185,-2.6185,-2.6185,-2.6185,-2.6185,-2.6185,-2.6185,-2.6185,-2.6185,-2.6185,-2.6185,-2.6115,-2.6026,-2.5901,-2.5756,-2.5696,-2.5637,-2.5616,-2.5597,-2.5597,-2.5597,-2.5597,-2.5524,-2.5451,-2.5033,-2.4583,-2.4069,-2.3515,-2.2799,-2.2254,-2.2194,-2.2147,-2.2067,-2.1878,-2.1578,-2.1361,-2.1204,-2.1008,-2.0761,-2.0296,-1.9849,-1.9382,-2.9977,-2.9916,-2.9916,-2.9916,-2.9916,-2.9916,-2.9916,-2.9916,-2.9916,-2.9916,-2.9916,-2.9916,-2.9916,-2.9916,-2.9916,-2.9916,-2.9916,-2.9916,-2.9916,-2.9916,-2.9916,-2.9916,-2.9916,-2.9916,-2.9916,-2.9916,-2.9916,-2.9916,-2.9907,-2.9751,-2.9595,-2.9494,-2.9504,-2.9354,-2.8745,-2.7964,-2.6728,-2.5951,-2.5846,-2.6403,-2.6464,-2.6554,-2.6819,-2.6934,-2.7061,-2.7079,-2.7085,-2.7091,-2.6844,-2.6465,-2.6087,-2.5841,-2.5446,-2.5081,-2.4913,-2.5243,-2.5416,-2.5225,-2.5368,-2.5081,-2.4281,-2.4941,-2.538,-2.568,-2.5735,-2.6027,-2.6,-2.6174,-2.6152,-2.6185,-2.6185,-2.6185,-2.6185,-2.6185,-2.6185,-2.6185,-2.6185,-2.6185,-2.6185,-2.6185,-2.6185,-2.6185,-2.6168,-2.6133,-2.6045,-2.5954,-2.5789,-2.5696,-2.5656,-2.5616,-2.5616,-2.5597,-2.5597,-2.5597,-2.5597,-2.5559,-2.5467,-2.5107,-2.4599,-2.3985,-2.3384,-2.2663,-2.2231,-2.2194,-2.2147,-2.2067,-2.1841,-2.1554,-2.1288,-2.1057,-2.086,-2.0686,-2.0498,-2.0042,-1.9512,-2.9897,-2.9916,-2.9916,-2.9916,-2.9916,-2.9916,-2.9916,-2.9916,-2.9916,-2.9916,-2.9916,-2.9916,-2.9916,-2.9916,-2.9916,-2.9916,-2.9916,-2.9916,-2.9916,-2.9916,-2.9916,-2.9916,-2.9916,-2.9916,-2.9916,-2.9916,-2.9916,-2.9916,-2.9907,-2.9822,-2.9725,-2.9523,-2.9299,-2.8889,-2.8054,-2.7111,-2.6554,-2.6457,-2.6338,-2.6831,-2.7236,-2.7387,-2.7713,-2.8002,-2.8117,-2.805,-2.8032,-2.7982,-2.7704,-2.7246,-2.6926,-2.6625,-2.6186,-2.535,-2.5315,-2.6013,-2.5355,-2.532,-2.5839,-2.5821,-2.5468,-2.513,-2.5306,-2.5294,-2.49,-2.5207,-2.59,-2.6173,-2.6185,-2.6185,-2.6185,-2.6185,-2.6185,-2.6185,-2.6185,-2.6185,-2.6185,-2.6185,-2.6185,-2.6185,-2.6185,-2.6185,-2.6133,-2.6097,-2.6008,-2.5881,-2.5712,-2.5619,-2.5616,-2.5597,-2.5597,-2.5597,-2.5597,-2.5597,-2.5597,-2.5597,-2.5467,-2.5107,-2.4578,-2.3879,-2.3275,-2.264,-2.2333,-2.2217,-2.2123,-2.2067,-2.1817,-2.1554,-2.1215,-2.0909,-2.081,-2.0661,-2.0511,-2.0195,-1.9565,-2.9916,-2.9916,-2.9916,-2.9916,-2.9916,-2.9916,-2.9916,-2.9916,-2.9916,-2.9916,-2.9916,-2.9916,-2.9916,-2.9916,-2.9916,-2.9916,-2.9916,-2.9916,-2.9916,-2.9916,-2.9916,-2.9916,-2.9897,-2.9878,-2.9878,-2.9888,-2.9888,-2.9907,-2.9907,-2.9805,-2.9598,-2.9367,-2.9023,-2.8388,-2.7951,-2.753,-2.7713,-2.7295,-2.7496,-2.7966,-2.8165,-2.8183,-2.8292,-2.86,-2.8562,-2.8536,-2.8536,-2.8471,-2.8221,-2.7836,-2.7551,-2.7194,-2.6964,-2.6272,-2.6093,-2.6861,-2.6675,-2.6621,-2.6774,-2.6481,-2.5266,-2.5033,-2.4985,-2.5152,-2.5165,-2.5863,-2.6202,-2.6192,-2.6187,-2.6185,-2.6185,-2.6185,-2.6185,-2.6185,-2.6185,-2.6185,-2.6185,-2.6185,-2.6185,-2.6185,-2.6185,-2.6185,-2.6168,-2.6097,-2.599,-2.5901,-2.5752,-2.5656,-2.5619,-2.5616,-2.5597,-2.5597,-2.5597,-2.5597,-2.5597,-2.5559,-2.5201,-2.4679,-2.4214,-2.3644,-2.3054,-2.2526,-2.2333,-2.2194,-2.2137,-2.2067,-2.1674,-2.1288,-2.1008,-2.0761,-2.0661,-2.0599,-2.0511,-2.008,-1.9434,-2.9916,-2.9916,-2.9916,-2.9916,-2.9916,-2.9916,-2.9916,-2.9916,-2.9916,-2.9916,-2.9916,-2.9916,-2.9916,-2.9916,-2.9916,-2.9916,-2.9916,-2.9916,-2.9916,-2.9916,-2.9916,-2.9707,-2.9612,-2.9707,-2.9623,-2.9661,-2.9794,-2.988,-2.9769,-2.9662,-2.9446,-2.9166,-2.8797,-2.8427,-2.813,-2.8226,-2.8286,-2.8009,-2.8238,-2.8437,-2.8527,-2.8545,-2.8551,-2.8562,-2.8518,-2.8479,-2.8458,-2.8406,-2.834,-2.8121,-2.7902,-2.7678,-2.7638,-2.7286,-2.696,-2.7589,-2.7567,-2.7264,-2.6969,-2.5928,-2.4944,-2.4893,-2.4971,-2.5146,-2.5491,-2.6034,-2.6216,-2.6258,-2.6203,-2.6185,-2.6185,-2.6185,-2.6185,-2.6185,-2.6185,-2.6185,-2.6185,-2.6185,-2.6185,-2.6185,-2.6185,-2.6185,-2.6151,-2.6079,-2.599,-2.5901,-2.5828,-2.5733,-2.5637,-2.5616,-2.5597,-2.5597,-2.5597,-2.5597,-2.5559,-2.5486,-2.5029,-2.4318,-2.3858,-2.3406,-2.2942,-2.2457,-2.231,-2.2147,-2.2044,-2.1831,-2.1385,-2.1057,-2.0885,-2.0686,-2.0485,-2.046,-2.046,-1.9978,-1.9356,-2.9916,-2.9916,-2.9916,-2.9916,-2.9916,-2.9916,-2.9916,-2.9916,-2.9916,-2.9916,-2.9916,-2.9916,-2.9916,-2.9916,-2.9916,-2.9916,-2.9916,-2.9916,-2.9802,-2.9756,-2.9642,-2.9271,-2.9082,-2.9196,-2.9158,-2.915,-2.9312,-2.9612,-2.9588,-2.9551,-2.9355,-2.9075,-2.8767,-2.8511,-2.8491,-2.8491,-2.8509,-2.8473,-2.8491,-2.86,-2.86,-2.8587,-2.8562,-2.8523,-2.8479,-2.8445,-2.8393,-2.8327,-2.8318,-2.8224,-2.8179,-2.8156,-2.7946,-2.746,-2.7692,-2.7732,-2.7424,-2.7187,-2.6715,-2.5538,-2.5207,-2.5337,-2.488,-2.5021,-2.5446,-2.6031,-2.6176,-2.6239,-2.6185,-2.6185,-2.6185,-2.6185,-2.6185,-2.6185,-2.6185,-2.6185,-2.6185,-2.6185,-2.6185,-2.6185,-2.6185,-2.6169,-2.6133,-2.6063,-2.5972,-2.5899,-2.5828,-2.5738,-2.5661,-2.5619,-2.5616,-2.5597,-2.5597,-2.5578,-2.5505,-2.5355,-2.4819,-2.4095,-2.3709,-2.3275,-2.2822,-2.2426,-2.2287,-2.2123,-2.1926,-2.164,-2.1229,-2.1008,-2.0885,-2.0661,-2.041,-2.0245,-2.0245,-1.9888,-1.9317,-2.9916,-2.9916,-2.9916,-2.9916,-2.9916,-2.9916,-2.9916,-2.9916,-2.9916,-2.9916,-2.9916,-2.9916,-2.9916,-2.9916,-2.9916,-2.9878,-2.9878,-2.9821,-2.9461,-2.9271,-2.9044,-2.8502,-2.8218,-2.818,-2.837,-2.8684,-2.8979,-2.9363,-2.9639,-2.9589,-2.9375,-2.9188,-2.8791,-2.865,-2.86,-2.86,-2.86,-2.86,-2.86,-2.86,-2.8574,-2.8562,-2.8523,-2.8497,-2.8419,-2.8367,-2.8327,-2.8277,-2.8237,-2.8223,-2.8209,-2.8196,-2.8142,-2.7964,-2.8088,-2.8124,-2.7936,-2.7698,-2.7238,-2.6237,-2.5721,-2.5862,-2.5363,-2.5413,-2.5794,-2.6074,-2.6185,-2.6185,-2.6185,-2.6185,-2.6185,-2.6185,-2.6185,-2.6185,-2.6185,-2.6185,-2.6185,-2.6185,-2.6185,-2.6168,-2.6168,-2.6115,-2.6063,-2.6008,-2.5919,-2.5881,-2.5809,-2.5719,-2.5663,-2.5621,-2.5616,-2.5597,-2.5597,-2.5578,-2.5317,-2.5111,-2.4522,-2.3948,-2.3537,-2.3076,-2.2595,-2.2263,-2.2217,-2.203,-2.1769,-2.1471,-2.112,-2.0947,-2.0785,-2.0611,-2.0385,-2.0156,-1.9914,-1.9604,-1.9186,-2.9916,-2.9916,-2.9916,-2.9916,-2.9916,-2.9916,-2.9916,-2.9916,-2.9916,-2.9916,-2.9916,-2.9916,-2.9916,-2.9821,-2.9575,-2.9385,-2.9339,-2.8911,-2.8578,-2.8351,-2.8237,-2.7657,-2.7285,-2.7342,-2.779,-2.818,-2.8649,-2.9128,-2.9536,-2.9407,-2.9155,-2.913,-2.8767,-2.8644,-2.86,-2.86,-2.86,-2.86,-2.86,-2.8587,-2.8562,-2.8523,-2.8479,-2.8414,-2.8327,-2.83,-2.8264,-2.8209,-2.8196,-2.8196,-2.8196,-2.8196,-2.8196,-2.8196,-2.8067,-2.8039,-2.7933,-2.7599,-2.7113,-2.6358,-2.6229,-2.6152,-2.5696,-2.5643,-2.5855,-2.617,-2.6185,-2.6185,-2.6185,-2.6185,-2.6185,-2.6185,-2.6185,-2.6185,-2.6185,-2.6185,-2.6185,-2.6185,-2.6168,-2.6133,-2.6097,-2.6061,-2.6008,-2.5937,-2.5883,-2.5791,-2.5717,-2.5677,-2.564,-2.5619,-2.5616,-2.5597,-2.5597,-2.5559,-2.5243,-2.4859,-2.4302,-2.3779,-2.3297,-2.2844,-2.2356,-2.2147,-2.21,-2.1888,-2.1602,-2.1302,-2.0997,-2.0848,-2.0699,-2.0511,-2.0258,-1.9888,-1.9604,-1.9277,-1.8866,-2.9916,-2.9916,-2.9916,-2.9916,-2.9916,-2.9916,-2.9916,-2.9916,-2.9916,-2.9916,-2.9916,-2.9916,-2.9916,-2.9783,-2.9252,-2.8874,-2.8665,-2.8237,-2.7752,-2.7418,-2.7392,-2.6918,-2.6577,-2.6918,-2.7335,-2.7733,-2.8297,-2.9044,-2.9392,-2.9375,-2.9188,-2.9037,-2.881,-2.87,-2.8682,-2.8625,-2.86,-2.86,-2.8587,-2.8587,-2.8536,-2.8479,-2.8427,-2.8322,-2.8286,-2.8259,-2.8223,-2.8196,-2.8196,-2.8196,-2.8196,-2.8196,-2.8196,-2.8182,-2.8025,-2.7864,-2.7806,-2.7413,-2.6965,-2.6297,-2.6118,-2.5947,-2.559,-2.5705,-2.6003,-2.6169,-2.6185,-2.6185,-2.6185,-2.6185,-2.6185,-2.6185,-2.6185,-2.6185,-2.6185,-2.6151,-2.6115,-2.6097,-2.6061,-2.6043,-2.6025,-2.5989,-2.5883,-2.5828,-2.5772,-2.5717,-2.5661,-2.5619,-2.56,-2.5616,-2.5616,-2.5597,-2.5521,-2.541,-2.5033,-2.4623,-2.4137,-2.3629,-2.3076,-2.2686,-2.2287,-2.2114,-2.202,-2.1807,-2.1554,-2.1229,-2.0947,-2.0799,-2.0674,-2.0549,-2.022,-1.9629,-1.9263,-1.8999,-1.8637,-2.9916,-2.9916,-2.9916,-2.9916,-2.9916,-2.9916,-2.9916,-2.9916,-2.9916,-2.9897,-2.9897,-2.9878,-2.9859,-2.9669,-2.8855,-2.8476,-2.8324,-2.7524,-2.7107,-2.6698,-2.6527,-2.6178,-2.561,-2.6178,-2.6842,-2.76,-2.8324,-2.9144,-2.9564,-2.9561,-2.9407,-2.9385,-2.9056,-2.8815,-2.8803,-2.8694,-2.86,-2.86,-2.86,-2.8574,-2.8523,-2.8445,-2.8367,-2.83,-2.8259,-2.8237,-2.8196,-2.8196,-2.8196,-2.8196,-2.8196,-2.8196,-2.8196,-2.8196,-2.8025,-2.7792,-2.7686,-2.7274,-2.6855,-2.6421,-2.6302,-2.6161,-2.6003,-2.6053,-2.6136,-2.6169,-2.6185,-2.6185,-2.6185,-2.6185,-2.6185,-2.6185,-2.6185,-2.6185,-2.6169,-2.6115,-2.6045,-2.6025,-2.597,-2.5952,-2.5934,-2.5862,-2.5772,-2.5735,-2.568,-2.5659,-2.5637,-2.5597,-2.5616,-2.5597,-2.5597,-2.5559,-2.5391,-2.522,-2.4839,-2.4323,-2.38,-2.3282,-2.2731,-2.2426,-2.2231,-2.2161,-2.2067,-2.1807,-2.1544,-2.1229,-2.0972,-2.0799,-2.0687,-2.0574,-2.0118,-1.9525,-1.9119,-1.8827,-1.8464,-2.9916,-2.9916,-2.9916,-2.9916,-2.9916,-2.9916,-2.9916,-2.9916,-2.9916,-2.9688,-2.9404,-2.9358,-2.9358,-2.9101,-2.8154,-2.768,-2.7517,-2.6709,-2.6122,-2.5743,-2.5686,-2.5439,-2.5382,-2.5572,-2.6508,-2.7392,-2.8673,-2.9539,-2.9809,-2.9598,-2.9425,-2.9387,-2.9068,-2.8839,-2.8815,-2.8675,-2.86,-2.86,-2.86,-2.8562,-2.851,-2.8432,-2.8384,-2.83,-2.825,-2.8209,-2.8196,-2.8196,-2.8196,-2.8196,-2.8196,-2.8196,-2.8196,-2.8196,-2.8025,-2.7745,-2.7504,-2.726,-2.6841,-2.6555,-2.6434,-2.624,-2.6185,-2.6152,-2.6152,-2.6185,-2.6185,-2.6185,-2.6185,-2.6185,-2.6185,-2.6185,-2.6185,-2.6185,-2.6115,-2.6061,-2.599,-2.5952,-2.5881,-2.5826,-2.5807,-2.577,-2.568,-2.5675,-2.5637,-2.5637,-2.5597,-2.5597,-2.5597,-2.5597,-2.5597,-2.5448,-2.524,-2.5033,-2.4764,-2.4116,-2.3399,-2.2867,-2.2434,-2.231,-2.2208,-2.2184,-2.2114,-2.1878,-2.1616,-2.1302,-2.1071,-2.0848,-2.0724,-2.0649,-2.008,-1.942,-1.904,-1.864,-1.8247,-2.9916,-2.9916,-2.9916,-2.9916,-2.9916,-2.9916,-2.9916,-2.9916,-2.9897,-2.9453,-2.8779,-2.8627,-2.8551,-2.7991,-2.7024,-2.6501,-2.6065,-2.5761,-2.525,-2.5117,-2.5098,-2.5079,-2.5136,-2.5307,-2.6482,-2.7657,-2.8892,-2.9466,-2.9822,-2.958,-2.9385,-2.923,-2.8962,-2.8662,-2.8637,-2.86,-2.86,-2.86,-2.8587,-2.8562,-2.851,-2.8432,-2.8367,-2.8318,-2.825,-2.8196,-2.8196,-2.8196,-2.8196,-2.8196,-2.8196,-2.8196,-2.8196,-2.8182,-2.7996,-2.773,-2.7415,-2.7101,-2.6725,-2.6417,-2.6293,-2.6185,-2.6185,-2.6185,-2.6185,-2.6185,-2.6185,-2.6185,-2.6185,-2.6185,-2.6185,-2.6151,-2.6151,-2.6115,-2.6026,-2.5954,-2.5917,-2.5879,-2.5789,-2.5698,-2.5696,-2.5659,-2.5637,-2.5616,-2.5597,-2.5597,-2.5597,-2.5597,-2.5597,-2.5578,-2.5578,-2.5243,-2.4879,-2.4724,-2.4511,-2.3828,-2.3001,-2.2746,-2.2356,-2.2263,-2.2194,-2.217,-2.2114,-2.1949,-2.1664,-2.135,-2.112,-2.0898,-2.0799,-2.0636,-2.0003,-1.9368,-1.8972,-1.8545,-1.8002,-2.9916,-2.9916,-2.9916,-2.9916,-2.9916,-2.9916,-2.9916,-2.9916,-2.9897,-2.9461,-2.8646,-2.7972,-2.7714,-2.7684,-2.6709,-2.6141,-2.5875,-2.5288,-2.506,-2.5003,-2.4984,-2.4984,-2.5231,-2.5743,-2.6986,-2.8029,-2.8858,-2.919,-2.9622,-2.9589,-2.9445,-2.9251,-2.9064,-2.8887,-2.8851,-2.8755,-2.86,-2.86,-2.8587,-2.8562,-2.851,-2.8432,-2.8367,-2.83,-2.8219,-2.8209,-2.8196,-2.8196,-2.8196,-2.8196,-2.8196,-2.8196,-2.8196,-2.8182,-2.8025,-2.7777,-2.743,-2.7101,-2.6775,-2.6416,-2.6257,-2.6185,-2.6185,-2.6185,-2.6185,-2.6168,-2.6168,-2.615,-2.6168,-2.6168,-2.615,-2.6063,-2.6045,-2.599,-2.5901,-2.5828,-2.5772,-2.5731,-2.5656,-2.5637,-2.5637,-2.5635,-2.5635,-2.5597,-2.5597,-2.5597,-2.5597,-2.5597,-2.5597,-2.5562,-2.5524,-2.5052,-2.4603,-2.4277,-2.4006,-2.3376,-2.2686,-2.2472,-2.231,-2.224,-2.2194,-2.2194,-2.21,-2.202,-2.1722,-2.1385,-2.1155,-2.0947,-2.0636,-2.0397,-1.9849,-1.9289,-1.8919,-1.8383,-1.781]},{"header":{"parameterUnit":"m.s-1","parameterCategory":1,"la1":31.0,"la2":29.5877,"lo1":-88.7671,"lo2":-86.6584,"dy":0.0162,"dx":0.0185,"nx":115,"ny":88,"refTime":"2024-06-01T06:00:00:Z","depth":0,"parameterNumber":3,"parameterNumberName":"V-component_of_WINDS"},"data":[0.0,0.0,0.0,0.0,0.0,0.0,0.0,0.0,0.0,0.0,0.0,0.0,0.0,0.0,0.0,0.0,0.0,0.0,0.0,0.0,0.0,0.0,0.0,0.0,0.0,0.0,0.0,0.0,0.0,0.0,0.0,0.0,0.0,0.0,0.0,0.0,0.0,0.0,0.0,0.0,0.0,0.0,0.0,0.0,0.0,0.0,0.0,0.0,0.0,0.0,0.0,0.0,0.0,0.0,0.0,0.0,0.0,0.0,0.0,0.0,0.0,0.0,0.0,0.0,0.0,0.0,0.0,0.0,0.0,0.0,0.0,0.0,0.0,0.0,0.0,0.0,0.0,0.0,0.0,0.0,0.0,0.0,0.0,0.0,0.0,0.0,0.0,0.0,0.0,0.0,0.0,0.0,0.0,0.0,0.0,0.0,0.0,0.0,0.0,0.0,0.0,0.0,0.0,0.0,0.0,0.0,0.0,0.0,0.0,0.0,0.0,0.0,0.0,0.0,0.0,0.0,0.0,0.0,0.0,0.0,0.0,0.0,0.0,0.0,0.0,0.0,0.0,0.0,0.0,0.0,0.0,0.0,0.0,0.0,0.0,0.0,0.0,0.0,0.0,0.0,0.0,0.0,0.0,0.0,0.0,0.0,0.0,0.0,0.0,0.0,0.0,0.0,0.0,0.0,0.0,0.0,0.0,0.0,0.0,0.0,0.0,0.0,0.0,0.0,0.0,0.0,0.0,0.0,0.0,0.0,0.0,0.0,0.0,0.0,0.0,0.0,0.0,0.0,0.0,0.0,0.0,0.0,0.0,0.0,0.0,0.0,0.0,0.0,0.0,0.0,0.0,0.0,0.0,0.0,0.0,0.0,0.0,0.0,0.0,0.0,0.0,0.0,0.0,0.0,0.0,0.0,0.0,0.0,0.0,0.0,0.0,0.0,0.0,0.0,0.0,0.0,0.0,0.0,0.0,0.0,0.0,0.0,0.0,0.0,0.0,0.0,0.0,0.0,0.0,0.0,0.0,0.0,0.0,0.0,0.0,0.0,0.0,0.0,0.0,0.0,0.0,0.0,0.0,0.0,0.0,0.0,0.0,0.0,0.0,0.0,0.0,0.0,0.0,0.0,0.0,0.0,0.0,0.0,0.0,0.0,0.0,0.0,0.0,0.0,0.0,0.0,0.0,0.0,0.0,0.0,0.0,0.0,0.0,0.0,0.0,0.0,0.0,0.0,0.0,0.0,0.0,0.0,0.0,0.0,0.0,0.0,0.0,0.0,0.0,0.0,0.0,0.0,0.0,0.0,0.0,0.0,0.0,0.0,0.0,0.0,0.0,0.0,0.0,0.0,0.0,0.0,0.0,0.0,0.0,0.0,0.0,0.0,0.0,0.0,0.0,0.0,0.0,0.0,0.0,0.0,0.0,0.0,0.0,0.0,0.0,0.0,0.0,0.0,0.0,0.0,0.0,0.0,0.0,0.0,0.0,0.0,0.0,0.0,0.0,0.0,0.0,0.0,0.0,0.0,0.0,0.0,0.0,0.0,0.0,0.0,0.0,0.0,0.0,0.0,0.0,0.0,0.0,0.0,0.0,0.0,0.0,0.0,0.0,0.0,0.0,0.0,0.0,0.0,0.0,0.0,0.0,0.0,0.0,0.0,0.0,0.0,0.0,0.0,0.0,0.0,0.0,0.0,0.0,0.0,0.0,0.0,0.0,0.0,0.0,0.0,0.0,0.0,0.0,0.0,0.0,0.0,0.0,0.0,0.0,0.0,0.0,0.0,0.0,0.0,0.0,0.0,0.0,0.0,0.0,0.0,0.0,0.0,0.0,0.0,0.0,0.0,0.0,0.0,0.0,0.0,0.0,0.0,0.0,0.0,0.0,0.0,0.0,0.0,0.0,0.0,0.0,0.0,0.0,0.0,0.0,0.0,0.0,0.0,0.0,0.0,0.0,0.0,0.0,0.0,0.0,0.0,0.0,0.0,0.0,0.0,0.0,0.0,0.0,0.0,0.0,0.0,0.0,0.0,0.0,0.0,0.0,0.0,0.0,0.0,0.0,0.0,0.0,0.0,0.0,0.0,0.0,0.0,0.0,0.0,0.0,0.0,0.0,0.0,0.0,0.0,0.0,0.0,0.0,0.0,0.0,0.0,0.0,0.0,0.0,0.0,0.0,0.0,0.0,0.0,0.0,0.0,0.0,0.0,0.0,0.0,0.0,0.0,0.0,0.0,0.0,0.0,0.0,0.0,0.0,0.0,0.0,0.0,0.0,0.0,0.0,0.0,0.0,0.0,0.0,0.0,0.0,0.0,0.0,0.0,0.0,0.0,0.0,0.0,0.0,0.0,0.0,0.0,0.0,0.0,0.0,0.0,0.0,0.0,0.0,0.0,0.0,0.0,0.0,0.0,0.0,0.0,0.0,0.0,0.0,0.0,0.0,0.0,0.0,0.0,0.0,0.0,0.0,0.0,0.0,0.0,0.0,0.0,0.0,0.0,0.0,0.0,0.0,0.0,0.0,0.0,0.0,0.0,0.0,0.0,0.0,0.0,0.0,0.0,0.0,0.0,0.0,0.0,0.0,0.0,0.0,0.0,0.0,0.0,0.0,0.0,0.0,0.0,0.0,0.0,0.0,0.0,0.0,0.0,0.0,0.0,0.0,0.0,0.0,0.0,0.0,0.0,0.0,0.0,0.0,0.0,0.0,0.0,0.0,0.0,0.0,0.0,0.0,0.0,0.0,0.0,0.0,0.0,0.0,0.0,0.0,0.0,0.0,0.0,0.0,0.0,0.0,0.0,0.0,0.0,0.0,0.0,0.0,0.0,0.0,0.0,0.0,0.0,0.0,0.0,0.0,0.0,0.0,0.0,0.0,0.0,0.0,0.0,0.0,0.0,0.0,0.0,0.0,0.0,0.0,0.0,0.0,0.0,0.0,0.0,0.0,0.0,0.0,0.0,0.0,0.0,0.0,0.0,0.0,0.0,0.0,0.0,0.0,0.0,0.0,0.0,0.0,0.0,0.0,0.0,0.0,0.0,0.0,0.0,0.0,0.0,0.0,0.0,0.0,0.0,0.0,0.0,0.0,0.0,0.0,0.0,0.0,0.0,0.0,0.0,0.0,0.0,0.0,0.0,0.0,0.0,0.0,0.0,0.0,0.0,0.0,0.0,0.0,0.0,0.0,0.0,0.0,0.0,0.0,0.0,0.0,0.0,0.0,0.0,0.0,0.0,0.0,0.0,0.0,0.0,0.0,0.0,0.0,0.0,0.0,0.0,0.0,0.0,0.0,0.0,0.0,0.0,0.0,0.0,0.0,0.0,0.0,0.0,0.0,0.0,0.0,0.0,0.0,0.0,0.0,0.0,0.0,0.0,0.0,0.0,0.0,0.0,0.0,0.0,0.0,0.0,0.0,0.0,0.0,0.0,0.0,0.0,0.0,0.0,0.0,0.0,0.0,0.0,0.0,0.0,0.0,0.0,0.0,0.0,0.0,0.0,0.0,0.0,0.0,0.0,0.0,0.0,0.0,0.0,0.0,0.0,0.0,0.0,0.0,0.0,0.0,0.0,0.0,0.0,0.0,0.0,0.0,0.0,0.0,0.0,0.0,0.0,0.0,0.0,0.0,0.0,0.0,0.0,0.0,0.0,0.0,0.0,0.0,0.0,0.0,0.0,0.0,0.0,0.0,0.0,0.0,0.0,0.0,0.0,0.0,0.0,0.0,0.0,0.0,0.0,0.0,0.0,0.0,0.0,0.0,0.0,0.0,0.0,0.0,0.0,0.0,0.0,0.0,0.0,0.0,0.0,0.0,0.0,0.0,0.0,0.0,0.0,0.0,0.0,0.0,0.0,0.0,0.0,0.0,0.0,0.0,0.0,0.0,0.0,0.0,0.0,0.0,0.0,0.0,0.0,0.0,0.0,0.0,0.0,0.0,0.0,0.0,0.0,0.0,0.0,0.0,0.0,0.0,0.0,0.0,0.0,0.0,0.0,0.0,0.0,0.0,0.0,0.0,0.0,0.0,0.0,0.0,0.0,0.0,0.0,0.0,0.0,0.0,0.0,0.0,0.0,0.0,0.0,0.0,0.0,0.0,0.0,0.0,0.0,0.0,0.0,0.0,0.0,0.0,0.0,0.0,0.0,0.0,0.0,0.0,0.0,0.0,0.0,0.0,0.0,0.0,0.0,0.0,0.0,0.0,0.0,0.0,0.0,0.0,0.0,0.0,0.0,0.0,0.0,0.0,0.0,0.0,0.0,0.0,0.0,0.0,0.0,0.8461,0.0,0.0,0.0,0.0,0.0,0.0,0.0,0.0,0.0,0.0,0.0,0.0,0.0,0.0,0.0,0.0,0.0,0.0,0.0,0.0,0.0,0.0,0.0,0.0,0.0,0.0,0.0,0.0,0.0,0.0,0.0,0.0,0.0,0.0,0.0,0.0,0.0,0.0,0.0,0.0,0.0,0.0,0.0,0.0,0.0,0.0,0.0,0.0,0.0,0.0,0.0,0.0,0.0,0.0,0.0,0.0,0.0,0.0,0.0,0.0,0.0,0.0,0.0,0.0,0.0,0.0,0.0,0.0,0.0,0.0,0.0,0.0,0.0,0.0,0.0,0.0,0.0,0.0,0.0,0.0,0.0,0.0,0.0,0.0,0.0,0.0,0.0,0.0,0.0,0.0,0.0,0.0,0.0,0.0,0.0,0.0,0.0,0.0,0.0,0.0,0.0,0.0,0.0,0.0,0.0,0.0,0.0,0.0,0.0,0.0,0.6633,0.6908,0.7414,0.7992,0.8592,0.0,0.0,0.0,0.0,0.0,0.0,0.0,0.0,0.0,0.0,0.0,0.0,0.0,0.0,0.0,0.0,0.0,0.0,0.0,0.0,0.0,0.0,0.0,0.0,0.0,0.0,0.0,0.0,0.0,0.0,0.0,0.0,0.0,0.0,0.0,0.0,0.0,0.0,0.0,0.0,0.0,0.0,0.0,0.0,0.0,0.0,0.0,0.0,0.0,0.0,0.0,0.0,0.0,0.0,0.0,0.0,0.0,0.0,0.0,0.0,0.0,0.0,0.0,0.0,0.0,0.0,0.0,0.0,0.0,0.0,0.0,0.0,0.0,0.0,0.0,0.0,0.0,0.0,0.0,0.0,0.0,0.0,0.0,0.0,0.0,0.0,0.0,0.0,0.0,0.0,0.0,0.0,0.0,0.0,0.0,0.0,0.0,0.0,0.0,0.0,0.0,0.0,0.0,0.0,0.0,0.0,0.0,0.0,0.0,0.0,0.0,0.0,0.747,0.8057,0.8798,0.0,0.0,0.0,0.0,0.0,0.0,0.0,0.0,0.0,0.0,0.0,0.0,0.0,0.0,0.0,0.0,0.0,0.0,0.0,0.0,0.0,0.0,0.0,0.0,0.0,0.0,0.0,0.0,0.0,0.0,0.0,0.0,0.0,0.0,0.0,0.0,0.0,0.0,0.0,0.0,0.0,0.0,0.0,0.0,0.0,0.0,0.0,0.0,0.0,0.0,0.0,0.0,0.0,0.0,0.0,0.0,0.0,0.0,0.0,0.0,0.0,0.0,0.0,0.0,0.0,0.0,0.0,0.0,0.0,0.0,0.0,0.0,0.0,0.0,0.0,0.0,0.0,0.0,0.0,0.0,0.0,0.0,0.0,0.0,0.0,0.0,0.0,0.0,0.0,0.0,0.0,0.0,0.0,0.0,0.0,0.0,0.0,0.0,0.0,0.0,0.0,0.0,0.0,0.0,0.0,0.0,0.0,0.0,0.0,0.0,0.6864,0.7591,0.767,0.0,0.9354,0.0,0.0,0.0,0.0,0.0,0.0,0.0,0.0,0.0,0.0,0.0,0.0,0.0,0.0,0.0,0.0,0.0,0.0,0.0,0.0,0.0,0.0,0.0,0.0,0.0,0.0,0.0,0.0,0.0,0.0,0.0,0.0,0.0,0.0,0.0,0.0,0.0,0.0,0.0,0.0,0.0,0.0,0.0,0.0,0.0,0.0,0.0,0.0,0.0,0.0,0.0,0.0,0.0,0.0,0.0,0.0,0.0,0.0,0.0,0.0,0.0,0.0,0.0,0.0,0.0,0.0,0.0,0.0,0.0,0.0,0.0,0.0,0.0,0.0,0.0,0.0,0.0,0.0,0.0,0.0,0.0,0.0,0.0,0.0,0.0,0.0,0.0,0.0,0.0,0.0,0.0,0.0,0.0,0.0,0.0,0.0,0.0,0.0,0.0,0.0,0.0,0.0,0.0,0.0,0.0,0.0,0.0,0.0,0.0,0.0,0.7087,0.7686,0.819,0.8799,0.0,0.0,0.0,0.0,0.0,0.0,0.0,0.0,0.0,0.0,0.0,0.0,0.0,0.0,0.0,0.0,0.0,0.0,0.0,0.0,0.0,0.0,0.0,0.0,0.0,0.0,0.0,0.0,0.0,0.0,0.0,0.0,0.0,0.0,0.0,0.0,0.0,0.0,0.0,0.0,0.0,0.0,0.0,0.0,0.0,0.0,0.0,0.0,0.0,0.0,0.0,0.0,0.0,0.0,0.0,0.0,0.0,0.0,0.0,0.0,0.0,0.0,0.0,0.0,0.0,0.0,0.0,0.0,0.0,0.0,0.0,0.0,0.0,0.0,0.0,0.0,0.0,0.0,0.0,0.0,0.0,0.0,0.0,0.0,0.0,0.0,0.0,0.0,0.0,0.0,0.0,0.0,0.0,0.0,0.0,0.0,0.0,0.0,0.0,0.0,0.0,0.0,0.0,0.0,0.0,0.0,0.0,0.0,0.0,0.0,0.71,0.7411,0.794,0.8477,0.8947,0.9345,0.0,0.0,0.0,0.0,0.0,0.0,0.0,0.0,0.0,0.0,0.0,0.0,0.0,0.0,0.0,0.0,0.0,0.0,0.0,0.0,0.0,0.0,0.0,0.0,0.0,0.0,0.0,0.0,0.0,0.0,0.0,0.0,0.0,0.0,0.0,0.0,0.0,0.0,0.0,0.0,0.0,0.0,0.0,0.0,0.0,0.0,0.0,0.0,0.0,0.0,0.0,0.0,0.0,0.0,0.0,0.0,0.0,0.0,0.0,0.0,0.0,0.0,0.0,0.0,0.0,0.0,0.0,0.0,0.0,0.0,0.0,0.0,0.0,0.0,0.0,0.0,0.0,0.0,0.0,0.0,0.0,0.0,0.0,0.0,0.0,0.0,0.0,0.0,0.0,0.0,0.0,0.0,0.0,0.0,0.0,0.0,0.0,0.0,0.0,0.0,0.0,0.0,0.0,0.0,0.0,0.0,0.0,0.0,0.8049,0.775,0.7881,0.8529,0.8372,0.8481,0.0,0.0,0.0,0.0,0.0,0.0,0.0,0.0,0.0,0.0,0.0,0.0,0.0,0.0,0.0,0.0,0.0,0.0,0.0,0.0,0.0,0.0,0.0,0.0,0.0,0.0,0.0,0.0,0.0,0.0,0.0,0.0,0.0,0.0,0.0,0.0,0.0,0.0,0.0,0.0,0.0,0.0,0.0,0.0,0.0,0.0,0.0,0.0,0.0,0.0,0.0,0.0,0.0,0.0,0.0,0.0,0.0,0.0,0.0,0.0,0.0,0.0,0.0,0.0,0.0,0.0,0.0,0.0,0.0,0.0,0.0,0.0,0.0,0.0,0.0,0.0,0.0,0.0,0.0,0.0,0.0,0.0,0.0,0.0,0.0,0.0,0.0,0.0,0.0,0.0,0.0,0.0,0.0,0.0,0.0,0.0,0.0,0.0,0.0,0.0,0.0,0.0,0.0,0.0,0.0,0.0,0.0,0.0,0.0,0.7231,0.7524,0.8154,0.9111,0.8889,0.8967,0.0,0.0,0.0,0.0,0.0,0.0,0.0,0.0,0.0,0.0,0.0,0.0,0.0,0.0,0.0,0.0,0.0,0.0,0.0,0.0,0.0,0.0,0.0,0.0,0.0,0.0,0.0,0.0,0.0,0.0,0.0,0.0,0.0,0.0,0.0,0.0,0.0,0.0,0.0,0.0,0.0,0.0,0.0,0.0,0.0,0.0,0.0,0.0,0.0,0.0,0.0,0.0,0.0,0.0,0.0,0.0,0.0,0.0,0.0,0.0,0.0,0.0,0.0,0.0,0.0,0.0,0.0,0.0,0.0,0.0,0.0,0.0,0.0,0.0,0.0,0.0,0.0,0.0,0.0,0.0,0.0,0.0,0.0,0.0,0.0,0.0,0.0,0.0,0.0,0.0,0.0,0.0,0.0,0.0,0.0,0.0,0.0,0.0,0.0,0.0,0.0,0.0,0.0,0.0,0.0,0.0,0.0,0.0,0.0,0.7276,0.0,0.8586,0.9172,0.8835,0.8836,0.0,0.0,0.0,0.0,0.0,0.0,0.0,0.0,0.0,0.0,0.0,0.0,0.0,0.0,0.0,0.0,0.0,0.0,0.0,0.0,0.0,0.0,0.0,0.0,0.0,0.0,0.0,0.0,0.0,0.0,0.0,0.0,0.0,0.0,0.0,0.0,0.0,0.0,0.0,0.0,0.0,0.0,0.0,0.0,0.0,0.0,0.0,0.0,0.0,0.0,0.0,0.0,0.0,0.0,0.0,0.0,0.0,0.0,0.0,0.0,0.0,0.0,0.0,0.0,0.0,0.0,0.0,0.0,0.0,0.0,0.0,0.0,0.0,0.0,0.0,0.0,0.0,0.0,0.0,0.0,0.0,0.0,0.0,0.0,0.0,0.0,0.0,0.0,0.0,0.0,0.0,0.0,0.0,0.0,0.0,0.0,0.0,0.0,0.0,0.0,0.0,0.0,0.0,0.0,0.0,0.0,0.0,0.0,0.7215,0.8412,0.9076,0.9159,0.8644,0.8199,0.7913,0.0,0.0,0.0,0.0,0.0,0.0,0.0,0.0,0.0,0.0,0.0,0.0,0.0,0.0,0.0,0.0,0.0,0.0,0.0,0.0,0.0,0.0,0.0,0.0,0.0,0.0,0.0,0.0,0.0,0.0,0.0,0.0,0.0,0.0,0.0,0.0,0.0,0.0,0.0,0.0,0.0,0.0,0.0,0.0,0.0,0.0,0.0,0.0,0.0,0.0,0.0,0.0,0.0,0.0,0.0,0.0,0.0,0.0,0.0,0.0,0.0,0.0,0.0,0.0,0.0,0.0,0.0,0.0,0.0,0.0,0.0,0.0,0.0,0.0,0.0,0.0,0.0,0.0,0.0,0.0,0.0,0.0,0.0,0.0,0.0,0.0,0.0,0.0,0.0,0.0,0.0,0.0,0.0,0.0,0.0,0.0,0.0,0.0,0.0,0.0,0.0,0.0,0.0,0.0,0.0,0.0,0.0,0.0,0.0,0.7761,0.8482,0.8981,0.9187,0.8682,0.8416,0.0,0.0,0.0,0.0,0.0,0.0,0.0,0.0,0.0,0.0,0.0,0.0,0.0,0.0,0.0,0.0,0.0,0.0,0.0,0.0,0.0,0.0,0.0,0.0,0.0,0.0,0.0,0.0,0.0,0.0,0.0,0.0,0.0,0.0,0.0,0.0,0.0,0.0,0.0,0.0,0.0,0.0,0.0,0.0,0.0,0.0,0.0,0.0,0.0,0.0,0.0,0.0,0.0,0.0,0.0,0.0,0.0,0.0,0.0,0.0,0.0,0.0,0.0,0.0,0.0,0.0,0.0,0.0,0.0,0.0,0.0,0.0,0.0,0.0,0.0,0.0,0.0,0.0,0.0,0.0,0.0,0.0,0.0,0.0,0.0,0.0,0.0,0.0,0.0,0.0,0.0,0.0,0.0,0.0,0.0,0.0,0.0,0.0,0.0,0.0,0.0,0.0,0.0,0.0,0.0,0.0,0.0,0.0,0.0,0.8286,0.8858,0.9297,0.9485,0.9067,0.8705,0.8475,0.0,0.0,0.0,0.0,0.0,0.0,0.0,0.0,0.0,0.0,0.0,0.0,0.0,0.0,0.0,0.0,0.0,0.0,0.0,0.0,0.0,0.0,0.0,0.0,0.0,0.0,0.0,0.0,0.0,0.0,0.0,0.0,0.0,0.0,0.0,0.0,0.0,0.0,0.0,0.0,0.0,0.0,0.0,0.0,0.0,0.0,0.0,0.0,0.0,0.0,0.0,0.0,0.0,0.0,0.0,0.0,0.0,0.0,0.0,0.0,0.0,0.0,0.0,0.0,0.0,0.0,0.0,0.0,0.0,0.0,0.0,0.0,0.0,0.0,0.0,0.0,0.0,0.0,0.0,0.0,0.0,0.0,0.0,0.0,0.0,0.0,0.0,0.0,0.0,0.0,0.0,0.0,0.0,0.0,0.0,0.0,0.0,0.0,0.0,0.0,0.0,0.0,0.0,0.0,0.0,0.0,0.0,0.0,0.9723,1.0084,1.0043,0.9606,0.9388,0.8839,0.0,0.0,0.0,0.0,0.0,0.0,0.0,0.0,0.0,0.0,0.0,0.0,0.0,0.0,0.0,0.0,0.0,0.0,0.0,0.0,0.0,0.0,0.0,0.0,0.0,0.0,0.0,0.0,0.0,0.0,0.0,0.0,0.0,0.0,0.0,0.0,0.0,0.0,0.0,0.0,0.0,0.0,0.0,0.0,0.0,0.0,0.0,0.0,0.0,0.0,0.0,0.0,0.0,0.0,0.0,0.0,0.0,0.0,0.0,0.0,0.0,0.0,0.0,0.0,0.0,0.0,0.0,0.0,0.0,0.0,0.0,0.0,0.0,0.0,0.0,0.0,0.0,0.0,0.0,0.0,0.0,0.0,0.0,0.0,0.0,0.0,0.0,0.0,0.0,0.0,0.0,0.0,0.0,0.0,0.0,0.0,0.0,0.0,0.0,0.0,0.0,0.0,0.0,0.0,0.0,0.0,0.0,0.0,0.0,1.0067,1.0782,1.0985,1.0612,1.0173,0.9478,0.0,0.0,0.0,0.0,0.0,0.0,0.0,0.0,0.0,0.0,0.0,0.0,0.0,0.0,0.0,0.0,0.0,0.0,0.0,0.0,0.0,0.0,0.0,0.0,0.0,0.0,0.0,0.0,0.0,0.0,0.0,0.0,0.0,0.0,0.0,0.0,0.0,0.0,0.0,0.0,0.0,0.0,0.0,0.0,0.0,0.0,0.0,0.0,0.0,0.0,0.0,0.0,0.0,0.0,0.0,0.0,0.0,0.0,0.0,0.0,0.0,0.0,0.0,0.0,0.0,0.0,0.0,0.0,0.0,0.0,0.0,0.0,0.0,0.0,0.0,0.0,0.0,0.0,0.0,0.0,0.0,0.0,0.0,0.0,0.0,0.0,0.0,0.0,0.0,0.0,0.0,0.0,0.0,0.0,0.0,0.0,0.0,0.0,0.0,0.0,0.0,0.0,0.0,0.0,0.0,0.0,0.0,0.0,0.9975,1.0976,1.1714,1.1911,1.1566,1.1107,1.0218,0.0,0.0,0.0,0.0,0.0,0.0,0.0,0.0,0.0,0.0,0.0,0.0,0.0,0.0,0.0,0.0,0.0,0.0,0.0,0.0,0.0,0.0,0.0,0.0,0.0,0.0,0.0,0.0,0.0,0.0,0.0,0.0,0.0,0.0,0.0,0.0,0.0,0.0,0.0,0.0,0.0,0.0,0.0,0.0,0.0,0.0,0.0,0.0,0.0,0.0,0.0,0.0,0.0,0.0,0.0,0.0,0.0,0.0,0.0,0.0,0.0,0.0,0.0,0.0,0.0,0.0,0.0,0.0,0.0,0.0,0.0,0.0,0.0,0.0,0.0,0.0,0.0,0.0,0.0,0.0,0.0,0.0,0.0,0.0,0.0,0.0,0.0,0.0,0.0,0.0,0.0,0.0,0.0,0.0,0.0,0.0,0.0,0.0,0.0,0.0,0.0,0.0,0.0,0.0,0.0,0.0,0.0,0.0,1.0851,1.2021,1.258,1.2646,1.2242,1.1998,1.0963,0.0,0.0,0.0,0.0,0.0,0.0,0.0,0.0,0.0,0.0,0.0,0.0,0.0,0.0,0.0,0.0,0.0,0.0,0.0,0.0,0.0,0.0,0.0,0.0,0.0,0.0,0.0,0.0,0.0,0.0,0.0,0.0,0.0,0.0,0.0,0.0,0.0,0.0,0.0,0.0,0.0,0.0,0.0,0.0,0.0,0.0,0.0,0.0,0.0,0.0,0.0,0.0,0.0,0.0,0.0,0.0,0.0,0.0,0.0,0.0,0.0,0.0,0.0,0.0,0.0,0.0,0.0,0.0,0.0,0.0,0.0,0.0,0.0,0.0,0.0,0.0,0.0,0.0,0.0,0.0,0.0,0.0,0.0,0.0,0.0,0.0,0.0,0.0,0.0,0.0,0.0,0.0,0.0,0.0,0.0,0.0,0.0,0.0,0.0,0.0,0.0,0.0,0.0,0.0,0.0,0.0,0.0,0.0,1.0651,1.1685,1.2287,1.2324,1.175,1.2081,1.1486,0.0,0.0,0.0,0.0,0.0,0.0,0.0,0.0,0.0,0.0,0.0,0.0,0.0,0.0,0.0,0.0,0.0,0.0,0.0,0.0,0.0,0.0,0.0,0.0,0.0,0.0,0.0,0.0,0.0,0.0,0.0,0.0,0.0,0.0,0.0,0.0,0.0,0.0,0.0,0.0,0.0,0.0,0.0,0.0,0.0,0.0,0.0,0.0,0.9517,0.0,0.0,0.0,0.0,0.0,0.0,0.0,0.0,0.0,0.0,0.0,0.0,0.0,0.0,0.0,0.0,0.0,0.0,0.0,0.0,0.0,0.0,0.0,0.0,0.0,0.0,0.0,0.0,0.0,0.0,0.0,0.0,0.0,0.0,0.0,0.0,0.0,0.0,0.0,0.0,0.0,0.0,0.0,0.0,0.0,0.0,0.0,0.0,0.0,0.0,0.0,0.0,0.0,0.0,0.0,0.0,0.0,0.0,0.0,1.0889,1.1803,1.2242,1.224,1.1788,1.2165,1.1583,0.0,0.0,0.0,0.0,0.0,0.0,0.0,0.0,0.0,0.0,0.0,0.0,0.0,0.0,0.0,0.0,0.0,0.0,0.0,0.0,0.0,0.0,0.0,0.0,0.0,0.0,0.0,0.0,0.0,0.0,0.0,0.0,0.0,0.0,0.0,0.0,0.0,0.0,0.0,0.0,0.0,0.0,0.0,0.0,0.0,0.0,0.0,0.0,0.0,0.0,0.0,0.0,0.0,0.0,0.0,0.0,0.0,0.0,0.0,0.0,0.0,0.0,0.0,0.0,0.0,0.0,0.0,0.0,0.0,0.0,0.0,0.0,0.0,0.0,0.0,0.0,0.0,0.0,0.0,0.0,0.0,0.0,0.0,0.0,0.0,0.0,0.0,0.0,0.0,0.0,0.0,0.0,0.0,0.0,0.0,0.0,0.0,0.0,0.0,0.0,0.0,0.0,0.0,0.0,0.0,0.0,0.0,1.0406,1.1087,1.2006,1.2186,1.2102,1.1818,1.2048,1.1315,0.9551,0.0,0.0,0.0,0.0,0.0,0.0,0.0,0.0,0.0,0.0,0.0,0.0,0.0,0.0,0.0,0.0,0.0,0.0,0.0,0.0,0.0,0.0,0.0,0.0,0.0,0.0,0.0,0.0,0.0,0.0,0.0,0.0,0.0,0.0,0.0,0.0,0.0,0.0,1.0354,1.1058,0.0,0.0,0.0,0.0,0.0,0.0,0.0,0.0,1.0622,0.0,0.0,0.0,0.0,0.0,0.0,0.0,0.0,0.0,0.0,0.0,0.0,0.0,0.0,0.0,0.0,0.0,0.0,0.0,0.0,0.0,0.0,0.0,0.0,0.0,0.0,0.0,0.0,0.0,0.0,0.0,0.0,0.0,0.0,0.0,0.0,0.0,0.0,0.0,0.0,0.0,0.0,0.0,0.0,0.0,0.0,0.0,0.0,0.0,0.0,0.0,0.0,0.0,0.0,0.0,0.0,1.0353,1.0052,1.0532,1.1806,1.1708,1.1523,1.1319,1.1263,1.0607,0.9349,0.0,0.0,0.0,0.0,0.0,0.0,0.0,0.0,0.0,0.0,0.0,0.0,0.0,0.0,0.0,0.0,0.0,0.0,0.0,0.0,0.0,0.0,0.0,0.0,0.0,0.0,0.0,0.0,0.0,0.0,0.0,0.0,0.0,0.0,0.0,0.0,0.0,0.0,0.0,1.1851,1.2579,0.0,0.0,0.0,0.0,0.0,0.0,0.0,0.0,1.1079,0.0,0.0,0.0,0.0,0.0,0.0,0.0,0.0,0.0,0.0,0.0,0.0,0.0,0.0,0.0,0.0,0.0,0.0,0.0,0.0,0.0,0.0,0.0,0.0,0.0,0.0,0.0,0.0,0.0,0.0,0.0,0.0,0.0,0.0,0.0,0.0,0.0,0.0,0.0,0.0,0.0,0.0,0.0,0.0,0.0,0.0,0.0,0.0,0.0,0.0,0.0,0.0,0.0,0.0,0.0,0.9382,0.9681,1.0266,1.1185,1.1105,1.1029,1.1019,1.0761,1.0162,0.0,0.0,0.0,0.0,0.0,0.0,0.0,0.0,0.0,0.0,0.0,0.0,0.0,0.0,0.0,0.0,0.0,0.0,0.0,0.0,0.0,0.0,0.0,0.0,0.0,0.0,0.0,0.0,0.0,0.0,0.0,0.0,0.0,0.0,0.0,0.0,0.0,0.0,0.0,0.0,1.2812,1.3539,1.409,0.0,0.0,0.0,0.0,0.0,0.0,1.2082,1.2232,0.0,0.0,0.0,0.0,0.0,0.0,0.0,0.0,0.0,0.0,0.0,0.0,0.0,0.0,0.0,0.0,0.0,0.0,0.0,0.0,0.0,0.0,0.0,0.0,0.0,0.0,0.0,0.0,0.0,0.0,0.0,0.0,0.0,0.0,0.0,0.0,0.0,0.0,0.0,0.0,0.0,0.0,0.0,0.0,0.0,0.0,0.0,0.0,0.0,0.0,0.0,0.0,0.0,0.0,0.0,0.8427,0.9273,1.0022,1.0639,1.0602,1.0659,1.0916,1.0489,0.9914,0.0,0.0,0.0,0.0,0.0,0.0,0.0,0.0,0.0,0.0,0.0,0.0,0.0,0.0,0.0,0.0,0.0,0.0,0.0,0.0,0.0,0.0,0.0,0.0,0.0,0.0,0.0,0.0,0.0,0.0,0.0,0.0,0.0,0.0,0.0,0.0,0.0,0.0,0.0,0.0,0.0,1.4617,1.4876,1.4506,0.0,0.0,0.0,0.0,1.2815,1.3223,0.0,0.0,0.0,0.0,0.0,0.0,0.0,0.0,0.0,0.0,0.0,0.0,0.0,0.0,0.0,0.0,0.0,0.0,0.0,0.0,0.0,0.0,0.0,0.0,0.0,0.0,0.0,0.0,0.0,0.0,0.0,0.0,0.0,0.0,0.0,0.0,0.0,0.0,0.0,0.0,0.0,0.0,0.0,0.0,0.0,0.0,0.0,0.0,0.0,0.0,0.0,0.0,0.0,0.0,0.0,0.0,0.8113,0.8712,0.9535,1.0543,1.0428,1.0573,1.104,1.0551,1.0018,0.0,0.0,0.0,0.0,0.0,0.0,0.0,0.0,0.0,0.0,0.0,0.0,0.0,0.0,0.0,0.0,0.0,0.0,0.0,0.0,0.0,0.0,0.0,0.0,0.0,0.0,0.0,0.0,0.0,0.0,0.0,0.0,0.0,0.0,0.0,0.0,0.0,0.0,0.0,0.0,0.0,1.5801,1.5079,1.5518,1.5853,0.0,0.0,1.5354,1.5206,1.5124,0.0,0.0,0.0,0.0,0.0,0.0,0.0,0.0,0.0,0.0,0.0,0.0,0.0,0.0,0.0,0.0,0.0,0.0,0.0,0.0,0.0,0.0,0.0,0.0,0.0,0.0,0.0,0.0,0.0,0.0,0.0,0.0,0.0,0.0,0.0,0.0,0.0,0.0,0.0,0.0,0.0,0.0,0.0,0.0,0.0,0.0,0.0,0.0,0.0,0.0,0.0,0.0,0.0,0.0,0.0,0.6714,0.7461,0.8153,0.8895,0.9658,0.9498,0.9677,1.0235,0.9646,0.9082,0.0,0.0,0.0,0.0,0.0,0.0,0.0,0.0,0.0,0.0,0.0,0.0,0.0,0.0,0.0,0.0,0.0,0.0,0.0,0.0,0.0,0.0,0.0,0.0,0.0,0.0,0.0,0.0,0.0,0.0,0.0,0.0,0.0,0.0,0.0,0.0,0.0,0.0,0.0,0.0,0.0,0.0,1.6411,1.6624,0.0,0.0,0.0,1.6277,1.5782,0.0,0.0,0.0,0.0,0.0,0.0,0.0,0.0,0.0,0.0,0.0,0.0,0.0,0.0,0.0,0.0,0.0,0.0,0.0,0.0,0.0,0.0,0.0,0.0,0.0,0.0,0.0,0.0,0.0,0.0,0.0,0.0,0.0,0.0,0.0,0.0,0.0,0.0,0.0,0.0,0.0,0.0,0.0,0.0,0.0,0.0,0.0,0.0,0.0,0.0,0.0,0.0,0.0,0.0,0.0,0.0,0.0,0.7008,0.7759,0.8398,0.8881,0.8777,0.897,0.957,0.8949,0.0,0.0,0.0,0.0,0.0,0.0,0.0,0.0,0.0,0.0,0.0,0.0,0.0,0.0,0.0,0.0,0.0,0.0,0.0,0.0,0.0,0.0,0.0,0.0,0.0,0.0,0.0,0.5317,0.0,0.0,0.0,0.0,0.0,0.0,0.0,0.0,0.0,0.0,0.0,0.0,0.0,0.0,1.7029,1.7427,1.7521,1.7532,0.0,0.0,1.7122,1.6458,1.6217,1.5812,0.0,0.0,0.0,0.0,0.0,0.0,0.0,0.0,0.0,0.0,0.0,0.0,0.0,0.0,0.0,0.0,0.0,0.0,0.0,0.0,0.0,0.0,0.0,0.0,0.0,0.0,0.0,0.0,0.0,0.0,0.0,0.0,0.0,0.0,0.0,0.0,0.0,0.0,0.0,0.0,0.0,0.0,0.0,0.0,0.0,0.0,0.0,0.0,0.0,0.0,0.0,0.0,0.0,0.0,0.6371,0.7,0.7665,0.8255,0.8704,0.8716,0.8999,0.957,0.896,0.8451,0.0,0.0,0.0,0.0,0.0,0.0,0.0,0.0,0.0,0.0,0.0,0.0,0.0,0.0,0.0,0.0,0.0,0.0,0.0,0.0,0.0,0.0,0.0,0.0,0.0,0.0,0.0,0.0,0.0,0.0,0.0,0.0,0.0,0.0,0.0,0.0,0.0,0.0,0.0,0.0,0.0,1.8188,1.7497,1.8045,1.8476,0.0,1.8346,1.8197,1.7883,1.7675,1.7042,1.5502,0.0,0.0,0.0,0.0,0.0,0.0,0.0,0.0,0.0,0.0,0.0,0.0,0.0,0.0,0.0,0.0,0.0,0.0,0.0,0.0,0.0,0.0,0.0,0.0,0.0,0.0,0.0,0.0,0.0,0.0,0.0,0.0,0.0,0.0,0.0,0.0,0.0,0.0,0.0,0.0,0.0,0.0,0.0,0.0,0.0,0.0,0.0,0.0,0.0,0.0,0.0,0.0,0.0,0.6308,0.6709,0.7899,0.847,0.8392,0.8715,0.8911,0.8921,0.8506,0.7965,0.0,0.0,0.0,0.0,0.0,0.0,0.0,0.0,0.0,0.0,0.0,0.0,0.0,0.0,0.0,0.0,0.0,0.0,0.0,0.0,0.0,0.0,0.0,0.0,0.0,0.0,0.0,0.0,0.885,0.9407,1.0248,0.0,0.0,0.0,0.0,0.0,0.0,0.0,0.0,0.0,0.0,1.7807,1.8032,1.8274,0.0,0.0,1.8396,1.8373,1.8253,1.7725,1.712,1.6507,1.6026,0.0,0.0,0.0,0.0,0.0,0.0,0.0,0.0,0.0,0.0,0.0,0.0,0.0,0.0,0.0,0.0,0.0,0.0,0.0,0.0,0.0,0.0,0.0,0.0,0.0,0.0,0.0,0.0,0.0,0.0,0.0,0.0,0.0,0.0,0.0,0.0,0.0,0.0,0.0,0.0,0.0,0.0,0.0,0.0,0.0,0.0,0.0,0.0,0.0,0.0,0.0,0.0,0.6419,0.6855,0.8074,0.8583,0.8335,0.8685,0.867,0.8265,0.8035,0.7584,0.0,0.0,0.0,0.0,0.0,0.0,0.0,0.0,0.0,0.0,0.0,0.0,0.0,0.0,0.0,0.0,0.0,0.0,0.0,0.0,0.0,0.0,0.0,0.0,0.0,0.0,0.0,0.0,0.9463,0.9657,1.0256,0.0,0.0,0.0,0.0,0.0,0.0,0.0,0.0,0.0,0.0,1.7735,1.8348,1.8368,1.8318,1.8318,1.8348,1.8355,1.8332,1.7795,1.7312,1.7021,0.0,0.0,0.0,0.0,0.0,0.0,0.0,0.0,0.0,0.0,0.0,0.0,0.0,0.0,0.0,0.0,0.0,0.0,0.0,0.0,0.0,0.0,0.0,0.0,0.0,0.0,0.0,0.3706,0.0,0.0,0.3706,0.0,0.0,0.0,0.0,0.0,0.0,0.0,0.0,0.0,0.0,0.0,0.0,0.0,0.0,0.0,0.0,0.0,0.0,0.0,0.0,0.0,0.0,0.6684,0.7644,0.8231,0.8562,0.8599,0.8548,0.8317,0.7798,0.7544,0.7361,0.7149,0.0,0.0,0.0,0.0,0.0,0.0,0.0,0.0,0.0,0.0,0.0,0.0,0.0,0.0,0.0,0.0,0.0,0.0,0.0,0.0,0.0,0.0,0.0,0.0,0.0,0.0,0.8735,0.9582,1.0169,0.0,0.0,0.0,0.0,0.0,0.0,0.0,0.0,0.0,1.7062,1.7793,1.8283,1.83,1.8318,1.8307,1.8307,1.8307,1.8256,1.8127,1.8078,1.7768,0.0,0.0,0.0,0.0,0.0,0.0,0.0,0.0,0.0,0.0,0.0,0.0,0.0,0.0,0.0,0.0,0.0,0.0,0.0,0.0,0.0,0.0,0.0,0.0,0.0,0.0,0.0,0.4329,0.404,0.0,0.0,0.0,0.0,0.0,0.0,0.0,0.0,0.0,0.0,0.0,0.6041,0.6403,0.0,0.0,0.0,0.0,0.0,0.0,0.0,0.0,0.0,0.0,0.0,0.0,0.6717,0.7149,0.8635,0.9366,0.9276,0.9827,0.9627,0.8663,0.8436,0.7802,0.6698,0.0,0.0,0.0,0.0,0.0,0.0,0.0,0.0,0.0,0.0,0.0,0.0,0.0,0.0,0.0,0.0,0.0,0.0,0.0,0.0,0.0,0.0,0.0,0.0,0.0,0.9042,0.0,0.0,0.0,0.0,0.0,0.0,0.0,0.0,0.0,0.0,1.5848,1.6733,1.6978,1.7631,1.8095,1.8095,1.8106,1.8106,0.0,0.0,0.0,0.0,0.0,0.0,0.0,0.0,0.0,0.0,0.0,0.0,0.0,0.0,1.7398,1.5941,1.5453,1.5444,1.5993,0.0,0.0,0.0,0.0,0.0,0.0,0.0,0.0,0.0,0.0,0.0,0.0,0.0,0.0,0.4754,0.4456,0.4499,0.0,0.0,0.0,0.0,0.0,0.0,0.0,0.0,0.6365,0.6619,0.6505,0.6952,0.7006,0.0,0.7287,0.6909,0.0,0.0,0.0,0.0,0.0,0.0,0.0,0.0,0.7117,0.7444,0.9017,0.9773,0.9591,1.0294,1.0195,0.9206,0.8901,0.8179,0.6938,0.6411,0.6339,0.0,0.0,0.0,0.0,0.0,0.0,0.0,0.0,0.0,0.0,0.0,0.0,0.0,0.0,0.0,0.0,0.0,0.0,0.0,0.0,0.0,0.0,0.0,0.9074,0.0,0.0,0.0,0.0,0.0,0.0,0.0,0.0,0.0,1.5343,1.6228,1.6939,1.719,1.7622,1.7939,1.7939,0.0,0.0,0.0,0.0,0.0,0.0,0.0,1.875,1.8493,1.8642,1.8824,1.8825,1.9235,1.9543,1.9543,0.0,0.0,1.7087,1.676,1.6972,1.7546,1.8061,1.8375,1.8435,1.8563,1.8756,0.0,0.0,0.0,0.0,0.5356,0.0,0.0,0.0,0.5437,0.5233,0.0,0.4917,0.0,0.0,0.0,0.0,0.508,0.6122,0.0,0.0,0.7136,0.7451,0.7229,0.756,0.7587,0.741,0.8467,0.8255,0.6922,0.6622,0.0,0.0,0.0,0.0,0.0,0.0,0.7832,0.844,0.9318,0.9684,0.9537,0.9974,0.9939,0.9337,0.8901,0.8404,0.7812,0.7518,0.7136,0.6579,0.6035,0.0,0.0,0.0,0.0,0.0,0.0,0.0,0.0,0.0,0.0,0.0,0.0,0.0,0.0,0.0,0.0,0.0,0.0,0.0,0.0,0.8614,0.0,0.0,0.0,0.0,0.0,0.0,0.0,0.0,0.0,1.6533,1.6751,1.6753,1.6993,1.771,0.0,0.0,0.0,0.0,1.7811,1.7811,1.8441,1.8901,1.8918,1.9487,1.9719,1.9031,0.0,0.0,2.0069,2.0069,2.0103,2.0103,2.0351,1.9938,1.8555,1.8387,1.8478,1.8568,1.8658,1.8692,1.8782,1.8976,1.9117,0.5637,0.0,0.0,0.0,0.0,0.5912,0.6041,0.6334,0.6379,0.5981,0.533,0.5381,0.0,0.0,0.0,0.0,0.0,0.0,0.6043,0.6046,0.6759,0.7183,0.7356,0.7868,0.8228,0.8483,0.9017,0.8933,0.8323,0.8226,0.734,0.5685,0.0,0.0,0.0,0.0,0.7736,0.8102,0.8971,0.9492,0.9582,1.0205,1.0244,0.9606,0.8731,0.8151,0.7894,0.7661,0.7492,0.7346,0.698,0.0,0.0,0.0,0.0,0.0,0.0,0.0,0.0,0.0,0.0,0.0,0.0,0.0,0.0,0.0,0.0,0.0,0.0,0.0,0.8883,0.8843,0.939,0.0,0.0,0.0,0.0,0.0,0.0,0.0,0.0,0.0,1.708,1.7215,1.7401,0.0,0.0,1.7432,1.7635,1.7945,1.8166,1.8166,1.8739,0.0,1.9187,1.9406,1.9542,1.9425,1.9653,2.0213,2.1308,2.1507,2.1675,2.2166,2.2524,2.239,2.1477,2.0999,2.0628,2.0179,2.0441,2.0865,2.0893,2.0998,2.1295,0.5922,0.5767,0.5708,0.5823,0.6125,0.6077,0.6226,0.6557,0.6583,0.631,0.5832,0.587,0.5683,0.5389,0.5273,0.0,0.0,0.0,0.6024,0.6076,0.6591,0.7098,0.7499,0.7974,0.8468,0.8935,0.9144,0.9143,0.8947,0.8992,0.8341,0.7046,0.0,0.6982,0.6574,0.7459,0.7976,0.8127,0.8918,0.9333,0.9331,1.0115,1.0326,0.9873,0.9082,0.8557,0.8339,0.8108,0.8014,0.8017,0.7677,0.7272,0.0,0.0,0.0,0.0,0.0,0.0,0.0,0.0,0.0,0.0,0.0,0.5285,0.483,0.0,0.0,0.0,0.82,0.8915,0.9445,0.9791,0.0,0.0,0.0,0.0,0.0,0.0,0.0,1.6068,1.6237,1.6381,1.6811,1.719,1.7461,1.7448,1.7449,1.7503,1.7654,0.0,1.8931,1.8947,1.9772,2.0321,2.0062,2.0329,2.0613,2.0703,2.0515,2.0916,2.2315,2.2628,2.2823,2.3378,2.3755,2.3843,2.3517,2.3273,2.2822,2.1849,2.2001,2.2357,2.2417,2.23,2.2402,0.62,0.6204,0.599,0.5928,0.5997,0.6218,0.6346,0.6321,0.6371,0.636,0.6295,0.629,0.6279,0.6239,0.6269,0.0,0.5898,0.6148,0.6251,0.6297,0.6634,0.7061,0.758,0.7922,0.8391,0.9002,0.9018,0.9027,0.905,0.919,0.9066,0.8718,0.8184,0.778,0.7601,0.8134,0.8394,0.8402,0.9015,0.9183,0.8921,0.9774,1.0166,0.999,0.966,0.9296,0.8984,0.8714,0.8554,0.8471,0.8084,0.7723,0.7394,0.0,0.0,0.0,0.0,0.0,0.0,0.0,0.0,0.0,0.0,0.0,0.0,0.0,0.0,0.7268,0.8381,0.0,1.0452,1.1173,0.0,0.0,0.0,1.3856,1.5191,1.5229,1.5408,1.6033,0.0,0.0,1.628,1.6967,1.7311,1.6926,1.7491,1.792,1.792,1.913,2.0004,2.0004,2.1181,2.1869,2.1261,2.1777,2.223,2.2214,2.1859,2.194,2.312,2.3443,2.3613,2.4133,2.4329,2.4566,2.4968,2.5172,2.4983,2.3791,2.3367,2.3305,2.3366,2.2852,2.2603,0.62,0.6196,0.615,0.6289,0.6522,0.657,0.6596,0.6628,0.6813,0.6686,0.6294,0.6294,0.6102,0.5756,0.578,0.5813,0.5912,0.5963,0.6081,0.6236,0.6575,0.6933,0.7379,0.766,0.8287,0.9115,0.914,0.9227,0.9384,0.9401,0.9249,0.8929,0.8798,0.8533,0.8197,0.8333,0.8394,0.8394,0.8553,0.8736,0.8905,0.9379,0.9473,0.9187,0.9177,0.9071,0.8773,0.8562,0.8442,0.8416,0.7843,0.7539,0.7533,0.6092,0.0,0.0,0.0,0.0,0.0,0.0,0.0,0.0,0.0,0.6938,0.596,0.0,0.9155,0.0,0.9461,1.0672,1.1555,1.2007,0.0,0.0,1.4362,1.4734,1.558,1.5686,1.583,1.6133,1.6623,1.6916,1.6887,1.75,1.7838,1.7547,1.8283,1.8889,1.9045,2.0085,2.0899,2.0978,2.1665,2.2149,2.2116,2.2323,2.256,2.256,2.2542,2.2888,2.3841,2.4019,2.4307,2.5226,2.5607,2.5899,2.623,2.6538,2.6636,2.6335,2.5052,2.3807,2.3842,2.3282,2.2998,0.6454,0.6449,0.6478,0.6506,0.6595,0.6529,0.6468,0.6495,0.663,0.6538,0.6264,0.6264,0.6096,0.5892,0.5951,0.6003,0.6057,0.612,0.6177,0.6205,0.6386,0.6734,0.7214,0.7375,0.799,0.8995,0.9021,0.9217,0.9542,0.9617,0.9552,0.9371,0.9261,0.9097,0.8902,0.8663,0.8456,0.8299,0.8353,0.8561,0.8897,0.9246,0.9167,0.872,0.9049,0.8931,0.8322,0.8363,0.8323,0.8141,0.7726,0.745,0.732,0.6351,0.576,0.0,0.0,0.0,0.0,0.0,0.0,0.0,0.0,0.0,0.0,0.0,0.973,0.9477,1.0637,1.1754,1.2584,1.3216,1.3938,1.4827,1.4863,1.4994,1.5315,1.5388,1.5448,1.5565,1.6113,1.6569,1.6864,1.7722,1.8344,1.8419,1.9564,2.0167,1.9786,2.0926,2.2049,2.208,2.279,2.3192,2.2929,2.2792,2.2723,2.2759,2.2954,2.3356,2.3971,2.4131,2.4492,2.5419,2.5815,2.6191,2.6725,2.6973,2.7136,2.7029,2.6232,2.5498,2.5521,2.4941,2.459,0.6791,0.6791,0.6768,0.669,0.6525,0.6304,0.62,0.62,0.62,0.62,0.62,0.6229,0.6243,0.6257,0.6454,0.645,0.6294,0.6436,0.6412,0.6247,0.6214,0.6472,0.6977,0.7004,0.7589,0.8666,0.8666,0.8981,0.9588,0.974,0.9766,0.9751,0.9602,0.9486,0.9458,0.8998,0.8603,0.8245,0.8322,0.8503,0.8783,0.9115,0.898,0.8416,0.8931,0.8798,0.7921,0.8146,0.8182,0.7885,0.7719,0.7493,0.7147,0.6753,0.6363,0.0,0.6171,0.0,0.0,0.0,0.0,0.0,0.0,0.0,0.0,0.9587,1.0265,1.0863,1.1851,1.2776,1.3539,1.4326,1.4896,1.5114,1.5003,1.4871,1.4794,1.4793,1.4821,1.4891,1.5525,1.6168,1.6831,1.7988,1.8993,1.9437,2.0648,2.1148,2.0317,2.1743,2.3147,2.3249,2.41,2.4247,2.3586,2.3219,2.3082,2.3091,2.3294,2.3625,2.4039,2.4131,2.4405,2.5125,2.5521,2.5939,2.6691,2.6859,2.6925,2.6925,2.6839,2.6885,2.7084,2.6571,2.6288,0.6791,0.6777,0.6633,0.6613,0.6702,0.6337,0.62,0.62,0.62,0.62,0.6214,0.6374,0.6445,0.6464,0.6666,0.6707,0.6699,0.6563,0.6483,0.644,0.628,0.626,0.6364,0.6364,0.695,0.8031,0.8064,0.8613,0.9588,0.9647,0.9621,0.9647,0.9607,0.9452,0.9274,0.0,0.0,0.0,0.8208,0.8113,0.8169,0.855,0.8527,0.8085,0.8305,0.0,0.8143,0.7996,0.8039,0.8266,0.7948,0.0,0.0,0.0,0.0,0.0,0.0,0.0,0.0,0.0,0.0,0.0,0.9138,0.9495,0.9903,1.1069,1.1995,1.2434,1.3011,1.3573,1.4108,1.4194,1.4422,1.482,1.4833,1.4824,1.4793,1.4807,1.4961,1.5494,1.6473,1.7385,1.7977,1.9179,1.9978,2.0139,2.0829,2.1177,2.0939,2.245,2.3718,2.4035,2.4384,2.4354,2.3806,2.3722,2.3738,2.3812,2.3827,2.4019,2.4318,2.4446,2.4634,2.5137,2.5422,2.5754,2.6242,2.6468,2.6623,2.6657,2.6674,2.6759,2.7006,2.6522,2.5975,0.7149,0.7135,0.6927,0.6817,0.0,0.6483,0.6356,0.6351,0.6351,0.6384,0.6506,0.6478,0.6558,0.6675,0.6878,0.692,0.6791,0.6812,0.679,0.6652,0.645,0.6351,0.6351,0.6252,0.6815,0.7877,0.7904,0.8481,0.9562,0.9614,0.9614,0.9614,0.9614,0.9541,0.942,0.9316,0.9005,0.8518,0.8335,0.8167,0.8023,0.8386,0.8409,0.8017,0.8267,0.0,0.0,0.0,0.0,0.0,0.0,0.0,0.0,0.0,0.0,0.7049,0.791,0.8228,0.7782,0.8688,0.9524,1.0059,1.0768,1.1162,1.1108,1.2194,1.2893,1.2854,1.348,1.388,1.3859,1.4084,1.4341,1.456,1.4468,1.4511,1.4798,1.485,1.5097,1.5735,1.6787,1.771,1.831,1.9521,2.0415,2.0703,2.1121,2.144,2.1744,2.2746,2.3767,2.4364,2.4564,2.4441,2.3967,2.4073,2.4073,2.3824,2.3882,2.3988,2.4,2.4063,2.423,2.4659,2.4958,2.5253,2.583,2.617,2.6364,2.6416,2.6468,2.6589,2.6725,2.6554,2.6396,0.7493,0.747,0.7307,0.7083,0.6911,0.6666,0.6577,0.661,0.6572,0.0,0.0,0.6671,0.6713,0.6892,0.7152,0.7116,0.6944,0.7128,0.7069,0.6868,0.6614,0.6497,0.6487,0.6299,0.6788,0.7877,0.7904,0.8508,0.9562,0.9614,0.9614,0.9614,0.9614,0.9614,0.9599,0.938,0.9052,0.8626,0.8512,0.8286,0.7989,0.8321,0.8367,0.8046,0.8359,0.8426,0.815,0.8108,0.8,0.7782,0.7867,0.7744,0.7391,0.7633,0.7795,0.7859,0.8719,0.9245,0.9239,0.9853,1.0547,1.1185,1.1961,1.2323,1.2106,1.2853,1.3189,1.2811,1.3461,1.3749,1.343,1.3856,1.4225,1.4301,1.4234,1.4376,1.4808,1.4994,1.5363,1.6059,1.705,1.7935,1.8688,1.9779,2.0657,2.107,2.1307,2.1664,2.2058,2.2741,2.358,2.4209,2.4349,2.4261,2.3931,2.3988,2.4051,2.3551,2.3717,2.3839,2.3659,2.3616,2.3831,2.4323,2.4513,2.4918,2.5495,2.5883,2.6081,2.6099,2.6258,2.6398,2.6416,2.6606,2.6775,0.7493,0.7474,0.7275,0.7275,0.7375,0.6939,0.6908,0.7085,0.6854,0.6798,0.6831,0.7012,0.7119,0.7157,0.7356,0.7437,0.7394,0.7256,0.7171,0.7123,0.6714,0.6497,0.6487,0.6299,0.6788,0.7851,0.7904,0.8481,0.951,0.9614,0.9614,0.9614,0.9614,0.9614,0.9614,0.9544,0.9412,0.9102,0.8548,0.8084,0.7747,0.8077,0.8224,0.818,0.8305,0.8461,0.8677,0.8505,0.8548,0.8784,0.922,0.9241,0.8776,0.955,0.9913,0.9545,1.0128,1.0622,1.0847,1.1072,1.1236,1.1368,1.1542,1.1901,1.2465,1.2646,1.2689,1.2635,1.2738,1.2892,1.324,1.3371,1.3604,1.4032,1.4485,1.4808,1.4954,1.5393,1.6066,1.7076,1.7842,1.8706,1.9651,2.046,2.0899,2.1006,2.1095,2.1277,2.1779,2.2543,2.3223,2.3636,2.3586,2.3457,2.3428,2.3471,2.3493,2.3428,2.361,2.3803,2.3952,2.3867,2.3946,2.438,2.4549,2.4855,2.5298,2.5546,2.568,2.5717,2.5862,2.6025,2.6063,2.6242,2.6452,0.7493,0.7465,0.727,0.7273,0.7313,0.7097,0.71,0.719,0.7177,0.7182,0.7177,0.7204,0.7251,0.7356,0.7451,0.7493,0.7489,0.7394,0.7289,0.7166,0.6812,0.6581,0.6492,0.6299,0.6815,0.7851,0.7904,0.8481,0.951,0.9614,0.9614,0.9614,0.9614,0.9614,0.9614,0.9614,0.9468,0.92,0.8906,0.8575,0.826,0.8392,0.8569,0.8745,0.8607,0.8681,0.8998,0.8766,0.8685,0.8834,0.9067,0.9221,0.9298,0.9742,1.0052,1.0134,1.0629,1.1056,1.1192,1.1484,1.157,1.1399,1.1613,1.1777,1.1892,1.232,1.2457,1.2264,1.2558,1.2804,1.2852,1.3176,1.3634,1.421,1.4555,1.4998,1.5604,1.5934,1.658,1.7626,1.8311,1.8995,1.9861,2.0554,2.0949,2.0962,2.0949,2.1021,2.118,2.1578,2.2165,2.2846,2.3002,2.2935,2.2838,2.2942,2.3009,2.3009,2.312,2.3253,2.3406,2.3348,2.3523,2.3903,2.412,2.4431,2.4985,2.5298,2.5413,2.5467,2.5602,2.5752,2.5791,2.5974,2.6207,0.7493,0.7474,0.7323,0.7256,0.7293,0.7256,0.7256,0.7275,0.7455,0.7489,0.7405,0.7291,0.7346,0.7484,0.7493,0.7493,0.7493,0.7493,0.7403,0.7242,0.6939,0.6702,0.6558,0.6462,0.6923,0.7845,0.8031,0.8639,0.951,0.9614,0.9614,0.9614,0.9614,0.9614,0.9614,0.9614,0.9504,0.9285,0.9295,0.908,0.8707,0.8758,0.8943,0.9156,0.8999,0.9021,0.9266,0.9029,0.8969,0.9089,0.9184,0.9439,0.9856,1.0138,1.0441,1.0793,1.1121,1.1328,1.1299,1.1618,1.1645,1.1246,1.1478,1.1468,1.1206,1.1665,1.1923,1.1737,1.2315,1.2659,1.2519,1.3218,1.3921,1.439,1.4759,1.532,1.6127,1.6433,1.6889,1.7878,1.8412,1.8865,1.9514,2.0199,2.0654,2.0823,2.0863,2.08,2.0737,2.08,2.1242,2.1827,2.2291,2.2392,2.2235,2.242,2.2572,2.2595,2.2663,2.2717,2.2731,2.2663,2.2912,2.3443,2.3616,2.4057,2.4791,2.5139,2.5217,2.524,2.5394,2.5565,2.5698,2.5846,2.6063,0.7493,0.7489,0.7497,0.7465,0.7455,0.7455,0.7455,0.7455,0.7517,0.7396,0.726,0.7409,0.747,0.7493,0.7493,0.7493,0.7526,0.7521,0.7502,0.7399,0.7026,0.6807,0.6757,0.6905,0.7316,0.7925,0.8428,0.8988,0.9595,0.9614,0.9614,0.9614,0.9614,0.9614,0.9614,0.9614,0.9599,0.9577,0.957,0.9285,0.8751,0.9002,0.9163,0.92,0.9409,0.9541,0.9555,0.9515,0.9731,1.0232,1.0655,1.0964,1.1106,1.1997,1.2381,1.1978,1.2044,1.1947,1.1621,1.1596,1.1451,1.0968,1.0685,1.0538,1.0488,1.0586,1.0655,1.0887,1.1529,1.207,1.2113,1.3307,1.4192,1.4487,1.5248,1.5953,1.6153,1.6525,1.7085,1.7666,1.8009,1.8241,1.8903,1.9556,2.0126,2.0635,2.0687,2.0674,2.0687,2.0687,2.0737,2.0947,2.118,2.1554,2.1864,2.2123,2.217,2.2217,2.2388,2.242,2.2374,2.2342,2.2503,2.3143,2.3486,2.3831,2.4589,2.5025,2.5021,2.5064,2.522,2.5413,2.5733,2.5844,2.5917,0.7493,0.7493,0.7493,0.7493,0.7493,0.7493,0.7493,0.7493,0.7493,0.7461,0.7396,0.7456,0.7428,0.7358,0.7461,0.7493,0.7484,0.737,0.7215,0.7083,0.6765,0.6572,0.6502,0.6891,0.7375,0.7925,0.8508,0.9059,0.9536,0.9614,0.9614,0.9614,0.9614,0.9614,0.9614,0.9614,0.9614,0.9614,0.9614,0.9457,0.9285,0.9365,0.9431,0.9446,0.9555,0.9614,0.9614,0.9614,0.9855,1.0352,1.0625,1.1057,1.1719,1.2175,1.2471,1.2544,1.2595,1.2422,1.1992,1.1963,1.165,1.0946,1.0752,1.0577,1.0371,1.0548,1.0725,1.0865,1.1487,1.2166,1.2807,1.3718,1.4524,1.5139,1.5707,1.6245,1.697,1.6927,1.723,1.8054,1.8292,1.8377,1.8696,1.9197,1.9765,2.0281,2.0423,2.0435,2.0562,2.0574,2.0637,2.0712,2.0886,2.1097,2.1329,2.1437,2.152,2.1602,2.1674,2.1732,2.1851,2.1803,2.1992,2.2725,2.2875,2.3319,2.4266,2.4472,2.4549,2.4791,2.5025,2.5182,2.5355,2.5451,2.5565,0.7493,0.7493,0.7493,0.7493,0.7493,0.7493,0.7493,0.7493,0.7493,0.7489,0.7428,0.7489,0.7396,0.7237,0.7396,0.7493,0.7465,0.728,0.7114,0.6882,0.6628,0.6426,0.6373,0.6998,0.753,0.7957,0.8666,0.9223,0.9588,0.9614,0.9614,0.9614,0.9614,0.9614,0.9614,0.9614,0.9614,0.9614,0.9614,0.9614,0.9607,0.9614,0.9614,0.9614,0.9614,0.9614,0.9614,0.9614,0.9847,1.037,1.0549,1.1065,1.2017,1.2224,1.2505,1.2832,1.2915,1.2695,1.2242,1.2213,1.1823,1.1035,1.0908,1.0781,1.0576,1.0732,1.0995,1.1312,1.1787,1.2476,1.3245,1.4112,1.4987,1.5749,1.613,1.671,1.7193,1.7109,1.7352,1.8129,1.8155,1.848,1.8796,1.9193,1.9629,2.0105,2.0233,2.0258,2.0461,2.0511,2.0562,2.0687,2.08,2.0863,2.0888,2.101,2.1046,2.1106,2.1229,2.1326,2.1326,2.1375,2.1626,2.2383,2.2305,2.277,2.3915,2.4204,2.4328,2.4771,2.5005,2.5045,2.5197,2.5236,2.5394,0.7493,0.7493,0.7493,0.7493,0.7493,0.7493,0.7493,0.7493,0.7493,0.7391,0.7297,0.7428,0.7396,0.7237,0.7396,0.7493,0.7465,0.727,0.7157,0.71,0.6671,0.6492,0.653,0.7405,0.7871,0.8064,0.9007,0.9536,0.9614,0.9614,0.9614,0.9614,0.9614,0.9614,0.9614,0.9614,0.9614,0.9614,0.9614,0.9614,0.9614,0.9614,0.9614,0.9614,0.9614,0.9614,0.9614,0.9614,0.9847,1.0403,1.0854,1.1435,1.2051,1.2569,1.2856,1.2915,1.2915,1.2695,1.2311,1.2252,1.1872,1.1123,1.0995,1.0918,1.0929,1.0977,1.1316,1.2028,1.2275,1.2689,1.3296,1.439,1.536,1.5773,1.6681,1.6986,1.6706,1.7241,1.7358,1.7582,1.7713,1.8211,1.9184,1.9374,1.9631,2.0003,2.0195,2.0258,2.0436,2.0486,2.0537,2.0662,2.0712,2.075,2.0863,2.0899,2.0959,2.1033,2.1095,2.1204,2.1253,2.1361,2.1742,2.2025,2.2095,2.2612,2.3644,2.4245,2.4451,2.4751,2.4966,2.5045,2.5119,2.5236,2.5391,0.7493,0.7493,0.7493,0.7493,0.7493,0.7493,0.7493,0.7493,0.7493,0.7456,0.7391,0.7456,0.7456,0.7396,0.7461,0.7493,0.7455,0.7116,0.6965,0.6882,0.6501,0.6502,0.6951,0.7591,0.8111,0.856,0.9242,0.9614,0.9614,0.9614,0.9614,0.9614,0.9614,0.9614,0.9614,0.9614,0.9614,0.9614,0.9614,0.9614,0.9614,0.9614,0.9614,0.9614,0.9614,0.9614,0.9614,0.9614,0.9847,1.0377,1.0905,1.1451,1.2076,1.2603,1.2915,1.2915,1.2915,1.2812,1.2676,1.2646,1.2402,1.1823,1.1736,1.158,1.1445,1.1582,1.1882,1.221,1.2842,1.3307,1.361,1.4261,1.5087,1.6,1.6564,1.7106,1.7497,1.779,1.8028,1.8279,1.8177,1.8425,1.9219,1.9358,1.9358,1.9813,1.9952,2.008,2.0246,2.0296,2.0385,2.0624,2.0699,2.0699,2.075,2.0787,2.0837,2.0936,2.1023,2.112,2.1166,2.1302,2.165,2.1684,2.1789,2.2291,2.326,2.4307,2.4533,2.4811,2.4985,2.5025,2.5084,2.5162,2.5278,0.7493,0.7493,0.7493,0.7493,0.7493,0.7493,0.7493,0.7493,0.7493,0.7493,0.7493,0.7493,0.7493,0.7493,0.7493,0.7493,0.7446,0.7014,0.6791,0.6754,0.6393,0.6527,0.7112,0.7658,0.819,0.8797,0.9347,0.9614,0.9614,0.9614,0.9614,0.9614,0.9614,0.9614,0.9614,0.9614,0.9614,0.9614,0.9614,0.9614,0.9614,0.9614,0.9614,0.9614,0.9614,0.9614,0.9614,0.9614,0.9751,1.0156,1.0651,1.1284,1.2026,1.2431,1.2725,1.2847,1.2915,1.2915,1.2915,1.2915,1.2686,1.2262,1.2203,1.2057,1.1826,1.2051,1.2242,1.2531,1.2942,1.3443,1.3671,1.3813,1.4398,1.5651,1.6265,1.68,1.7515,1.7943,1.8362,1.8796,1.8857,1.9108,1.9585,1.9447,1.9484,1.9773,1.9798,1.9914,2.008,2.0182,2.0283,2.0574,2.0674,2.0699,2.0712,2.0737,2.0787,2.0875,2.0961,2.1057,2.118,2.1302,2.1399,2.1385,2.166,2.2105,2.2935,2.4069,2.463,2.4906,2.5005,2.5005,2.5045,2.5084,2.524,0.7493,0.7493,0.7493,0.7493,0.7493,0.7493,0.7493,0.7493,0.7493,0.7493,0.7493,0.7493,0.7493,0.7493,0.7493,0.7493,0.7422,0.7028,0.6829,0.6812,0.6417,0.6584,0.7198,0.767,0.827,0.8883,0.9354,0.9614,0.9614,0.9614,0.9614,0.9614,0.9614,0.9614,0.9614,0.9614,0.9614,0.9614,0.9614,0.9614,0.9614,0.9614,0.9614,0.9614,0.9614,0.9614,0.9614,0.9614,0.964,0.9692,1.0164,1.0964,1.1927,1.215,1.2372,1.2808,1.2915,1.2915,1.2915,1.2905,1.2695,1.2369,1.2252,1.2252,1.2242,1.2252,1.2418,1.2758,1.2914,1.3123,1.3481,1.3391,1.3662,1.4614,1.5663,1.6306,1.6681,1.7471,1.8358,1.8971,1.9384,1.9736,1.9798,1.9736,1.9736,1.9773,1.9798,1.9862,2.0029,2.0156,2.0296,2.0486,2.0637,2.0699,2.0699,2.0699,2.0787,2.085,2.0947,2.1033,2.118,2.1302,2.1375,2.141,2.1732,2.2212,2.292,2.3958,2.4523,2.4802,2.4866,2.4966,2.5025,2.5084,2.5256,0.7493,0.7493,0.7493,0.7493,0.7493,0.7493,0.7493,0.7493,0.7493,0.7493,0.7493,0.7493,0.7493,0.7493,0.7493,0.7493,0.7465,0.7182,0.7064,0.6993,0.66,0.6903,0.7677,0.7875,0.8402,0.9249,0.951,0.9614,0.9614,0.9614,0.9614,0.9614,0.9614,0.9614,0.9614,0.9614,0.9614,0.9614,0.9614,0.9614,0.9614,0.9614,0.9614,0.9614,0.9614,0.9614,0.9614,0.9614,0.9614,0.9614,1.0113,1.0905,1.1843,1.2076,1.2348,1.2832,1.2915,1.2915,1.2915,1.2915,1.2846,1.2729,1.2676,1.2676,1.2676,1.2666,1.2725,1.2895,1.2915,1.3091,1.3407,1.3461,1.3697,1.4455,1.5089,1.5768,1.648,1.7764,1.8859,1.9421,1.971,1.9798,1.9798,1.9798,1.9786,1.9761,1.9761,1.9811,2.0029,2.0003,2.0322,2.0587,2.0649,2.0594,2.0543,2.0555,2.0657,2.081,2.0961,2.1033,2.118,2.1302,2.1361,2.1506,2.1851,2.2328,2.3054,2.3659,2.4219,2.4661,2.4786,2.4886,2.4966,2.5103,2.5275,0.7493,0.7493,0.7493,0.7493,0.7493,0.7493,0.7493,0.7493,0.7493,0.7493,0.7493,0.7493,0.7493,0.7493,0.7493,0.7493,0.7479,0.7356,0.7331,0.7232,0.6842,0.7101,0.7891,0.8186,0.8666,0.9432,0.9614,0.9614,0.9614,0.9614,0.9614,0.9614,0.9614,0.9614,0.9614,0.9614,0.9614,0.9614,0.9614,0.9614,0.9614,0.9614,0.9614,0.9614,0.9614,0.9614,0.9614,0.9614,0.9614,0.9692,1.0105,1.0753,1.141,1.1843,1.2249,1.2529,1.2774,1.2915,1.2915,1.2915,1.2915,1.2915,1.2915,1.2905,1.2905,1.2915,1.2915,1.2915,1.2915,1.3013,1.3238,1.3428,1.3656,1.3865,1.451,1.5281,1.6392,1.7954,1.8851,1.9181,1.9475,1.9643,1.9578,1.9721,1.9672,1.9585,1.9357,1.9296,1.9421,1.9344,1.9593,1.9827,1.9854,1.9943,2.0257,2.0398,2.0501,2.0718,2.0961,2.1057,2.118,2.1288,2.1385,2.1482,2.1746,2.218,2.2844,2.3334,2.3846,2.4204,2.4666,2.4786,2.4886,2.5084,2.5275,0.7493,0.7493,0.7493,0.7493,0.7493,0.7493,0.7493,0.7493,0.7493,0.7493,0.7493,0.7493,0.7493,0.7493,0.7493,0.7493,0.7489,0.7474,0.7493,0.737,0.71,0.7175,0.7655,0.8449,0.9093,0.9536,0.9614,0.9614,0.9614,0.9614,0.9614,0.9614,0.9614,0.9614,0.9614,0.9614,0.9614,0.9614,0.9614,0.9614,0.9614,0.9614,0.9614,0.9614,0.9614,0.9614,0.9614,0.9614,0.9614,0.9673,1.0061,1.0395,1.0676,1.1494,1.2017,1.2249,1.2661,1.2866,1.2915,1.2915,1.2915,1.2915,1.2915,1.2915,1.2915,1.2915,1.2915,1.2915,1.2915,1.2954,1.3096,1.3301,1.3396,1.3244,1.4109,1.5143,1.6389,1.7911,1.8493,1.8451,1.9004,1.9489,1.8917,1.9221,1.9167,1.8821,1.8397,1.8302,1.8276,1.825,1.8194,1.8505,1.898,1.9493,1.9858,2.0087,2.0253,2.0695,2.0911,2.1059,2.118,2.1288,2.1458,2.1568,2.1664,2.2123,2.2572,2.3105,2.3646,2.4172,2.4482,2.4661,2.4862,2.508,2.5236,0.7493,0.7493,0.7493,0.7493,0.7493,0.7493,0.7493,0.7493,0.7493,0.7493,0.7493,0.7493,0.7493,0.7493,0.7493,0.7493,0.7493,0.7493,0.7493,0.7474,0.7399,0.7598,0.8107,0.8918,0.9432,0.9588,0.9614,0.9614,0.9614,0.9614,0.9614,0.9614,0.9614,0.9614,0.9614,0.9614,0.9614,0.9614,0.9614,0.9614,0.9614,0.9614,0.9614,0.9614,0.9614,0.9614,0.9614,0.9614,0.9614,0.9614,0.9718,1.0208,1.0821,1.1284,1.1834,1.2471,1.2749,1.2891,1.2891,1.2881,1.2881,1.2915,1.2881,1.2915,1.2915,1.2915,1.2915,1.2915,1.2915,1.3135,1.3558,1.3623,1.3686,1.4122,1.4507,1.5183,1.6275,1.7198,1.78,1.807,1.8367,1.8345,1.8096,1.8045,1.7999,1.7535,1.7295,1.7188,1.7207,1.7207,1.7182,1.7865,1.8409,1.8986,1.9448,1.9712,2.0059,2.0593,2.0875,2.1023,2.1144,2.1288,2.1506,2.1688,2.1626,2.1945,2.2449,2.2963,2.3516,2.3967,2.4317,2.4518,2.4822,2.506,2.5143,0.7493,0.7493,0.7493,0.7493,0.7493,0.7493,0.7493,0.7493,0.7493,0.7493,0.7493,0.7493,0.7493,0.7493,0.7493,0.7493,0.7493,0.7493,0.7493,0.7516,0.7538,0.7855,0.8418,0.9159,0.9508,0.9588,0.9614,0.9614,0.9614,0.9614,0.9614,0.9614,0.9614,0.9614,0.9614,0.9614,0.9614,0.9614,0.9614,0.9614,0.9614,0.9614,0.9614,0.9614,0.9614,0.9614,0.9614,0.9614,0.9614,0.9666,0.9821,1.0131,1.0515,1.125,1.176,1.224,1.2397,1.2578,1.2554,1.2554,1.2554,1.2612,1.2725,1.2881,1.2915,1.2915,1.2915,1.2915,1.2915,1.3248,1.3691,1.3825,1.4205,1.4733,1.4965,1.5353,1.6116,1.6845,1.7233,1.7467,1.7754,1.7877,1.739,1.7501,1.7281,1.6869,1.6571,1.6385,1.6243,1.6207,1.6361,1.7014,1.7366,1.7747,1.8302,1.8644,1.9448,2.0053,2.0861,2.101,2.1144,2.1288,2.1434,2.1578,2.1602,2.1793,2.2287,2.2715,2.3038,2.3465,2.3946,2.4395,2.4661,2.5001,2.5084,0.7493,0.7493,0.7493,0.7493,0.7493,0.7493,0.7493,0.7493,0.7493,0.7493,0.7493,0.7493,0.7493,0.7493,0.7493,0.7493,0.7493,0.7493,0.7493,0.756,0.7736,0.8072,0.8375,0.8942,0.9266,0.9461,0.9536,0.9614,0.9614,0.9614,0.9614,0.9614,0.9614,0.9614,0.9614,0.9614,0.9614,0.9614,0.9614,0.9614,0.9614,0.9614,0.9614,0.9614,0.9614,0.9614,0.9614,0.9614,0.9614,0.9614,1.0061,1.0061,0.9943,1.1234,1.1644,1.1451,1.1769,1.2017,1.2126,1.2175,1.2209,1.2357,1.2749,1.2939,1.3032,1.3086,1.3154,1.3174,1.3027,1.332,1.3659,1.4116,1.466,1.5171,1.542,1.5632,1.5908,1.6558,1.6916,1.6534,1.7346,1.7518,1.7396,1.7389,1.7421,1.6166,1.5909,1.5772,1.5595,1.5539,1.5718,1.6068,1.6253,1.6292,1.6911,1.7503,1.8535,1.944,2.056,2.1046,2.1155,2.1288,2.1361,2.1434,2.1506,2.1746,2.2147,2.2457,2.2686,2.3201,2.3824,2.4172,2.4457,2.4826,2.5045,0.7493,0.7493,0.7493,0.7493,0.7493,0.7493,0.7493,0.7493,0.7493,0.7493,0.7493,0.7493,0.7493,0.7493,0.7493,0.7493,0.7493,0.7493,0.7493,0.7567,0.8094,0.8077,0.8139,0.8577,0.8904,0.9073,0.9432,0.9588,0.9588,0.9614,0.9614,0.9614,0.9614,0.9614,0.9614,0.9614,0.9614,0.9614,0.9614,0.9614,0.9614,0.9614,0.9614,0.9614,0.9614,0.9614,0.9614,0.9614,0.9614,0.9647,0.9725,0.9899,1.019,1.0574,1.0905,1.1158,1.125,1.1585,1.1977,1.2051,1.2249,1.2548,1.2995,1.3379,1.3398,1.3627,1.3773,1.3831,1.3841,1.3838,1.3991,1.4646,1.5069,1.5361,1.5802,1.6159,1.6267,1.6443,1.6534,1.6534,1.6609,1.6595,1.6157,1.6278,1.6095,1.5478,1.533,1.5215,1.5107,1.5028,1.5293,1.5672,1.5747,1.5962,1.6704,1.7358,1.8229,1.9171,2.0191,2.1057,2.1191,2.1288,2.1361,2.1385,2.141,2.1698,2.203,2.2254,2.2472,2.3091,2.3674,2.4009,2.4338,2.4706,2.5005,0.7493,0.7493,0.7493,0.7493,0.7493,0.7493,0.7493,0.7493,0.7493,0.7493,0.7493,0.7493,0.7493,0.7493,0.7493,0.7493,0.7493,0.7493,0.7493,0.753,0.7775,0.7694,0.7644,0.8017,0.8401,0.8738,0.9059,0.9302,0.9536,0.9595,0.9614,0.9614,0.9614,0.9614,0.9614,0.9614,0.9614,0.9614,0.9614,0.9614,0.9614,0.9614,0.9614,0.9614,0.9614,0.9614,0.9614,0.9614,0.9614,0.9614,0.9614,0.9725,1.0035,1.0267,1.0549,1.0753,1.0829,1.093,1.1259,1.1535,1.176,1.215,1.2935,1.3361,1.3578,1.386,1.4075,1.4114,1.4094,1.4141,1.425,1.4849,1.5235,1.5504,1.5992,1.6353,1.6402,1.6402,1.6402,1.6402,1.642,1.6355,1.6133,1.596,1.5811,1.5699,1.5615,1.5441,1.5086,1.5043,1.5228,1.5473,1.5512,1.5872,1.6648,1.7399,1.8129,1.9043,1.9959,2.0766,2.1215,2.1313,2.1385,2.1385,2.141,2.1554,2.1864,2.2067,2.2324,2.2791,2.3304,2.3775,2.4193,2.4503,2.4786,0.7555,0.7493,0.7493,0.7493,0.7493,0.7493,0.7493,0.7493,0.7493,0.7493,0.7493,0.7493,0.7493,0.7493,0.7493,0.7493,0.7493,0.7493,0.7493,0.7507,0.7425,0.7378,0.734,0.7581,0.7959,0.8568,0.8704,0.8958,0.9209,0.9453,0.938,0.9484,0.9588,0.9588,0.9614,0.9614,0.9614,0.9614,0.9614,0.9614,0.9614,0.9614,0.9614,0.9614,0.9614,0.9614,0.9614,0.9614,0.9614,0.9614,0.9614,0.9614,0.9718,0.995,1.0267,1.0275,1.0267,1.0498,1.0804,1.1057,1.1334,1.1444,1.2756,1.3517,1.3695,1.4075,1.4319,1.4241,1.4228,1.4306,1.4509,1.4998,1.5388,1.5652,1.612,1.6343,1.6402,1.6402,1.6402,1.6402,1.6402,1.634,1.634,1.6267,1.6091,1.5936,1.5853,1.5718,1.5376,1.5284,1.56,1.5738,1.5857,1.5687,1.6336,1.7351,1.8102,1.8796,1.9698,2.0502,2.1142,2.1313,2.1361,2.1385,2.1434,2.1578,2.1722,2.1949,2.2231,2.2563,2.2994,2.3523,2.3925,2.4255,2.4584,0.7655,0.7493,0.7493,0.7493,0.7493,0.7493,0.7493,0.7493,0.7493,0.7493,0.7493,0.7493,0.7493,0.7493,0.7493,0.7493,0.7493,0.7493,0.7493,0.7493,0.7422,0.7356,0.7286,0.7322,0.7598,0.7863,0.813,0.8354,0.8593,0.8724,0.8944,0.9028,0.9354,0.9562,0.9565,0.9621,0.9577,0.9639,0.9584,0.9536,0.9614,0.9614,0.9614,0.9614,0.9614,0.9614,0.9614,0.9614,0.9614,0.9614,0.9614,0.9614,0.964,0.9725,0.9777,0.9795,0.9795,1.0105,1.077,1.1099,1.171,1.2541,1.3426,1.3922,1.4163,1.463,1.4853,1.4704,1.453,1.4529,1.5027,1.531,1.5606,1.5946,1.6185,1.6402,1.6402,1.6402,1.6402,1.6402,1.6402,1.6402,1.6402,1.6402,1.6278,1.6174,1.6143,1.615,1.6022,1.6036,1.629,1.6344,1.6363,1.6104,1.599,1.7071,1.7989,1.8567,1.9396,2.0343,2.0908,2.1215,2.1337,2.1385,2.141,2.1506,2.1674,2.1831,2.2114,2.244,2.2881,2.3304,2.3717,2.413,2.4503,0.7688,0.7498,0.7493,0.7493,0.7493,0.7493,0.7493,0.7493,0.7493,0.7493,0.7493,0.7493,0.7493,0.7493,0.7493,0.7493,0.7493,0.7493,0.7493,0.7493,0.7484,0.7488,0.7374,0.7342,0.7448,0.7587,0.7683,0.7984,0.8379,0.8441,0.8496,0.8594,0.8977,0.9267,0.9351,0.9248,0.9475,0.9624,0.9473,0.9354,0.9588,0.9614,0.9614,0.9614,0.9614,0.9614,0.9614,0.9614,0.9614,0.9614,0.9614,0.9614,0.9614,0.9614,0.9614,0.9614,0.9614,0.9925,1.0694,1.1032,1.1664,1.2688,1.3616,1.4192,1.4513,1.4961,1.5283,1.5171,1.4785,1.4831,1.5576,1.5555,1.5751,1.6136,1.6345,1.6374,1.6402,1.6402,1.6402,1.6402,1.6402,1.6402,1.6402,1.6402,1.6402,1.6402,1.6402,1.642,1.6477,1.6591,1.6694,1.6796,1.6763,1.6672,1.6426,1.7074,1.79,1.845,1.9115,2.0054,2.0734,2.1055,2.1288,2.1385,2.1434,2.1458,2.1554,2.1698,2.202,2.2324,2.2669,2.3038,2.3523,2.3988,2.4364,0.7726,0.7493,0.7493,0.7493,0.7493,0.7493,0.7493,0.7493,0.7493,0.7493,0.7493,0.7493,0.7493,0.7493,0.7493,0.7493,0.7493,0.7493,0.7493,0.7493,0.7493,0.7521,0.7521,0.7493,0.7493,0.7495,0.7463,0.7608,0.7951,0.8109,0.8067,0.8155,0.8441,0.8843,0.8961,0.8971,0.9363,0.945,0.9385,0.923,0.951,0.9614,0.9614,0.9614,0.9614,0.9614,0.9614,0.9614,0.9614,0.9614,0.9614,0.9614,0.9614,0.9614,0.9614,0.9614,0.9614,0.995,1.0523,1.0956,1.1675,1.2863,1.3621,1.4225,1.4678,1.5037,1.532,1.539,1.521,1.5073,1.5706,1.583,1.5948,1.62,1.6374,1.6402,1.6402,1.6402,1.6402,1.6402,1.6402,1.6402,1.6402,1.6402,1.6402,1.6402,1.6402,1.6477,1.6534,1.6648,1.6779,1.7004,1.7118,1.7185,1.7153,1.7241,1.7863,1.8319,1.8976,1.9786,2.0421,2.0932,2.1129,2.1337,2.141,2.1434,2.1506,2.1602,2.1935,2.2208,2.244,2.2828,2.3392,2.3839,2.4213,0.7849,0.7493,0.7493,0.7493,0.7493,0.7493,0.7493,0.7493,0.7493,0.7493,0.7493,0.7493,0.7493,0.7493,0.7493,0.7493,0.7493,0.7493,0.7493,0.7493,0.7493,0.7493,0.7493,0.7493,0.7493,0.7489,0.7455,0.7259,0.7375,0.7631,0.7582,0.7538,0.8125,0.8564,0.8488,0.8737,0.9116,0.9254,0.9392,0.951,0.9588,0.9614,0.9614,0.9614,0.9614,0.9614,0.9614,0.9614,0.9614,0.9614,0.9614,0.9614,0.9614,0.9614,0.9614,0.9614,0.9718,1.0053,1.0854,1.1158,1.1898,1.3053,1.3811,1.4299,1.4727,1.4974,1.5121,1.4907,1.5124,1.5475,1.5835,1.6076,1.6299,1.6361,1.6402,1.6402,1.6402,1.6402,1.6402,1.6402,1.6402,1.6402,1.6402,1.6402,1.6402,1.6402,1.6392,1.6506,1.6609,1.6751,1.6874,1.7127,1.7239,1.7278,1.739,1.7545,1.7783,1.817,1.8936,1.9618,2.0156,2.0709,2.1093,2.1264,2.1337,2.1385,2.1447,2.1602,2.1864,2.2123,2.2347,2.2791,2.3312,2.3696,2.4088,0.7498,0.7493,0.7493,0.7493,0.7493,0.7493,0.7493,0.7493,0.7493,0.7493,0.7493,0.7493,0.7493,0.7493,0.7493,0.7493,0.7493,0.7493,0.7493,0.7493,0.7493,0.7493,0.7493,0.7493,0.7493,0.7493,0.747,0.7346,0.7216,0.7222,0.731,0.7313,0.7747,0.8155,0.8101,0.8433,0.8887,0.9264,0.9525,0.961,0.9614,0.9621,0.9621,0.9629,0.9636,0.9643,0.9643,0.9614,0.9614,0.9614,0.9614,0.9614,0.9614,0.9614,0.9614,0.9614,0.9614,1.0123,1.0998,1.1158,1.2151,1.3249,1.3842,1.4013,1.4667,1.5071,1.531,1.5555,1.5591,1.5749,1.6011,1.6278,1.635,1.6402,1.6402,1.6402,1.6402,1.6402,1.6402,1.6402,1.6402,1.6402,1.6402,1.6402,1.6402,1.6431,1.6477,1.6581,1.6751,1.6987,1.7099,1.725,1.7278,1.7306,1.739,1.7518,1.7656,1.81,1.9069,1.9643,2.0003,2.0459,2.0945,2.1264,2.1361,2.141,2.1423,2.1568,2.1793,2.203,2.2263,2.2723,2.315,2.3696,2.4135,0.727,0.7493,0.7493,0.7493,0.7493,0.7493,0.7493,0.7493,0.7493,0.7493,0.7493,0.7493,0.7493,0.7493,0.7493,0.7493,0.7493,0.7493,0.7493,0.7493,0.7493,0.7493,0.7493,0.7493,0.7493,0.7493,0.7493,0.7403,0.7354,0.7305,0.7271,0.7128,0.7501,0.7669,0.7834,0.8054,0.8463,0.9244,0.9507,0.9627,0.9712,0.976,0.9811,0.9848,0.9829,0.9829,0.9829,0.9885,0.9892,0.976,0.9768,0.9753,0.9684,0.9681,0.9673,0.9673,0.9699,1.0174,1.0875,1.1344,1.2166,1.302,1.3752,1.3867,1.4721,1.5131,1.5446,1.5805,1.5948,1.6084,1.6299,1.6402,1.6402,1.6402,1.6402,1.6402,1.6402,1.6402,1.6402,1.6402,1.6402,1.6402,1.6402,1.6402,1.6431,1.6449,1.6563,1.6694,1.6892,1.7127,1.7222,1.7306,1.7306,1.7306,1.7362,1.7462,1.7601,1.7991,1.8963,1.9643,1.9952,2.0485,2.1031,2.1264,2.1385,2.1482,2.1568,2.1602,2.1698,2.2053,2.237,2.2592,2.2986,2.356,2.4094,0.7475,0.7493,0.7493,0.7493,0.7493,0.7493,0.7493,0.7493,0.7493,0.7493,0.7493,0.7493,0.7493,0.7493,0.7493,0.7493,0.7493,0.7493,0.7493,0.7493,0.7493,0.7493,0.7493,0.7493,0.7493,0.7493,0.7493,0.7479,0.7525,0.7574,0.7286,0.6986,0.7542,0.7307,0.7476,0.8004,0.8478,0.9178,0.953,0.9858,1.0002,1.0097,1.0185,1.0404,1.0477,1.0514,1.0507,1.0433,1.0337,1.0102,1.0043,1.008,1.0,0.9844,0.9814,0.9967,0.9986,1.0415,1.0968,1.1241,1.1713,1.2513,1.3237,1.3821,1.4561,1.4754,1.5111,1.5759,1.6084,1.6249,1.6371,1.6402,1.6402,1.6402,1.6402,1.6402,1.6402,1.6402,1.6402,1.6402,1.6402,1.6402,1.6402,1.6402,1.6449,1.6506,1.6666,1.6797,1.6976,1.7172,1.725,1.7306,1.7306,1.7306,1.7306,1.7418,1.7518,1.7963,1.8724,1.9345,1.9811,2.0421,2.1191,2.1288,2.141,2.1568,2.1712,2.1817,2.1983,2.2208,2.2477,2.2684,2.3031,2.3581,2.4046,0.7195,0.7493,0.7493,0.7493,0.7493,0.7493,0.7493,0.7493,0.7493,0.7493,0.7493,0.7493,0.7493,0.7493,0.7493,0.7493,0.7493,0.7493,0.7493,0.7493,0.7493,0.7493,0.7493,0.7493,0.7493,0.7493,0.7493,0.7493,0.7517,0.7782,0.8013,0.7963,0.7992,0.7994,0.8137,0.8552,0.9157,0.9508,0.9926,1.0294,1.0338,1.0404,1.0463,1.0558,1.058,1.058,1.0565,1.0572,1.0556,1.0509,1.0354,1.0397,1.0415,1.0181,1.0189,1.042,1.0432,1.0636,1.0973,1.1116,1.1356,1.2,1.2943,1.3801,1.4334,1.4742,1.5402,1.5961,1.6267,1.6392,1.6402,1.6402,1.6402,1.6402,1.6402,1.6402,1.6402,1.6402,1.6402,1.6402,1.6402,1.6402,1.6402,1.6402,1.6477,1.6581,1.674,1.6927,1.7088,1.7211,1.7278,1.7306,1.7306,1.7306,1.7306,1.7379,1.7451,1.7979,1.8525,1.9188,1.9863,2.0709,2.135,2.1385,2.1434,2.1544,2.1736,2.2006,2.2217,2.2394,2.2578,2.2806,2.3194,2.3603,2.3988,0.7162,0.7493,0.7493,0.7493,0.7493,0.7493,0.7493,0.7493,0.7493,0.7493,0.7493,0.7493,0.7493,0.7493,0.7493,0.7493,0.7493,0.7493,0.7493,0.7493,0.7493,0.7493,0.7493,0.7493,0.7493,0.7493,0.7493,0.7493,0.7526,0.7972,0.8173,0.8388,0.8705,0.873,0.8857,0.9492,0.9993,1.0059,1.0377,1.0667,1.0726,1.0762,1.0836,1.0916,1.0968,1.0975,1.1012,1.1049,1.0982,1.0928,1.0872,1.0902,1.0834,1.0743,1.0639,1.0812,1.0953,1.0903,1.1063,1.1134,1.129,1.1996,1.2654,1.344,1.4082,1.4801,1.543,1.6236,1.6381,1.6402,1.6402,1.6402,1.6402,1.6402,1.6402,1.6402,1.6402,1.6402,1.6402,1.6402,1.6402,1.6402,1.6431,1.6449,1.6552,1.6694,1.6948,1.7088,1.7183,1.7278,1.7278,1.7306,1.7306,1.7306,1.7306,1.7362,1.7462,1.7909,1.8536,1.9293,2.0016,2.0858,2.1375,2.1385,2.1434,2.1544,2.1746,2.203,2.2287,2.2532,2.2715,2.2873,2.3016,2.3414,2.3882,0.7489,0.7493,0.7493,0.7493,0.7493,0.7493,0.7493,0.7493,0.7493,0.7493,0.7493,0.7493,0.7493,0.7493,0.7493,0.7493,0.7493,0.7493,0.7493,0.7493,0.7493,0.7493,0.7493,0.7493,0.7493,0.7493,0.7493,0.7493,0.7526,0.7782,0.8069,0.871,0.9308,0.9561,0.9285,0.9567,0.9731,0.9826,1.0408,1.0807,1.1004,1.11,1.1232,1.1349,1.1431,1.144,1.1432,1.1555,1.1511,1.139,1.1395,1.1405,1.1386,1.1056,1.104,1.1344,1.119,1.1174,1.1302,1.1295,1.1607,1.2054,1.2583,1.3167,1.4016,1.4737,1.5409,1.6275,1.6402,1.6402,1.6402,1.6402,1.6402,1.6402,1.6402,1.6402,1.6402,1.6402,1.6402,1.6402,1.6402,1.6402,1.6449,1.6506,1.6609,1.6807,1.7099,1.7239,1.7278,1.7306,1.7306,1.7306,1.7306,1.7306,1.7306,1.7306,1.7462,1.7909,1.8563,1.9423,2.0144,2.0883,2.124,2.1361,2.1458,2.1544,2.1769,2.203,2.2356,2.2669,2.276,2.2896,2.3031,2.3282,2.3839,0.7493,0.7493,0.7493,0.7493,0.7493,0.7493,0.7493,0.7493,0.7493,0.7493,0.7493,0.7493,0.7493,0.7493,0.7493,0.7493,0.7493,0.7493,0.7493,0.7493,0.7493,0.7493,0.7489,0.7484,0.7484,0.7521,0.7521,0.7526,0.7526,0.7847,0.8522,0.9224,1.0135,1.0684,1.0625,1.074,1.0916,1.0752,1.1039,1.1335,1.1415,1.1423,1.1467,1.1591,1.1685,1.1747,1.1747,1.1903,1.1943,1.1851,1.1872,1.186,1.1899,1.1628,1.1549,1.1889,1.1876,1.1853,1.199,1.2068,1.195,1.2209,1.2525,1.3268,1.442,1.497,1.5627,1.6169,1.6363,1.6402,1.6402,1.6402,1.6402,1.6402,1.6402,1.6402,1.6402,1.6402,1.6402,1.6402,1.6402,1.6402,1.6431,1.6506,1.6637,1.674,1.7004,1.7183,1.7239,1.7278,1.7306,1.7306,1.7306,1.7306,1.7306,1.7362,1.781,1.8429,1.9004,1.9708,2.0396,2.1006,2.124,2.1385,2.1471,2.1544,2.1912,2.2287,2.2578,2.2806,2.2896,2.2978,2.3031,2.3407,2.3946,0.7493,0.7493,0.7493,0.7493,0.7493,0.7493,0.7493,0.7493,0.7493,0.7493,0.7493,0.7493,0.7493,0.7493,0.7493,0.7493,0.7493,0.7493,0.7493,0.7493,0.7493,0.7441,0.7418,0.7441,0.7455,0.7464,0.7497,0.7554,0.7907,0.8296,0.8967,0.9901,1.0982,1.1234,1.1294,1.1368,1.1428,1.1281,1.1445,1.1525,1.1562,1.1569,1.1608,1.1685,1.174,1.1833,1.1934,1.2058,1.2212,1.2227,1.2241,1.2215,1.2305,1.2184,1.2003,1.232,1.2274,1.2281,1.2504,1.2194,1.2301,1.3132,1.3068,1.3653,1.4754,1.5412,1.5869,1.6249,1.6374,1.6402,1.6402,1.6402,1.6402,1.6402,1.6402,1.6402,1.6402,1.6402,1.6402,1.6402,1.6402,1.6402,1.642,1.6534,1.6637,1.674,1.6853,1.7032,1.7211,1.7278,1.7306,1.7306,1.7306,1.7306,1.7362,1.7434,1.8018,1.8871,1.9449,1.9991,2.0522,2.108,2.1264,2.1434,2.1568,2.1783,2.2194,2.2532,2.2692,2.2873,2.3053,2.3075,2.3075,2.3494,2.4009,0.7493,0.7493,0.7493,0.7493,0.7493,0.7493,0.7493,0.7493,0.7493,0.7493,0.7493,0.7493,0.7493,0.7493,0.7493,0.7493,0.7493,0.7493,0.7465,0.7488,0.7459,0.7332,0.7285,0.7313,0.7304,0.7335,0.741,0.7658,0.8345,0.8683,0.9326,1.0225,1.1115,1.1447,1.1547,1.1547,1.1555,1.154,1.1547,1.1591,1.1591,1.1622,1.1685,1.1778,1.1833,1.1965,1.2089,1.2243,1.2313,1.2382,1.2436,1.2536,1.2479,1.2226,1.2329,1.2383,1.221,1.2497,1.2814,1.2421,1.3122,1.4117,1.4328,1.4592,1.5064,1.5835,1.6159,1.6316,1.6402,1.6402,1.6402,1.6402,1.6402,1.6402,1.6402,1.6402,1.6402,1.6402,1.6402,1.6402,1.6402,1.6392,1.6449,1.6524,1.6666,1.6779,1.6853,1.6955,1.7106,1.7239,1.7278,1.7306,1.7306,1.7334,1.7407,1.759,1.824,1.9123,1.9631,2.0144,2.0684,2.1142,2.1288,2.1458,2.1688,2.1973,2.237,2.2578,2.2692,2.2896,2.312,2.3238,2.3238,2.3545,2.4015,0.7493,0.7493,0.7493,0.7493,0.7493,0.7493,0.7493,0.7493,0.7493,0.7493,0.7493,0.7493,0.7493,0.7493,0.7493,0.7484,0.7484,0.747,0.738,0.7332,0.7275,0.7106,0.7036,0.7026,0.7073,0.7185,0.7293,0.7526,0.8011,0.8554,0.9262,0.9837,1.1052,1.1466,1.1591,1.1591,1.1591,1.1591,1.1591,1.1591,1.1654,1.1685,1.1778,1.184,1.2027,1.2151,1.2243,1.2406,1.2498,1.2529,1.256,1.259,1.2566,1.2487,1.2543,1.2558,1.2548,1.2696,1.3212,1.3296,1.3821,1.4932,1.5202,1.5573,1.5923,1.6175,1.6402,1.6402,1.6402,1.6402,1.6402,1.6402,1.6402,1.6402,1.6402,1.6402,1.6402,1.6402,1.6402,1.6431,1.6431,1.6477,1.6524,1.6609,1.6712,1.6807,1.6881,1.6983,1.7067,1.72,1.7278,1.7306,1.7306,1.7334,1.7645,1.787,1.8605,1.9307,1.9837,2.0371,2.0932,2.1313,2.1361,2.1554,2.1817,2.2137,2.25,2.2661,2.2783,2.2941,2.3142,2.329,2.3471,2.3782,2.412,0.7493,0.7493,0.7493,0.7493,0.7493,0.7493,0.7493,0.7493,0.7493,0.7493,0.7493,0.7493,0.7493,0.747,0.7408,0.7361,0.7383,0.7242,0.7125,0.7069,0.704,0.6864,0.674,0.6754,0.6897,0.7026,0.7243,0.7499,0.8018,0.9096,0.9932,1.0066,1.1115,1.1428,1.1591,1.1591,1.1591,1.1591,1.1591,1.1622,1.1685,1.1778,1.1833,1.1988,1.2243,1.2305,1.2436,1.256,1.259,1.259,1.259,1.259,1.259,1.259,1.2828,1.2889,1.3025,1.3498,1.4114,1.4163,1.4802,1.5443,1.5746,1.5907,1.6156,1.6353,1.6402,1.6402,1.6402,1.6402,1.6402,1.6402,1.6402,1.6402,1.6402,1.6402,1.6402,1.6402,1.6431,1.6449,1.6506,1.6563,1.6609,1.6684,1.6768,1.6909,1.7022,1.7117,1.7172,1.7239,1.7278,1.7306,1.7306,1.7362,1.7717,1.8186,1.8859,1.9515,2.0118,2.066,2.1215,2.1434,2.1482,2.1698,2.1983,2.2301,2.2615,2.2752,2.2888,2.3031,2.3253,2.3545,2.3782,2.4073,2.4421,0.7493,0.7493,0.7493,0.7493,0.7493,0.7493,0.7493,0.7493,0.7493,0.7493,0.7493,0.7493,0.7493,0.746,0.7327,0.7232,0.718,0.704,0.6887,0.6773,0.6798,0.668,0.6596,0.668,0.6784,0.6882,0.7121,0.7511,0.8463,0.9262,0.9837,1.039,1.1059,1.1341,1.1334,1.1529,1.1591,1.1591,1.1622,1.1622,1.1747,1.1833,1.1957,1.2205,1.2336,1.2398,1.2529,1.259,1.259,1.259,1.259,1.259,1.259,1.2621,1.292,1.3216,1.3338,1.4043,1.4641,1.484,1.5346,1.5784,1.6029,1.6102,1.6288,1.6392,1.6402,1.6402,1.6402,1.6402,1.6402,1.6402,1.6402,1.6402,1.6402,1.642,1.6477,1.6506,1.6563,1.6591,1.662,1.6676,1.6768,1.6853,1.6937,1.7022,1.7106,1.7239,1.7267,1.7278,1.7278,1.7306,1.7418,1.7545,1.7979,1.8471,1.9071,1.9696,2.0371,2.0833,2.1288,2.1496,2.1592,2.1807,2.203,2.237,2.2661,2.2797,2.291,2.3023,2.3312,2.3812,2.4109,2.4317,2.462,0.7493,0.7493,0.7493,0.7493,0.7493,0.7493,0.7493,0.7493,0.7493,0.7489,0.7489,0.7484,0.7479,0.7432,0.7228,0.7133,0.7095,0.6831,0.6727,0.6595,0.6552,0.6497,0.6356,0.6497,0.6661,0.685,0.7095,0.7436,0.7991,0.8651,0.9096,0.923,1.0218,1.0989,1.1021,1.1303,1.1591,1.1591,1.1591,1.1654,1.1778,1.1965,1.2151,1.2305,1.2398,1.2498,1.259,1.259,1.259,1.259,1.259,1.259,1.259,1.259,1.292,1.3368,1.3541,1.4312,1.4963,1.537,1.5726,1.6071,1.6288,1.6319,1.6371,1.6392,1.6402,1.6402,1.6402,1.6402,1.6402,1.6402,1.6402,1.6402,1.6392,1.6477,1.6552,1.662,1.6705,1.6733,1.6761,1.6835,1.6937,1.6994,1.7078,1.7145,1.7211,1.7306,1.7278,1.7306,1.7306,1.7362,1.7573,1.7783,1.8213,1.8833,1.9489,2.0105,2.0784,2.1142,2.1375,2.1447,2.1544,2.1807,2.2067,2.237,2.2638,2.2797,2.2925,2.3,2.34,2.3897,2.4198,2.4426,2.4726,0.7493,0.7493,0.7493,0.7493,0.7493,0.7493,0.7493,0.7493,0.7493,0.7437,0.7365,0.7388,0.7388,0.7289,0.7052,0.6933,0.6861,0.6628,0.6483,0.6389,0.6374,0.6313,0.6299,0.6346,0.6548,0.6798,0.7149,0.7468,0.7674,0.8522,0.9102,0.916,1.0186,1.0926,1.0989,1.1404,1.1591,1.1591,1.1591,1.1685,1.1809,1.1996,1.2158,1.2305,1.2467,1.256,1.259,1.259,1.259,1.259,1.259,1.259,1.259,1.259,1.292,1.342,1.3863,1.438,1.5147,1.5681,1.5961,1.6278,1.6402,1.6381,1.6381,1.6402,1.6402,1.6402,1.6402,1.6402,1.6402,1.6402,1.6402,1.6402,1.6477,1.6563,1.6637,1.6733,1.6807,1.6892,1.692,1.6976,1.7078,1.7155,1.7211,1.7211,1.7306,1.7306,1.7306,1.7306,1.7306,1.749,1.7755,1.7979,1.8282,1.9097,2.0029,2.0635,2.1104,2.1264,2.1399,2.1423,2.1496,2.1736,2.1996,2.2301,2.2546,2.2752,2.2865,2.2933,2.3407,2.3982,2.4261,2.4569,2.4886,0.7493,0.7493,0.7493,0.7493,0.7493,0.7493,0.7493,0.7493,0.7489,0.7412,0.7209,0.7171,0.7152,0.6979,0.6738,0.6577,0.6468,0.6393,0.6266,0.6233,0.6229,0.6224,0.6238,0.628,0.6572,0.6864,0.7237,0.7518,0.7782,0.8587,0.923,0.9709,1.0541,1.1435,1.1498,1.1591,1.1591,1.1591,1.1622,1.1685,1.1809,1.1996,1.2151,1.2313,1.2467,1.259,1.259,1.259,1.259,1.259,1.259,1.259,1.259,1.2621,1.2981,1.345,1.4082,1.4677,1.5352,1.5951,1.6192,1.6402,1.6402,1.6402,1.6402,1.6402,1.6402,1.6402,1.6402,1.6402,1.6402,1.642,1.642,1.6477,1.6581,1.6694,1.6751,1.6846,1.6948,1.705,1.7088,1.7145,1.7211,1.7278,1.7306,1.7306,1.7306,1.7306,1.7306,1.7334,1.7334,1.7717,1.8159,1.8336,1.8555,1.9425,2.0485,2.0797,2.1215,2.1313,2.1385,2.141,2.1496,2.1664,2.1949,2.2254,2.25,2.2706,2.2797,2.2918,2.3473,2.4024,2.4338,2.4666,2.5064,0.7493,0.7493,0.7493,0.7493,0.7493,0.7493,0.7493,0.7493,0.7489,0.738,0.7175,0.6974,0.6878,0.6838,0.6628,0.6487,0.6421,0.6276,0.6219,0.6205,0.62,0.62,0.6261,0.6389,0.6728,0.6988,0.7295,0.7651,0.8076,0.8554,0.9037,0.9646,1.0256,1.08,1.0895,1.1146,1.1591,1.1591,1.1622,1.1685,1.1809,1.1996,1.2151,1.2305,1.249,1.256,1.259,1.259,1.259,1.259,1.259,1.259,1.259,1.2621,1.292,1.3398,1.4052,1.4677,1.5303,1.599,1.6288,1.6402,1.6402,1.6402,1.6402,1.6431,1.6431,1.6459,1.6431,1.6431,1.6459,1.6524,1.6552,1.6637,1.674,1.6853,1.6937,1.7071,1.7183,1.7211,1.7211,1.725,1.725,1.7306,1.7306,1.7306,1.7306,1.7306,1.7306,1.7323,1.7379,1.7952,1.8498,1.8924,1.9267,1.9965,2.0833,2.1093,2.1264,2.1337,2.1385,2.1385,2.1482,2.1592,2.1864,2.2194,2.244,2.2661,2.2918,2.3105,2.3603,2.4088,2.438,2.4786,2.5201]}]]